GFSGBSN_925_spd_000.txt.gz
Wind_Speed
9 9 8 8 7 7 8 9 8 9 9 10 12 11 9 11 12 13 14 14 15 15 15 15 15 15 13 10 11 9 4 31 36 24 19 13 8 6 6 5 3 4 6 7 12 10 7
10 9 9 10 9 8 9 10 9 9 10 11 13 12 11 12 12 12 12 13 15 16 15 15 16 17 10 15 24 20 11 25 31 26 23 16 7 7 6 5 6 5 5 7 7 9 5
12 10 10 10 10 9 10 10 10 10 11 12 11 12 12 13 14 13 12 13 14 16 14 15 17 18 12 15 8 20 15 16 28 27 13 19 8 6 5 3 4 5 6 7 9 6 6
12 11 10 11 10 10 11 11 11 12 12 13 11 12 13 13 12 14 14 13 14 15 14 16 19 18 6 25 30 14 11 15 22 22 19 21 6 2 2 1 5 2 2 2 5 4 7
12 11 10 11 10 12 13 11 11 12 13 14 13 14 14 17 18 15 13 13 14 16 18 16 12 10 5 9 13 29 20 8 16 21 20 10 5 2 2 3 3 3 3 5 9 7 3
13 12 12 13 11 12 13 10 11 13 14 17 18 19 16 15 15 15 14 12 12 13 15 12 6 7 6 7 12 14 26 19 7 14 14 6 2 3 2 4 6 5 4 5 6 4 7
14 14 14 13 12 13 13 11 12 11 13 17 18 19 17 12 6 6 13 6 5 2 7 4 7 5 3 10 16 17 21 21 16 12 14 11 5 10 10 10 5 4 3 4 8 9 8
15 15 14 14 13 13 12 13 12 13 13 16 18 20 17 11 4 12 15 4 4 7 7 3 2 12 4 11 7 4 21 14 18 20 18 7 17 13 9 6 5 5 6 9 9 4 1
17 16 13 15 13 14 13 13 13 14 15 15 18 18 13 8 5 9 13 13 11 18 5 3 4 9 4 6 6 11 16 11 23 22 23 8 10 12 9 5 8 6 8 5 6 6 4
17 18 15 14 14 13 14 14 14 14 14 15 16 15 10 5 4 5 4 11 12 3 4 3 6 5 4 6 5 3 3 10 9 22 17 5 4 16 11 11 8 8 8 8 3 2 3
17 18 17 16 14 14 15 15 15 14 15 15 15 13 4 10 1 0 8 8 6 3 3 6 5 5 7 3 11 2 2 4 21 20 6 8 13 16 13 10 9 10 6 3 0 1 3
17 16 19 18 17 15 15 17 17 16 16 16 14 9 3 8 6 5 6 5 1 3 4 6 7 11 13 6 3 4 2 1 6 8 4 2 7 9 9 5 7 6 4 7 4 2 2
17 17 17 18 19 17 16 17 18 18 19 18 17 9 14 12 5 18 13 4 3 1 4 7 7 11 12 6 6 6 3 7 7 12 6 5 2 2 5 5 3 5 6 1 1 1 6
17 18 16 18 19 19 17 18 19 20 23 23 23 15 20 25 18 21 14 4 3 4 2 5 13 13 4 14 6 12 5 9 3 10 8 7 9 8 5 6 7 6 7 5 6 4 4
17 18 17 17 17 20 20 18 21 22 24 26 21 3 8 20 17 24 3 3 2 2 5 10 14 5 4 7 5 7 2 6 4 6 6 6 3 2 2 3 6 5 4 4 2 2 2
20 20 16 16 16 19 21 19 22 25 25 27 5 3 4 13 28 12 3 4 3 5 11 6 5 5 6 14 10 8 9 5 7 8 3 5 5 1 2 3 2 4 4 2 2 3 4
19 19 16 16 16 19 20 20 21 24 27 10 3 0 4 29 21 2 2 3 6 12 5 4 6 10 15 11 10 8 5 3 1 5 4 6 4 1 3 4 7 2 1 2 3 4 4
20 18 16 15 15 17 19 20 20 21 24 5 1 0 21 30 2 1 3 4 4 4 6 4 17 23 9 7 5 3 5 2 3 4 6 2 5 4 3 1 1 3 6 5 4 3 1
18 18 16 13 14 15 17 18 18 18 17 7 2 1 15 7 2 2 2 4 2 4 3 7 4 1 4 3 5 3 4 1 5 3 6 5 2 4 3 4 2 4 4 4 4 3 5
17 16 15 13 12 14 15 15 16 16 15 6 1 1 1 2 1 6 4 3 4 2 6 5 4 4 3 6 7 4 3 3 2 2 2 3 3 5 7 4 5 5 5 5 5 4 4
16 16 15 13 12 11 14 13 14 15 16 4 1 2 2 2 2 3 2 2 3 4 5 4 5 3 5 4 3 4 2 3 4 2 3 3 4 2 2 3 3 4 6 8 7 4 6
15 15 15 13 12 10 12 11 12 14 13 1 3 2 3 2 1 4 4 1 3 3 3 4 7 3 7 5 1 5 5 2 2 3 3 3 2 2 2 4 3 3 4 6 5 4 6
15 15 14 13 10 9 9 9 10 12 8 1 1 1 3 4 2 3 2 5 4 6 5 6 10 13 12 1 4 4 4 7 4 4 2 3 3 2 2 3 5 5 5 5 4 4 5
15 14 13 11 10 8 7 7 7 8 10 1 2 2 3 0 1 2 3 3 4 0 7 3 5 6 3 2 3 4 9 10 10 7 3 5 4 2 2 2 1 0 4 6 5 3 2
15 13 13 9 9 8 5 5 5 4 6 5 3 1 3 3 2 5 5 6 5 6 5 4 4 2 1 3 4 4 4 3 6 6 6 3 4 3 3 2 5 2 2 3 3 2 2
15 12 12 9 9 8 5 3 3 3 4 1 9 2 3 5 2 4 4 3 4 3 3 3 2 2 0 3 3 4 4 4 3 2 5 5 6 4 2 3 5 2 2 2 1 2 4
14 12 12 10 9 7 6 3 2 2 2 2 3 5 3 4 2 1 3 5 4 4 4 2 2 2 2 2 2 3 2 2 4 6 4 3 3 5 3 2 6 5 6 0 4 3 3
15 13 12 11 9 8 7 4 2 1 1 1 2 8 1 3 1 3 2 3 2 2 5 4 3 2 2 3 3 3 3 4 2 4 5 6 6 4 3 2 7 2 2 3 3 2 3
18 15 13 12 10 8 6 5 1 1 2 0 1 4 7 4 3 2 4 5 4 2 5 1 2 3 4 4 2 3 2 1 4 3 1 3 5 5 7 5 2 3 5 3 4 4 3

GFSGBSN_925_spd_003.txt.gz
Wind_Speed
13 13 11 10 11 10 11 11 11 10 10 10 9 10 9 9 9 11 13 16 16 15 15 16 17 15 10 8 10 8 10 17 31 25 21 9 5 6 7 6 3 4 5 5 9 9 7
17 14 13 11 12 12 11 12 12 10 10 11 11 11 10 11 10 11 13 14 16 16 16 15 16 16 7 17 18 30 19 6 28 28 22 16 8 6 5 5 8 6 6 9 6 10 5
17 15 14 12 12 12 11 12 13 10 10 11 10 12 13 11 12 13 13 14 15 16 17 17 16 16 9 17 9 7 24 14 25 25 16 20 15 7 6 3 6 3 4 7 8 8 8
17 13 13 12 12 13 13 13 14 12 10 11 11 12 13 15 14 14 15 14 15 15 15 17 15 15 7 17 26 16 3 9 14 22 20 25 15 5 4 2 4 4 2 3 4 3 5
16 14 14 13 14 13 14 14 14 14 11 11 12 14 17 18 19 19 16 15 15 14 15 14 10 11 6 8 15 29 18 5 12 20 12 11 8 4 2 4 2 1 3 5 8 4 1
17 15 16 15 15 15 14 14 14 14 12 13 17 16 17 16 16 21 17 13 10 9 10 7 8 6 5 11 7 14 22 16 3 9 6 8 4 5 3 4 9 5 3 5 5 4 1
18 16 17 16 16 14 14 15 14 14 13 14 17 18 18 17 12 14 15 7 2 4 8 7 8 6 5 13 14 16 18 13 3 11 17 10 7 15 12 11 3 4 4 3 5 6 5
17 19 18 15 16 14 14 15 13 15 15 15 18 17 16 12 7 10 23 4 6 2 5 9 5 18 10 15 7 13 25 10 8 20 17 7 16 15 7 4 5 3 2 5 8 4 4
17 18 18 17 16 15 13 15 13 14 15 15 16 16 15 8 4 18 19 16 15 14 4 5 7 11 7 7 6 16 21 8 10 19 22 13 10 9 14 7 7 4 4 4 6 8 4
16 17 18 18 17 16 15 15 14 13 14 14 13 12 10 4 4 12 12 22 20 13 3 7 6 4 8 7 6 12 20 10 6 23 20 10 8 12 10 9 10 11 8 3 6 4 3
16 17 16 18 18 18 16 16 14 13 14 13 13 13 9 12 2 1 8 25 17 5 5 8 5 6 7 7 12 8 5 8 19 17 8 6 9 14 13 7 8 8 6 6 5 4 3
16 18 17 17 18 19 18 17 16 15 15 15 14 13 12 10 9 7 13 15 8 5 4 7 6 6 8 11 6 5 6 1 7 13 3 5 6 12 14 5 10 3 4 5 3 2 2
17 18 19 17 18 19 18 18 17 17 16 18 17 14 15 7 4 14 16 4 4 4 6 9 7 8 10 8 10 9 10 10 12 19 13 3 6 5 6 6 4 5 5 1 2 1 5
17 17 20 19 18 19 18 19 18 19 19 21 19 18 17 22 12 19 11 5 6 3 5 6 8 14 3 11 5 5 3 17 10 7 10 5 7 10 5 8 8 8 8 5 6 4 4
18 19 21 20 18 18 19 20 19 20 21 21 24 12 7 20 19 25 4 3 1 3 6 10 14 8 7 8 5 5 2 9 12 13 7 5 3 3 2 4 9 5 4 5 3 1 1
19 19 18 20 19 19 19 19 20 20 22 24 5 4 3 7 29 15 3 5 3 6 12 14 7 7 5 9 6 6 0 1 4 7 2 6 5 2 2 4 4 6 7 3 2 3 4
21 20 18 19 19 18 19 18 20 19 21 12 4 1 4 26 21 2 2 2 4 14 5 7 6 5 10 12 8 6 3 7 4 5 5 5 4 1 4 4 7 3 2 5 4 4 3
21 19 17 17 17 18 17 17 19 17 19 5 2 0 15 22 2 1 2 2 9 9 2 4 3 8 6 7 6 6 6 4 5 8 7 2 5 5 2 0 3 2 7 6 4 4 2
20 18 16 15 15 17 16 15 17 15 13 5 1 2 9 5 1 2 2 4 1 3 5 4 5 6 4 6 5 2 5 1 3 5 7 6 1 4 3 4 3 4 5 4 4 3 5
20 18 16 15 14 15 15 13 14 13 10 5 1 2 1 2 3 3 6 2 4 2 2 5 3 5 4 3 3 4 3 3 2 3 5 6 3 6 8 5 5 5 5 5 6 4 4
19 17 16 15 15 13 14 12 12 12 13 5 1 3 2 4 3 3 3 6 3 3 3 5 5 6 4 4 3 5 3 4 3 3 3 3 4 3 3 4 4 4 6 9 7 5 6
19 18 15 14 14 12 12 11 9 11 11 2 1 0 2 1 2 4 3 1 3 2 2 1 4 1 1 4 3 5 6 2 3 3 2 3 2 2 1 4 4 1 2 6 3 3 3
19 17 15 14 14 11 10 8 6 8 6 2 2 1 3 3 1 2 3 5 6 6 5 2 13 7 5 6 4 5 6 7 5 5 3 3 5 3 2 2 3 4 8 7 4 4 6
19 18 14 13 12 10 9 6 5 5 5 1 2 2 3 2 0 2 4 3 5 1 7 3 3 5 6 5 4 7 9 10 11 8 3 4 4 3 3 2 2 2 3 4 6 4 4
20 18 15 14 12 10 9 6 4 2 2 1 1 3 3 2 1 3 4 5 6 6 5 4 4 2 3 4 4 6 5 6 5 6 7 4 4 3 4 3 2 1 3 6 5 1 3
21 18 15 13 12 10 9 7 4 1 1 2 5 1 2 5 2 3 4 1 4 4 3 3 2 1 4 3 3 5 5 5 3 4 5 5 5 3 2 3 6 2 1 2 4 1 2
20 18 16 14 13 11 10 7 5 3 2 2 1 2 3 3 1 1 3 4 4 4 4 2 3 2 2 2 2 3 3 4 5 8 5 2 2 4 2 2 5 4 2 2 4 4 3
19 18 17 15 15 12 10 9 6 5 3 3 3 4 2 3 2 3 2 3 3 2 4 4 4 2 3 3 3 3 3 4 3 5 6 6 6 4 3 2 6 0 2 5 4 3 5
18 20 18 16 16 14 11 9 7 5 5 3 3 4 6 4 2 3 6 7 3 2 5 1 1 3 4 4 1 3 2 1 3 3 1 3 5 5 6 4 2 2 4 4 5 6 4

GFSGBSN_925_spd_006.txt.gz
Wind_Speed
12 15 11 12 12 10 12 12 11 11 10 11 11 12 11 10 9 9 9 10 10 12 13 14 14 13 9 6 10 9 4 8 21 24 19 9 6 6 7 6 4 4 4 3 7 9 7
15 15 13 12 13 12 11 12 11 11 11 12 13 12 11 9 10 10 10 10 10 13 14 14 14 14 4 14 12 27 25 18 5 24 20 13 7 6 5 6 10 6 7 8 5 10 5
15 16 10 11 13 12 11 12 12 12 12 12 14 13 12 11 11 11 12 11 10 11 13 14 14 13 8 17 5 2 8 21 15 21 16 21 18 6 6 3 5 3 3 7 6 5 7
14 15 12 12 12 13 12 13 13 13 13 13 14 13 12 13 14 15 13 13 11 11 11 14 14 11 7 1 26 19 9 6 12 18 25 16 27 3 3 2 4 6 2 3 4 2 4
15 14 13 12 13 14 14 14 14 13 13 15 13 13 13 16 14 16 16 13 14 12 9 9 8 6 6 5 16 21 20 8 6 18 15 17 5 5 4 4 4 3 4 6 7 5 3
14 15 14 14 14 14 14 15 14 15 14 14 15 16 15 16 15 15 20 13 8 7 6 4 1 3 7 4 7 12 22 20 4 10 9 10 7 6 4 4 7 6 4 3 5 2 2
16 15 16 14 15 14 13 15 14 16 16 15 17 19 17 17 15 17 17 9 4 2 7 8 9 3 2 15 11 12 15 11 5 5 12 13 9 12 13 13 3 6 4 6 4 4 2
14 15 15 15 14 13 14 13 15 16 16 16 17 20 20 15 14 10 23 5 7 4 5 13 4 15 13 1 4 8 22 9 6 9 15 8 16 14 7 8 5 3 3 5 6 1 3
14 13 15 15 14 14 13 13 14 16 15 16 14 17 18 16 10 13 22 19 13 5 1 6 9 4 5 10 7 13 19 6 5 13 22 10 7 14 12 6 10 3 5 4 5 7 3
17 15 15 15 15 14 14 14 13 16 14 16 13 14 15 12 5 8 9 21 10 11 4 6 9 7 8 2 5 18 22 9 5 18 20 6 5 15 15 10 7 9 6 3 3 4 3
18 17 16 15 15 15 15 15 13 15 14 15 14 13 13 9 5 6 5 26 20 5 2 11 8 7 12 8 5 15 24 9 9 10 8 6 14 11 15 16 10 4 6 6 3 3 2
18 18 18 16 16 16 15 15 15 14 15 15 15 13 9 8 16 4 13 24 13 3 6 10 8 10 10 11 4 10 9 0 3 9 2 4 5 9 7 4 11 6 5 2 3 2 2
19 18 18 17 17 16 15 15 17 15 15 15 16 15 10 9 5 14 25 7 3 4 4 7 7 10 12 7 10 11 17 16 9 12 15 1 3 3 7 6 3 5 7 2 1 1 6
20 17 20 20 20 17 15 15 18 17 16 16 17 15 14 19 18 23 7 2 6 3 9 5 7 12 7 8 9 14 10 8 11 3 13 7 6 8 5 6 6 7 8 5 6 4 4
20 18 20 21 21 18 15 16 17 17 17 16 18 13 9 21 30 28 5 3 4 5 7 11 12 7 5 10 2 10 19 11 12 12 9 9 5 2 4 5 12 6 9 4 5 2 1
20 18 19 21 21 19 16 15 17 16 17 16 5 3 4 15 34 20 3 4 7 6 12 14 7 6 9 14 7 5 5 10 15 10 6 7 5 1 2 6 3 7 8 2 2 3 4
19 17 19 21 20 18 16 14 15 15 15 10 4 1 5 25 25 6 3 6 3 11 10 7 6 6 7 7 5 4 8 3 8 7 4 6 4 2 6 5 8 2 4 4 4 3 4
19 17 18 19 18 17 15 14 14 14 13 2 2 1 12 25 5 3 7 3 7 12 0 3 4 5 10 8 5 4 7 5 8 7 8 3 6 6 2 1 4 4 7 6 5 4 1
20 18 17 18 18 16 15 13 13 11 8 4 2 2 10 7 3 2 2 2 3 4 1 4 4 5 9 6 5 4 5 3 7 6 8 7 2 5 2 1 2 4 4 4 5 3 6
20 19 16 17 18 16 15 13 12 10 7 2 2 2 2 3 2 2 3 4 3 1 3 4 5 6 7 3 3 6 6 0 2 3 5 7 3 6 9 4 6 5 5 5 6 4 5
22 18 15 17 17 16 15 14 12 9 7 6 2 3 3 3 4 5 4 7 3 5 7 2 3 12 5 5 4 5 3 5 3 5 3 4 4 3 3 4 4 7 9 10 9 7 7
22 18 14 16 17 16 14 13 12 8 6 5 3 3 1 1 0 5 4 5 4 3 4 1 7 4 4 4 3 8 7 4 5 3 2 3 2 3 2 3 2 2 4 8 4 4 2
23 18 15 15 16 16 14 12 12 7 6 4 2 1 2 0 2 3 3 5 6 5 2 3 7 7 10 1 0 5 6 7 6 7 3 5 5 3 3 1 2 4 8 8 5 4 7
25 19 15 16 16 16 13 12 11 8 8 5 4 2 3 2 2 1 2 2 5 3 5 3 6 5 4 3 4 6 10 12 11 7 2 5 4 3 3 2 1 3 1 6 6 2 4
24 21 18 16 16 16 14 12 11 8 8 6 4 3 3 2 1 2 4 5 6 6 4 4 4 3 3 3 4 5 4 3 5 6 6 3 5 3 5 4 4 0 4 7 6 3 2
23 23 18 17 15 16 15 12 11 9 7 6 3 5 2 5 3 2 4 3 4 4 3 2 1 1 4 3 4 3 2 2 2 2 4 5 6 4 2 4 7 1 2 4 4 2 6
23 23 18 17 15 17 15 13 12 9 7 6 3 4 2 4 2 1 3 5 5 3 4 3 3 2 1 2 3 3 4 1 4 7 5 3 3 4 2 2 5 3 3 2 5 3 4
23 24 18 18 16 17 16 14 12 10 8 6 2 1 2 3 1 3 3 4 3 2 4 5 4 1 2 3 3 3 3 4 3 3 5 6 6 4 3 2 6 2 4 6 3 3 6
21 25 20 17 18 18 17 15 13 11 10 5 2 3 5 4 3 3 6 6 3 2 5 2 1 3 4 4 1 3 2 2 3 3 3 1 4 4 6 4 0 1 2 4 4 6 5

GFSGBSN_925_spd_009.txt.gz
Wind_Speed
13 15 15 14 12 12 10 9 9 9 8 9 10 8 9 9 11 9 8 7 9 9 10 10 11 11 10 5 9 9 2 7 2 22 19 14 8 5 10 9 5 4 3 4 7 6 6
15 14 15 11 12 12 11 9 9 9 9 10 11 9 9 9 10 11 10 9 8 8 10 11 11 13 6 15 8 21 24 19 8 15 20 18 8 6 6 6 14 7 10 12 4 8 4
14 14 15 12 11 11 11 11 11 11 11 10 11 11 10 9 11 12 10 10 9 8 9 10 12 15 8 14 5 4 7 11 18 9 17 22 17 8 8 5 4 5 2 4 5 4 6
15 17 14 12 11 11 12 13 12 12 12 11 12 11 11 10 12 13 13 11 10 9 8 8 9 12 7 4 20 23 6 8 9 16 20 22 18 9 4 5 4 8 3 9 3 3 3
15 16 14 15 13 12 12 14 16 13 13 12 12 13 13 12 15 14 14 14 11 9 7 4 6 6 5 8 14 23 22 9 7 11 18 12 10 6 5 6 4 4 5 6 7 6 5
15 15 16 15 15 13 13 13 14 14 13 13 12 15 15 14 15 16 13 14 8 7 6 8 4 3 3 5 7 9 16 21 5 8 8 7 8 6 7 7 9 7 7 4 5 2 2
15 15 15 15 16 14 12 13 14 14 13 13 13 17 18 17 18 16 14 8 6 3 8 8 7 3 1 16 8 9 11 14 5 9 10 15 10 11 15 14 4 6 6 9 2 2 1
14 14 15 12 15 14 12 13 13 13 13 14 13 15 16 16 18 15 19 5 8 5 4 13 8 16 9 3 4 4 16 11 7 6 9 9 17 15 11 10 6 5 4 4 3 1 2
17 15 15 15 14 14 13 12 13 12 13 14 13 13 15 15 13 15 14 16 15 7 1 4 16 6 5 13 5 5 13 10 9 12 18 19 7 14 13 9 9 4 5 4 4 3 1
19 17 17 17 15 14 14 13 12 12 13 14 12 12 13 12 7 5 4 18 19 10 1 6 11 7 7 5 5 12 22 12 6 15 17 11 11 16 15 15 10 10 4 3 3 4 2
20 18 19 17 15 15 14 14 13 11 12 13 13 13 11 9 2 4 6 26 21 8 4 10 9 3 10 10 4 7 25 10 9 11 8 6 11 21 17 14 10 4 6 3 1 3 1
22 21 21 18 16 15 15 15 14 11 11 12 13 12 9 9 9 9 8 29 14 4 6 9 8 9 13 5 3 13 14 10 3 7 13 1 4 12 8 9 9 9 7 5 4 2 3
23 22 21 19 17 15 16 16 14 12 12 11 12 12 13 12 4 13 27 13 3 4 3 6 5 9 14 8 7 11 17 16 5 10 19 3 5 4 5 10 2 4 6 2 1 4 5
24 23 21 19 17 16 16 15 14 12 13 12 13 13 15 19 11 31 16 2 7 4 6 3 5 11 9 10 7 11 16 11 11 4 12 5 5 8 9 6 7 6 6 4 5 4 2
25 23 21 20 17 17 16 15 13 12 13 13 11 13 14 22 21 28 4 4 4 4 7 10 9 11 5 9 6 9 11 11 9 7 9 10 3 2 6 5 10 4 5 3 4 2 1
24 23 21 18 16 16 16 15 12 11 12 10 5 3 5 13 32 19 2 4 4 6 11 13 5 6 8 12 2 10 11 9 11 14 4 6 5 2 3 6 4 7 8 3 1 4 3
24 24 20 16 16 15 14 13 9 9 11 12 5 2 4 23 28 4 3 5 4 6 13 10 5 6 8 7 5 7 18 10 11 18 4 6 4 0 6 5 9 4 2 2 3 2 3
26 21 20 16 14 14 13 10 8 8 7 1 2 2 6 36 5 3 3 4 8 16 11 9 7 5 8 8 8 7 13 5 13 10 8 7 5 4 3 0 3 5 8 9 4 3 1
20 23 21 17 14 13 12 10 8 7 5 2 2 2 11 6 3 7 6 8 7 6 5 6 4 4 7 8 7 5 9 7 14 13 8 6 1 5 4 1 4 4 4 5 4 3 6
24 22 21 17 15 13 11 10 7 7 6 3 1 3 2 4 2 3 3 4 5 3 1 1 3 5 8 9 3 5 5 4 8 9 2 4 3 5 7 4 6 5 4 4 7 4 5
27 22 20 18 14 12 12 10 8 7 6 4 3 4 4 5 6 8 3 6 3 5 3 3 4 8 8 4 4 5 4 4 3 8 3 2 3 3 2 2 6 7 9 11 9 10 9
29 24 21 19 14 12 12 11 9 8 7 5 2 2 0 1 2 8 5 4 12 2 4 5 9 15 5 7 6 10 9 6 6 1 4 3 3 3 2 2 4 4 6 13 10 4 6
26 28 19 20 15 13 11 12 11 10 10 4 3 3 2 2 2 4 5 5 8 7 2 2 10 6 4 2 4 5 5 7 6 7 4 3 4 2 3 1 4 3 10 10 7 5 12
27 28 16 22 17 14 11 12 13 13 14 5 4 0 2 3 3 4 5 4 8 6 6 3 4 5 1 5 5 10 13 13 10 7 3 5 5 2 3 2 1 4 1 6 7 4 5
26 27 22 22 15 14 13 13 14 13 13 11 5 3 2 3 1 2 5 6 5 3 5 3 4 3 3 2 4 6 3 4 4 5 4 4 5 3 4 4 4 1 4 6 8 6 6
27 28 26 21 16 15 14 15 15 13 13 10 9 9 1 2 4 3 4 4 4 3 3 3 4 3 6 4 3 4 4 5 5 3 1 4 4 4 1 4 6 1 2 4 4 4 8
29 25 26 22 18 16 15 16 15 14 12 10 5 10 2 2 2 2 2 5 5 4 4 4 4 3 4 2 2 2 3 2 5 8 6 4 3 6 4 2 6 4 4 4 4 3 5
28 30 28 21 20 17 16 17 16 15 13 11 3 8 4 2 3 2 2 3 3 3 5 6 4 1 2 2 1 2 3 4 3 3 5 6 6 4 3 2 7 5 4 7 3 4 6
27 28 29 21 20 17 18 18 17 15 13 11 4 7 6 3 1 2 6 4 2 1 5 2 3 4 5 4 2 3 2 1 4 3 1 2 4 4 6 4 1 2 2 3 4 6 4

GFSGBSN_925_spd_012.txt.gz
Wind_Speed
16 15 13 14 15 13 14 13 12 13 12 10 11 8 6 5 5 5 4 4 5 7 8 9 9 9 10 7 11 6 5 8 3 14 21 16 15 15 18 19 17 19 17 13 13 12 12
16 17 16 14 15 14 13 14 13 13 13 11 12 10 7 6 7 5 5 7 7 7 9 11 10 12 9 13 9 13 15 11 2 9 19 20 10 18 13 20 23 12 18 16 14 14 12
18 16 17 15 14 12 12 14 14 14 14 13 14 12 9 7 7 8 6 7 8 8 8 10 9 13 10 13 5 5 7 13 14 8 18 23 27 11 13 17 16 23 12 13 15 16 15
18 18 17 16 14 13 13 13 16 15 15 14 15 14 11 9 8 8 8 9 10 10 7 7 7 10 7 7 21 15 7 4 10 17 15 19 22 12 6 10 12 18 17 17 18 15 12
20 19 17 17 14 14 13 13 15 17 16 14 16 16 14 11 10 11 10 11 13 12 9 7 7 7 7 4 17 19 23 14 3 12 16 9 14 6 11 11 13 16 15 22 18 13 13
19 17 20 19 17 14 14 14 15 15 17 15 16 17 16 15 12 12 11 7 14 10 9 8 4 5 9 8 9 15 15 18 12 10 10 12 8 8 9 11 18 18 16 12 17 9 11
20 18 20 20 17 16 16 13 14 13 16 16 16 17 16 16 16 14 9 5 6 4 11 9 9 6 2 13 6 10 10 14 12 7 12 20 11 20 24 21 16 19 18 15 13 6 6
21 20 17 20 17 16 15 13 12 13 15 17 17 17 15 15 15 15 13 5 6 3 5 19 7 20 3 7 6 11 12 13 14 16 18 17 21 24 17 22 20 17 15 15 10 5 6
22 22 18 20 20 19 15 14 13 12 14 15 16 15 14 13 12 14 18 11 14 11 2 8 21 13 7 14 6 10 17 19 16 18 16 21 20 26 13 25 21 15 15 14 9 4 7
23 23 21 19 21 20 18 15 15 13 12 14 15 15 13 10 9 8 5 15 20 15 2 6 10 10 14 7 8 22 23 15 11 19 14 20 17 20 18 19 22 16 11 7 7 2 5
25 22 23 21 20 20 18 16 15 15 12 12 13 15 14 13 3 3 10 20 20 6 5 11 9 7 10 16 4 16 23 17 16 8 6 13 26 16 19 17 23 15 11 10 4 6 4
26 25 23 23 19 19 18 16 17 16 13 12 12 15 13 11 11 9 13 27 10 4 7 8 8 11 13 19 12 7 13 13 4 11 16 12 3 17 15 16 20 13 12 7 3 1 7
29 25 25 25 21 19 17 16 16 16 14 12 12 14 16 12 5 16 32 9 3 6 4 6 5 9 14 10 16 9 18 22 6 6 7 13 12 9 14 14 4 15 15 3 5 4 6
26 28 25 25 23 19 17 16 16 15 14 12 13 14 17 22 16 14 16 3 8 5 5 4 7 14 11 12 13 13 16 17 14 14 12 7 6 14 13 17 7 12 16 4 5 6 5
32 27 25 24 23 19 16 15 15 14 13 11 11 7 8 18 18 26 6 5 4 4 6 9 14 12 10 14 5 16 17 21 5 14 7 5 1 3 13 6 15 5 6 2 2 1 3
36 25 27 24 23 19 15 14 14 14 9 9 6 4 10 16 26 15 2 5 4 6 6 15 9 12 14 15 5 14 17 16 10 15 9 12 3 5 6 8 5 8 12 5 3 5 5
29 29 24 24 22 18 14 13 12 12 7 8 5 2 3 20 23 4 4 5 4 10 13 16 8 11 11 14 8 15 17 7 19 13 14 7 6 2 12 6 14 10 7 4 3 3 3
25 30 19 21 22 18 12 12 11 9 7 9 5 3 22 35 4 3 3 5 4 6 16 16 6 8 13 14 8 4 15 6 22 13 10 7 3 8 5 3 7 12 10 11 6 5 1
21 28 28 20 19 17 12 12 11 11 10 8 3 2 18 20 4 5 6 7 8 12 17 10 11 10 11 12 9 14 13 17 21 17 12 10 6 8 5 3 2 9 11 16 10 2 11
22 25 30 14 19 18 14 13 13 13 12 8 2 3 4 3 3 4 8 10 8 16 16 15 9 9 15 12 10 14 11 10 19 20 11 5 5 12 11 6 11 14 20 19 18 11 9
20 21 27 23 18 19 15 14 14 14 13 10 4 4 4 5 8 13 7 3 11 9 7 4 6 11 15 8 11 9 8 7 14 22 10 4 3 6 3 2 15 18 19 20 20 21 13
28 22 24 26 15 20 17 16 16 15 16 6 3 3 3 3 9 12 14 9 11 6 4 4 5 14 16 11 11 13 9 12 11 17 18 5 4 3 3 3 10 14 20 22 23 21 23
30 23 24 24 23 19 17 17 17 17 20 4 4 2 3 2 4 4 5 8 14 7 6 7 11 14 14 8 11 15 13 11 8 18 20 13 4 3 3 3 5 8 19 20 19 21 22
31 24 22 25 27 15 18 18 18 20 22 8 4 2 3 4 5 5 5 7 8 14 3 2 7 11 4 6 10 11 7 6 14 6 11 9 5 1 3 4 5 1 3 17 22 18 20
30 26 27 23 28 16 19 19 18 20 22 17 6 3 3 4 3 2 7 4 4 4 1 1 3 2 9 3 9 9 4 3 3 7 2 3 4 3 3 8 6 3 5 7 12 15 16
29 28 27 27 30 18 19 19 17 18 20 22 12 9 2 3 1 1 3 9 4 3 2 2 2 3 2 1 3 3 4 5 6 2 3 3 6 4 4 3 4 3 3 6 6 8 12
30 31 27 25 30 28 22 18 17 19 19 20 6 16 2 2 1 2 2 7 4 3 3 2 2 1 3 2 3 2 2 1 10 11 9 4 4 11 8 2 7 2 6 5 6 1 9
30 32 28 24 27 26 23 17 18 19 18 19 4 16 4 2 1 1 1 3 4 3 4 4 4 1 1 1 3 2 3 4 3 6 10 10 8 5 6 5 9 6 5 6 4 8 12
32 32 30 25 24 24 23 18 19 19 18 19 4 13 12 2 2 0 2 1 1 1 4 1 0 5 4 3 2 4 3 2 6 5 1 6 3 3 7 4 2 0 2 2 8 13 9

GFSGBSN_925_spd_015.txt.gz
Wind_Speed
19 20 17 17 15 17 16 15 15 13 13 12 12 12 10 8 9 9 8 6 5 5 4 6 7 8 8 8 14 6 3 4 2 14 20 15 17 14 18 17 21 23 23 20 20 17 14
18 20 18 18 17 16 16 16 18 15 14 13 13 12 11 10 10 11 9 8 6 4 5 6 9 10 11 15 14 20 12 9 4 8 17 19 13 16 15 21 20 12 24 22 18 18 18
21 21 20 19 18 19 16 15 16 17 15 14 15 13 13 11 11 12 11 9 7 4 3 6 8 10 14 15 7 10 16 18 16 10 11 19 21 14 10 18 24 21 21 19 24 19 21
23 21 22 20 20 18 18 17 16 18 16 15 15 15 14 13 12 12 11 10 8 6 5 5 6 10 7 14 24 14 7 7 12 16 14 12 20 18 7 14 20 24 18 18 18 20 20
24 24 24 21 19 19 17 18 17 16 19 18 16 15 15 15 12 12 12 13 11 9 6 5 5 11 10 7 20 23 23 14 7 9 18 14 14 11 8 10 14 15 18 25 21 23 20
24 26 25 22 21 20 18 18 18 17 18 20 19 16 17 15 14 13 12 11 8 9 8 6 9 5 14 10 13 16 19 20 15 10 12 16 9 11 13 11 15 21 25 19 23 20 17
25 26 25 24 24 21 19 18 18 18 17 17 18 16 16 15 14 16 12 2 4 1 11 10 9 12 3 19 5 8 16 14 16 15 17 21 12 18 27 25 23 22 20 22 21 20 17
26 27 26 25 24 22 20 17 17 17 17 16 18 16 16 14 14 16 15 4 7 1 5 21 18 16 15 5 7 12 16 14 18 20 19 18 19 26 28 22 22 23 22 22 14 15 11
29 28 28 26 26 24 23 20 17 16 17 16 17 16 15 13 10 12 17 16 12 7 4 7 20 21 18 9 9 12 18 19 21 21 21 24 22 28 28 24 22 26 24 19 16 13 11
31 30 29 27 26 25 24 22 19 18 17 16 16 16 14 10 5 15 11 18 17 12 4 6 7 6 14 8 9 27 25 16 16 22 22 18 26 19 27 27 24 19 17 16 15 8 8
27 29 30 27 28 25 21 22 20 18 17 16 15 17 15 19 1 4 6 13 18 6 6 10 8 9 10 11 5 17 30 20 20 20 5 11 9 22 26 25 27 12 22 16 12 8 4
29 31 26 30 26 25 22 20 19 17 17 16 17 17 17 14 15 7 12 21 9 2 7 7 6 11 8 17 15 2 22 17 14 19 15 19 12 21 22 23 21 9 19 13 7 3 7
32 35 32 27 29 26 22 20 19 16 16 17 18 19 23 16 10 19 23 6 2 6 3 5 4 7 12 10 18 10 17 19 11 6 11 9 14 18 13 14 19 13 17 6 5 4 6
26 32 36 27 26 28 24 21 19 17 15 17 18 18 25 23 12 24 15 2 9 4 5 3 4 8 7 11 15 20 9 16 21 9 4 9 9 14 17 7 10 12 17 8 7 9 12
27 29 28 32 27 28 24 21 19 17 14 17 15 18 14 26 17 29 4 5 5 4 6 7 8 6 7 15 6 15 16 17 18 19 5 8 8 12 13 10 14 7 10 2 3 7 8
25 22 25 27 33 26 24 21 18 16 14 16 8 7 6 21 29 17 5 9 5 5 4 7 12 13 13 15 9 13 11 15 17 17 14 4 2 6 3 11 6 8 8 7 3 7 5
26 27 24 25 31 22 20 21 18 15 12 15 8 2 4 21 26 3 6 7 7 8 9 9 16 12 14 11 15 11 9 7 22 20 15 2 2 3 5 5 13 6 3 5 3 2 3
30 28 22 25 32 17 20 21 18 14 14 20 4 3 18 29 5 2 5 5 4 7 16 11 13 11 14 17 13 16 12 16 17 14 10 11 6 4 5 6 13 10 9 13 6 5 5
32 32 22 20 27 25 20 22 18 17 22 10 2 3 15 17 4 5 4 7 7 2 6 9 11 13 12 13 10 12 10 15 12 19 8 9 2 3 6 7 3 5 11 16 13 6 11
33 29 22 17 24 27 17 22 19 20 21 12 2 4 3 3 3 5 6 7 7 12 15 16 9 14 14 13 15 16 8 10 12 20 16 6 8 7 6 7 12 9 15 16 15 10 11
34 27 28 20 22 27 21 23 20 21 22 14 3 5 6 5 7 13 8 5 5 6 11 17 7 18 16 13 16 7 15 12 13 17 14 5 9 4 3 3 16 17 19 20 19 18 12
36 31 30 22 23 26 29 23 22 22 22 9 2 4 5 3 11 14 14 8 13 12 13 7 12 19 18 10 13 10 14 11 9 15 17 12 4 2 3 2 6 13 18 20 22 23 21
37 31 29 25 26 26 28 23 23 24 25 3 4 3 3 5 7 7 4 11 12 12 8 6 8 9 15 13 12 3 13 11 3 15 18 7 4 3 3 5 5 9 19 19 19 21 20
37 32 27 27 26 28 26 13 24 26 30 6 5 2 4 9 11 9 3 9 13 10 2 8 7 3 8 5 4 8 10 10 7 13 16 13 9 3 2 5 6 1 2 17 21 19 20
35 33 29 27 26 27 28 13 24 26 27 16 7 2 3 7 10 5 6 5 3 3 8 1 6 4 6 7 8 5 2 3 6 9 16 8 7 4 3 6 9 12 3 5 16 19 19
35 33 29 27 29 25 26 25 26 25 25 23 14 12 3 3 2 2 9 7 3 2 3 1 2 2 2 2 3 6 3 4 5 4 5 2 8 3 1 3 4 5 2 0 6 9 5
35 35 32 29 28 25 23 26 26 25 23 22 8 19 5 4 3 3 4 4 3 3 3 4 2 4 2 4 2 3 3 5 7 9 6 2 2 4 2 4 7 5 5 4 5 3 3
34 34 31 30 27 26 24 25 21 24 24 25 6 15 8 3 2 2 2 3 2 2 3 5 3 2 2 2 2 2 2 4 4 10 11 9 7 4 6 3 7 7 5 4 3 5 6
33 33 31 30 28 24 23 25 21 24 24 23 4 13 12 3 3 2 2 1 1 2 3 1 1 4 3 3 2 2 1 2 5 6 3 8 8 8 7 4 3 2 3 2 5 9 9

GFSGBSN_925_spd_018.txt.gz
Wind_Speed
23 23 21 22 20 17 15 14 15 16 14 12 12 11 9 7 8 8 7 6 6 7 6 6 5 6 5 7 13 3 4 7 2 12 18 14 13 11 14 7 14 21 17 20 16 17 17
23 24 22 22 23 20 18 14 13 15 17 14 13 12 11 9 8 8 7 6 6 8 8 8 7 7 6 14 12 16 9 7 4 3 14 18 13 12 15 15 17 8 19 19 19 18 15
24 24 23 22 25 23 20 18 15 14 16 16 14 14 13 11 9 8 6 6 6 8 9 8 8 8 11 15 6 8 12 18 15 15 10 13 17 13 7 15 13 16 19 15 22 19 16
25 24 24 24 26 25 22 19 17 15 14 16 15 15 15 14 11 10 7 6 7 9 9 7 7 9 7 12 24 20 8 11 15 16 17 16 10 10 14 9 11 7 13 16 19 12 16
26 26 27 26 27 26 23 20 19 17 15 16 16 16 14 15 13 11 9 8 9 10 10 7 6 9 8 5 21 19 22 14 10 9 13 15 9 3 8 7 7 10 12 23 14 17 14
26 27 28 28 27 26 22 22 20 18 17 16 15 18 15 16 14 11 9 8 9 7 9 7 12 4 9 11 10 18 21 24 15 7 6 10 6 5 7 10 16 13 14 15 16 15 17
32 30 28 28 30 26 24 24 22 20 18 17 15 16 16 14 14 13 9 3 0 1 9 10 10 10 2 7 3 11 16 17 15 14 12 12 10 16 22 22 19 16 18 15 17 15 21
32 32 29 29 30 27 25 24 22 20 18 16 14 13 14 13 14 12 11 3 4 3 7 17 18 18 25 12 9 12 14 13 15 17 15 13 21 25 14 15 18 20 22 21 11 20 19
34 31 30 30 31 29 27 25 24 21 19 17 14 13 14 12 10 10 14 14 9 7 5 7 20 19 16 12 14 13 16 17 16 17 19 18 19 17 17 19 20 24 20 17 15 20 7
33 29 26 25 27 29 28 26 24 22 19 17 15 14 13 12 5 12 12 14 17 9 5 5 6 6 12 7 6 18 18 17 11 19 17 15 19 19 17 24 20 23 23 22 20 16 9
33 33 32 28 20 24 29 27 24 22 20 17 17 16 17 21 7 7 6 6 9 4 5 8 6 3 4 9 4 10 24 18 18 16 11 9 10 14 18 22 16 20 14 23 24 15 6
35 33 27 28 23 25 27 28 24 21 20 18 18 18 19 18 15 4 11 15 6 2 7 5 5 7 7 9 6 6 18 19 12 16 15 12 7 12 20 19 22 17 15 21 23 6 5
36 34 29 28 27 27 32 27 23 20 19 19 19 20 25 17 7 19 19 5 2 6 2 4 4 7 12 8 8 7 13 20 9 5 9 14 18 10 14 11 16 25 16 7 6 3 4
36 35 30 28 20 27 30 21 25 21 19 18 20 21 27 23 12 29 14 3 8 6 5 4 3 6 8 7 7 12 6 14 18 12 1 8 10 15 19 17 10 24 8 4 5 8 5
37 36 32 27 20 27 30 22 22 22 19 18 18 23 13 26 25 29 5 5 6 4 5 6 6 6 7 10 9 15 18 9 10 20 8 3 8 6 12 10 12 7 12 20 8 7 6
38 36 35 26 19 25 31 18 19 21 19 16 14 10 7 27 32 18 3 8 6 7 5 3 9 11 10 12 8 11 10 10 18 16 14 3 7 2 9 15 14 8 7 9 4 7 7
36 38 36 33 20 21 24 16 19 21 19 18 10 3 8 33 31 4 5 6 6 9 7 8 7 6 13 9 11 10 7 12 14 16 14 6 4 4 6 9 12 7 3 11 4 2 4
37 41 36 35 15 22 24 27 19 22 19 23 5 2 18 32 6 2 4 4 5 4 15 12 7 14 14 14 11 11 13 11 15 13 11 9 3 4 1 6 14 11 4 5 1 2 1
37 40 37 30 25 17 20 29 16 23 26 13 5 3 19 15 5 4 2 4 6 5 10 8 8 14 12 8 7 13 12 9 15 13 15 11 6 2 4 4 4 9 9 4 8 3 3
36 38 41 34 27 19 20 28 16 27 30 17 3 4 2 3 1 3 6 5 6 12 16 8 10 16 14 8 10 5 7 4 10 16 13 10 4 2 2 5 8 7 8 6 8 2 2
35 37 41 37 32 26 26 31 30 28 32 14 2 3 5 4 6 8 10 4 5 6 13 14 6 16 12 9 10 6 11 3 9 10 11 3 3 10 20 13 17 16 16 15 10 8 1
34 35 38 36 27 27 27 27 23 28 33 7 4 3 3 3 6 15 15 7 9 6 6 6 10 8 15 10 8 11 12 10 6 8 12 10 5 15 9 8 12 11 13 14 11 7 8
33 33 36 37 31 30 26 29 30 19 30 3 3 2 1 2 8 6 6 9 9 12 10 17 18 12 10 13 9 4 11 12 10 13 14 5 5 5 3 3 5 1 12 13 11 10 8
32 31 34 36 31 28 29 29 29 15 31 6 4 3 3 3 6 7 11 9 9 16 10 7 7 7 1 6 9 9 7 8 10 1 12 8 3 3 1 1 1 2 2 8 11 7 10
30 30 33 36 31 29 28 26 24 20 28 11 7 4 2 2 5 11 6 3 4 9 7 3 2 1 6 7 2 3 4 3 5 4 2 7 4 3 1 2 5 1 2 1 5 10 7
30 29 33 35 32 30 27 25 25 27 28 19 10 10 1 1 2 4 1 3 5 2 1 3 2 1 3 3 2 4 3 2 2 4 6 2 5 1 3 1 2 2 2 6 2 2 7
29 28 32 35 31 29 27 24 25 25 25 19 6 17 3 2 3 4 2 1 4 1 2 3 4 2 3 2 2 3 3 6 5 7 4 3 2 4 3 2 5 2 1 5 4 3 7
28 28 30 34 30 28 26 23 23 20 24 23 5 15 7 2 2 2 2 1 1 2 2 4 4 3 2 3 1 3 3 5 5 7 6 4 6 4 3 1 6 4 3 2 2 3 4
27 27 30 32 30 28 25 23 23 19 20 22 3 15 21 2 2 2 3 3 2 3 3 1 1 3 3 3 3 1 2 1 3 4 7 6 5 6 7 6 2 4 3 0 2 4 6

GFSGBSN_925_spd_021.txt.gz
Wind_Speed
21 20 22 20 21 21 22 17 15 14 15 12 10 10 9 8 7 5 5 4 3 3 1 3 3 2 4 5 7 3 6 7 5 11 12 8 5 3 4 5 6 14 14 14 16 18 19
23 22 22 22 21 21 22 20 17 15 13 14 13 11 11 9 8 7 5 5 4 4 3 3 3 3 2 12 9 16 7 4 4 9 12 12 7 7 6 6 11 9 11 16 19 17 12
28 24 23 23 24 22 23 23 19 17 15 13 15 13 12 11 9 7 5 6 4 4 4 4 3 4 5 12 7 3 13 20 12 8 3 10 17 12 5 5 7 7 13 15 17 14 15
29 27 25 23 24 26 25 24 21 19 17 14 14 15 13 13 11 8 7 5 5 6 5 4 3 3 6 8 21 23 7 7 8 8 11 16 13 4 6 3 6 5 6 14 7 12 9
31 30 30 26 25 26 27 26 23 20 18 17 15 15 14 12 12 10 7 6 6 7 7 5 4 4 7 6 16 21 18 9 8 11 14 13 8 4 2 5 4 4 8 7 10 7 7
31 31 32 33 26 28 28 26 23 20 19 19 17 16 16 13 13 11 9 6 6 6 6 6 7 3 6 5 6 14 14 18 6 3 6 5 4 4 0 5 12 13 7 6 7 6 10
32 31 32 34 31 29 28 28 24 22 21 20 19 17 17 16 12 11 10 2 2 1 5 8 8 5 3 1 8 10 17 11 8 5 7 6 7 9 12 14 8 5 8 11 6 9 10
32 32 32 33 28 24 28 29 25 24 23 21 19 18 16 18 13 12 12 3 2 3 5 16 16 16 19 6 4 6 14 8 10 14 7 6 18 12 8 10 10 13 14 20 15 14 11
33 33 33 32 33 34 33 28 26 25 24 21 19 18 17 16 13 13 16 11 3 2 5 6 15 11 14 12 13 8 13 11 11 11 13 17 3 20 14 12 13 15 16 16 15 14 16
36 36 33 32 31 29 27 17 25 27 24 21 19 18 19 16 10 13 8 15 15 3 4 3 5 4 5 4 5 19 22 12 9 17 15 14 20 13 15 18 12 16 13 15 17 11 10
36 36 34 34 32 30 26 21 16 24 26 22 20 20 24 25 9 11 8 13 14 5 5 7 5 2 1 7 7 7 18 12 17 14 10 8 10 19 20 20 12 18 5 11 12 14 14
36 37 35 34 35 28 25 27 23 21 26 23 23 24 27 24 7 12 17 19 8 3 8 6 5 4 3 7 3 1 4 10 2 11 14 15 2 5 14 14 11 2 1 12 8 9 12
37 38 35 34 35 30 23 20 20 23 24 23 26 28 32 23 9 23 26 5 3 4 2 5 4 6 8 6 7 7 4 11 6 7 6 6 15 2 3 3 2 5 4 3 6 6 13
36 37 35 38 37 28 19 17 19 19 21 23 27 30 34 21 20 30 15 2 6 4 4 4 3 7 6 5 6 8 3 8 16 8 2 4 5 13 12 19 9 13 15 7 7 8 8
36 37 35 39 37 38 23 19 20 21 20 21 26 29 19 22 31 32 6 4 7 6 4 5 3 4 5 8 7 9 11 4 5 17 7 5 6 2 8 13 20 10 13 25 6 5 5
37 37 37 36 40 41 14 19 23 14 24 23 16 13 10 35 35 21 4 5 4 4 6 4 7 9 6 7 9 9 8 7 7 15 14 2 7 7 14 13 16 13 15 10 5 5 5
36 38 39 38 46 32 13 17 25 14 23 28 10 4 17 42 28 5 4 5 5 6 8 8 6 5 7 4 9 4 5 6 13 16 19 8 6 4 1 7 15 9 4 8 3 7 4
36 36 38 38 44 35 16 17 20 13 21 27 4 5 23 37 5 3 4 5 4 7 11 9 5 7 5 8 7 5 10 9 10 12 16 10 3 5 9 8 12 10 12 13 7 10 5
35 35 37 37 40 34 27 20 23 18 17 14 5 3 24 19 5 4 2 3 6 7 8 8 9 11 12 6 7 9 6 9 9 9 15 9 4 3 4 3 9 10 12 8 9 13 3
34 34 36 38 38 33 27 25 30 31 17 14 3 4 3 4 2 6 5 4 4 11 14 13 7 12 10 7 13 4 9 7 18 15 16 12 5 7 4 3 6 7 14 14 13 3 1
33 34 34 35 37 39 33 29 32 27 30 9 2 3 3 5 5 6 10 7 5 4 9 9 4 9 9 5 12 9 9 7 12 17 13 7 5 8 13 16 8 8 12 19 15 6 4
32 33 33 33 35 39 30 29 29 24 28 2 4 3 2 5 7 12 9 8 9 6 5 6 9 12 13 8 6 6 7 5 6 11 5 9 5 10 10 7 14 9 14 9 6 4 2
30 32 32 32 34 36 31 28 25 26 6 3 3 2 2 5 7 7 6 12 13 8 9 16 14 9 7 8 11 3 2 7 3 7 9 8 4 5 3 5 7 2 10 5 4 2 5
27 30 31 30 33 35 32 31 27 26 12 4 5 4 3 3 3 5 4 13 15 17 11 8 14 12 3 4 3 5 5 4 6 5 4 5 1 2 3 3 1 5 3 8 13 5 7
27 27 30 29 33 37 34 28 23 26 23 10 6 4 3 3 6 5 9 6 4 5 11 14 4 2 3 3 2 3 1 2 3 4 8 5 4 1 2 3 5 4 4 2 7 7 3
27 27 28 29 31 32 30 28 24 22 22 4 13 6 2 2 4 3 3 4 1 3 1 2 2 3 3 1 2 3 3 3 2 2 4 6 2 2 2 1 2 3 4 2 0 2 4
26 26 27 28 31 32 30 27 24 21 22 5 7 10 4 2 3 2 3 2 4 2 2 0 2 2 0 2 1 3 2 4 4 5 3 4 2 5 2 1 7 4 4 4 3 3 5
25 25 26 27 30 33 31 30 26 23 22 7 6 16 6 2 2 2 2 3 1 2 3 2 3 2 3 4 4 2 3 6 4 5 5 6 5 3 3 1 6 2 2 2 3 3 4
23 24 24 26 29 31 29 28 25 22 22 5 4 16 15 1 2 2 4 6 5 3 3 3 3 3 4 3 2 2 3 3 6 5 4 4 6 5 7 6 1 3 3 2 3 4 3

GFSGBSN_925_spd_024.txt.gz
Wind_Speed
30 30 21 22 20 21 20 20 18 16 15 16 14 13 12 11 9 7 5 3 2 1 1 1 1 2 5 3 6 5 6 5 4 15 17 6 4 4 5 4 4 5 7 9 9 10 14
28 28 28 27 23 21 21 19 20 19 17 16 16 15 14 13 11 9 6 4 3 2 2 2 3 4 3 5 8 15 7 2 2 10 11 11 6 6 4 6 6 5 6 8 9 11 8
26 28 29 29 27 22 22 22 21 21 19 19 17 16 16 15 13 10 7 4 3 3 3 2 2 5 3 11 6 6 4 12 11 7 4 17 17 1 1 4 2 4 7 7 6 4 5
26 26 28 28 30 30 23 23 24 22 22 20 20 18 17 15 15 12 9 7 6 5 5 3 3 3 6 7 9 22 12 9 7 12 11 9 7 4 4 4 6 4 4 4 3 6 5
28 28 28 28 29 32 30 26 26 26 23 23 20 20 17 16 16 15 11 9 6 5 6 5 4 3 7 6 6 16 12 7 4 7 11 14 3 3 3 3 4 3 4 6 4 9 5
30 30 31 30 30 29 28 27 27 28 26 24 23 22 19 18 16 15 12 9 4 4 5 6 3 1 5 4 6 4 14 11 4 2 2 3 2 2 1 5 13 12 6 6 5 4 8
29 31 31 31 31 31 31 30 30 29 27 25 23 21 20 19 17 16 16 5 2 1 6 6 6 4 2 2 7 4 14 5 2 1 4 2 4 10 15 9 6 7 5 7 3 8 7
31 31 31 31 31 31 30 31 31 27 28 27 24 22 22 21 19 18 17 4 4 3 3 13 13 13 12 6 3 3 14 6 6 9 4 4 11 10 7 8 9 11 13 15 8 9 9
31 31 31 32 32 31 29 29 30 29 28 28 25 22 23 21 19 19 19 12 7 1 2 4 5 6 7 9 9 6 13 6 6 12 12 12 6 14 12 12 11 14 17 11 12 11 15
34 31 33 34 33 30 30 27 28 30 20 24 24 23 24 22 16 15 12 18 9 2 2 4 2 2 4 6 5 18 19 8 7 15 13 12 15 9 16 14 11 15 11 11 9 7 5
34 34 33 35 34 33 28 30 28 25 24 23 22 23 28 33 15 14 9 19 16 2 3 4 4 1 3 6 2 2 17 12 12 10 7 8 8 19 20 15 13 9 5 5 3 8 8
34 33 33 35 34 33 28 31 29 26 24 19 21 25 34 25 13 13 15 22 12 4 6 6 4 5 5 4 2 2 4 8 1 14 15 8 1 7 12 14 13 3 4 3 2 1 9
36 34 34 35 35 32 34 32 39 25 22 23 20 25 38 31 10 26 30 9 3 4 3 6 4 5 3 6 7 7 6 8 5 7 8 6 15 4 3 6 8 11 6 3 4 6 12
36 36 36 37 36 38 35 47 34 18 19 24 25 28 41 29 27 38 16 2 4 4 4 3 4 8 7 7 6 9 6 8 13 6 1 6 4 16 9 15 5 13 15 4 7 4 6
35 37 35 36 37 38 41 49 18 14 15 16 32 30 27 26 39 34 8 4 7 5 6 10 5 5 6 8 6 10 9 9 9 16 8 5 5 3 6 7 12 6 10 22 5 4 4
35 35 35 35 37 39 44 36 13 15 18 20 17 17 17 40 43 17 5 5 5 4 8 5 6 9 6 6 9 8 8 5 9 16 12 5 2 6 5 4 9 14 7 5 5 6 10
33 34 35 35 38 39 46 31 17 15 21 19 22 5 25 42 33 7 4 6 4 6 6 6 6 6 7 6 8 7 6 4 13 12 20 5 4 2 5 10 14 9 11 10 6 6 5
33 33 34 35 37 38 42 34 28 25 26 13 2 4 33 42 5 3 3 6 5 6 3 3 3 8 7 10 6 5 8 7 10 9 12 10 4 8 20 11 11 15 17 19 7 13 4
31 33 33 34 37 37 39 28 26 27 26 5 3 3 29 31 5 5 4 5 5 7 8 7 10 11 12 6 5 10 8 8 8 13 9 8 5 4 7 7 11 10 17 12 12 2 18
29 31 31 32 34 37 37 34 32 30 29 6 3 4 3 3 3 7 6 4 6 5 6 8 6 11 7 7 10 4 6 4 12 8 17 13 4 7 6 4 5 10 21 20 12 7 14
28 29 30 31 32 35 37 35 33 29 32 6 2 3 3 8 6 9 13 9 6 7 8 8 4 17 9 7 9 9 12 5 4 13 12 9 5 9 17 23 17 15 19 22 15 12 9
27 27 28 30 30 32 36 33 32 34 33 3 2 3 2 4 9 8 11 9 9 5 7 5 9 13 14 7 7 2 7 6 4 12 11 6 4 3 13 21 18 14 17 21 18 15 16
27 26 27 28 29 31 36 37 35 27 25 0 3 2 4 8 8 7 5 8 10 8 9 12 14 12 11 20 15 15 8 5 8 11 12 5 3 3 6 9 11 8 14 21 15 16 21
29 25 26 26 26 28 32 30 31 30 24 12 6 4 2 4 7 8 8 11 13 14 9 5 11 10 4 0 4 5 4 4 8 12 9 5 9 5 2 1 2 3 3 16 20 10 6
28 25 26 26 26 28 32 32 30 28 24 22 6 2 2 2 5 5 5 5 8 11 11 12 14 8 2 3 3 0 1 3 2 3 9 8 1 3 2 3 5 4 5 1 4 3 1
27 25 23 25 25 27 30 30 28 28 23 22 8 2 3 3 6 6 3 3 2 2 3 3 1 2 3 1 2 4 4 4 3 3 6 7 4 1 4 2 2 3 4 2 1 2 2
26 24 22 24 24 25 28 29 27 27 23 21 6 8 3 2 2 4 3 3 3 2 2 2 2 3 4 5 3 3 2 2 4 4 4 3 2 5 2 2 7 5 3 1 2 4 2
26 23 20 22 23 25 27 29 27 26 22 17 5 10 4 1 1 3 4 4 2 3 3 2 2 2 3 3 3 3 3 4 2 3 4 5 4 3 2 1 5 2 4 1 3 3 3
24 22 20 22 22 23 26 28 27 25 21 17 2 13 10 1 1 2 4 7 4 5 3 3 2 3 4 3 3 2 2 2 4 3 2 4 6 4 6 5 2 2 2 1 2 3 3

GFSGBSN_925_spd_027.txt.gz
Wind_Speed
25 25 27 29 30 28 21 21 23 20 18 19 18 16 14 13 12 11 9 8 5 3 3 3 3 3 4 3 7 2 2 4 5 19 14 5 4 2 4 3 3 4 3 6 7 8 7
25 25 26 27 29 28 28 27 23 23 20 20 19 19 16 15 14 13 10 9 6 5 3 3 3 4 2 4 7 14 6 1 2 9 12 9 4 5 4 4 4 2 4 6 5 8 6
26 26 27 28 29 29 28 29 25 24 24 21 21 20 17 17 15 14 12 9 6 5 4 3 2 3 1 11 4 4 6 8 6 3 4 11 11 1 3 3 3 4 6 6 5 4 6
29 28 28 28 29 29 28 28 28 27 24 24 23 22 21 18 16 15 13 10 8 6 4 3 2 3 6 6 5 17 14 8 5 12 9 3 9 3 2 6 5 3 2 2 2 9 6
29 29 29 29 29 29 29 28 30 29 24 25 25 24 22 21 17 17 14 12 7 5 6 5 2 2 7 5 4 12 12 5 2 5 5 4 3 4 2 4 8 4 5 3 5 6 4
30 31 32 31 31 30 29 28 29 29 30 27 27 27 26 23 19 17 16 11 6 4 5 6 1 2 5 3 4 3 8 9 2 2 2 3 2 4 3 6 11 7 4 3 4 2 4
30 32 32 31 32 32 31 29 28 29 28 28 24 26 26 24 21 19 17 9 3 2 6 6 6 3 1 2 4 2 6 9 3 3 4 2 3 10 12 8 4 5 4 4 4 6 5
31 32 31 31 32 33 32 30 30 31 28 28 23 27 26 26 24 22 24 5 4 2 3 14 9 10 8 4 2 2 12 6 5 6 4 2 13 8 7 7 10 8 12 16 6 7 6
30 32 32 31 31 33 33 30 30 29 25 28 28 28 27 27 25 26 25 15 5 2 1 4 5 7 6 4 6 4 10 5 4 6 7 12 4 12 6 8 9 11 16 16 16 11 10
31 33 33 32 32 32 32 31 28 30 26 27 28 26 29 26 25 23 12 19 8 3 2 4 4 4 5 4 5 14 18 6 5 11 9 10 11 14 8 11 11 16 8 11 10 5 7
33 33 32 34 33 32 33 33 30 28 30 29 27 27 27 38 19 14 13 26 15 4 2 3 5 2 4 7 1 0 14 9 12 9 6 6 4 10 17 13 10 7 5 8 7 5 6
33 33 34 34 34 33 32 34 33 30 38 30 23 23 18 30 22 16 27 31 11 4 7 6 4 6 5 5 2 2 5 6 1 9 13 9 4 5 8 16 10 2 5 7 3 3 10
33 33 33 34 35 34 32 35 39 42 37 26 20 24 18 36 14 33 40 12 4 4 1 6 5 6 9 6 4 7 6 7 6 6 8 4 12 2 4 8 8 13 6 3 5 6 8
33 32 31 33 34 34 36 37 47 38 20 13 14 20 19 29 30 39 24 4 4 5 5 4 4 6 5 7 6 8 4 7 13 7 2 7 6 16 7 10 7 16 13 4 6 5 4
33 33 32 33 34 33 36 37 47 31 15 10 11 11 8 27 40 38 11 3 8 7 7 11 6 5 7 8 4 7 9 9 7 15 8 4 6 4 8 10 11 6 11 17 5 3 3
33 32 32 33 33 34 36 37 38 26 10 12 7 4 5 42 50 24 6 6 4 4 8 9 7 9 6 7 9 9 7 4 6 13 12 3 4 6 6 11 10 9 6 4 5 5 6
32 31 31 32 33 33 35 37 38 26 22 24 4 1 17 40 35 8 6 5 4 4 7 6 6 6 7 5 8 6 4 5 8 5 17 7 5 2 7 12 14 9 7 5 2 4 4
31 31 30 30 32 32 33 36 35 29 26 16 3 2 24 44 8 3 4 6 4 7 1 3 2 9 9 11 7 9 9 7 9 8 10 12 4 6 17 4 15 16 17 16 7 7 9
30 30 30 31 31 33 33 35 34 33 26 8 2 3 30 26 5 4 5 4 4 5 7 7 9 9 11 6 5 7 5 8 10 12 10 10 4 4 2 7 10 8 10 16 17 7 10
30 29 27 28 29 30 32 35 34 33 32 18 5 3 3 3 2 11 6 8 7 1 3 6 5 10 8 6 10 3 5 5 10 13 11 11 5 8 7 5 3 6 13 18 20 12 14
29 29 26 28 27 27 32 37 36 35 39 3 3 3 5 6 5 7 10 8 8 6 6 10 5 11 7 5 8 9 7 11 2 10 9 8 6 10 17 22 16 8 9 20 20 18 15
29 29 25 26 25 26 29 34 35 34 38 4 1 2 2 7 12 9 14 10 12 8 8 5 8 9 14 7 7 7 8 5 4 7 9 6 4 2 11 18 23 16 14 18 23 21 21
29 29 28 25 25 25 28 33 34 31 30 4 3 2 2 9 9 9 6 8 12 9 11 11 11 11 10 16 15 15 6 6 10 7 10 4 3 3 8 7 8 5 17 16 19 17 13
29 28 26 22 25 25 25 28 31 29 25 12 5 2 1 4 8 8 8 9 10 11 10 7 12 8 2 2 4 6 11 13 8 11 12 5 3 3 5 3 2 4 9 13 17 11 11
29 27 25 21 23 24 25 28 30 28 27 19 4 2 2 3 6 7 7 6 8 10 13 12 8 6 2 4 3 3 2 3 7 8 12 9 2 4 4 3 3 1 6 7 10 12 22
29 26 23 21 22 23 24 27 30 29 28 27 14 6 2 4 4 4 7 5 3 3 2 4 6 6 8 3 3 5 3 1 3 3 8 8 6 3 4 4 3 1 1 2 10 3 8
27 26 22 21 21 22 23 25 28 28 26 21 9 8 2 2 2 3 2 3 4 2 1 2 2 2 5 4 3 2 3 4 3 3 3 3 3 5 3 3 7 4 6 2 4 3 3
26 24 21 21 20 21 22 24 28 27 27 21 12 8 1 1 2 3 3 4 2 3 3 2 2 3 4 4 4 3 4 4 2 2 3 4 4 3 2 2 4 6 6 4 2 3 3
25 24 21 19 19 20 21 22 25 25 25 22 5 6 3 0 1 1 3 4 4 5 3 4 2 2 3 3 3 1 2 1 2 3 2 3 4 3 6 5 3 2 1 2 1 2 3

GFSGBSN_925_spd_030.txt.gz
Wind_Speed
26 27 27 27 27 28 29 29 29 29 22 23 21 19 19 15 12 13 11 9 6 4 3 4 3 1 2 2 7 2 2 6 3 18 12 7 3 4 4 3 1 4 4 4 4 7 7
26 27 27 28 29 29 29 28 28 29 28 22 23 22 21 18 14 13 13 10 7 5 4 3 3 2 2 3 4 9 7 4 6 13 8 8 5 5 2 3 3 2 3 5 5 5 5
26 27 28 29 29 30 30 29 28 28 27 28 24 24 21 21 17 14 14 11 8 5 5 3 2 3 1 10 2 1 4 1 1 6 5 8 6 3 0 2 2 3 5 6 6 6 7
28 29 30 30 30 29 30 30 30 29 28 27 27 25 23 23 20 16 15 12 9 7 5 3 2 3 6 4 4 11 6 1 2 5 2 1 7 4 2 4 2 2 1 3 4 5 6
28 30 31 31 32 31 30 30 30 30 29 28 26 25 24 23 23 18 17 13 10 7 5 4 2 2 7 4 4 6 11 4 4 4 5 4 5 4 2 1 4 4 8 5 6 2 4
28 30 32 32 32 34 32 31 30 30 30 27 28 26 22 23 25 20 18 12 8 5 4 4 2 1 4 2 2 3 9 11 3 4 3 3 2 3 4 5 6 4 7 10 8 3 4
28 27 28 32 33 33 31 32 31 29 29 28 25 25 25 23 24 23 21 15 4 1 4 6 4 3 1 1 3 2 5 8 4 4 5 2 3 7 10 8 10 4 3 9 4 7 7
27 29 30 30 31 33 32 32 31 30 28 26 26 23 26 21 24 29 30 6 7 6 3 12 9 6 5 3 1 2 12 5 4 5 4 1 10 8 5 4 5 8 13 19 13 12 10
29 31 32 33 32 33 32 33 31 31 29 26 23 24 23 20 25 34 31 12 18 8 2 3 6 7 3 5 4 4 8 4 3 5 6 7 3 7 9 6 5 6 11 8 14 9 12
31 33 31 32 33 34 33 32 32 32 27 28 27 25 23 22 19 30 19 21 16 10 4 4 4 5 5 6 5 11 14 5 2 9 5 8 9 10 5 5 8 13 8 14 13 6 7
31 32 32 32 34 34 34 33 30 33 30 31 31 28 24 25 12 18 22 26 16 5 1 3 5 4 6 9 2 2 8 3 7 7 5 5 4 7 14 12 7 4 6 8 10 8 6
31 33 32 32 33 34 35 32 33 35 37 45 33 28 18 20 19 26 38 28 10 5 6 6 4 6 6 4 1 4 5 3 3 9 12 11 3 3 6 7 14 3 4 4 3 4 11
31 32 33 32 33 34 35 34 36 36 46 29 17 17 15 16 6 37 44 12 4 4 1 6 5 5 6 6 4 4 6 8 5 5 7 4 12 6 4 4 7 9 3 3 5 6 7
31 32 32 31 32 32 33 33 35 40 34 19 4 10 13 20 31 45 30 4 4 5 5 7 6 8 6 7 4 4 4 7 10 6 1 3 5 12 12 16 7 17 10 5 5 4 4
33 31 32 31 32 33 32 35 36 38 31 25 9 1 6 8 38 43 11 3 7 7 7 8 11 6 6 6 3 7 9 5 7 15 6 4 6 2 5 6 9 5 11 14 5 3 3
31 30 31 31 30 31 31 34 36 35 34 20 11 3 6 18 43 25 8 5 3 4 7 5 5 5 6 7 7 7 6 4 6 12 10 1 6 3 3 3 10 8 1 4 6 5 5
32 32 31 30 29 30 30 33 35 35 34 31 7 3 13 17 31 7 5 3 3 3 5 4 4 5 4 5 9 5 4 4 6 5 14 6 4 1 5 9 11 8 9 6 3 4 4
32 32 30 29 28 29 29 33 35 36 33 24 2 2 21 30 6 3 5 6 4 5 2 2 3 4 6 8 6 8 8 6 6 9 10 9 3 6 15 10 16 18 13 17 7 6 4
32 32 29 28 27 28 28 32 35 35 29 16 3 1 29 36 4 3 3 3 4 4 4 3 3 3 6 6 5 8 3 6 8 9 11 9 5 4 4 3 8 9 18 20 19 8 14
31 31 30 28 27 26 28 31 36 38 38 24 2 3 4 2 1 11 7 5 4 1 4 3 2 4 5 6 9 3 5 5 13 11 10 12 5 8 12 10 3 6 16 18 17 10 14
29 31 30 28 25 26 27 32 35 37 40 7 1 1 2 5 3 9 5 8 9 5 2 7 5 12 6 5 6 7 8 4 4 11 7 7 7 12 21 23 18 12 12 20 19 23 12
28 30 29 27 23 26 27 28 34 36 39 3 1 2 3 8 10 9 5 7 11 7 8 5 8 7 11 6 7 8 5 4 5 4 8 5 5 3 17 19 18 24 24 18 21 21 21
28 30 28 25 24 26 25 26 30 31 27 4 7 4 2 11 9 8 7 7 12 9 8 8 12 10 10 15 16 14 2 5 3 2 5 3 3 3 9 6 12 5 10 18 14 11 17
29 29 27 24 23 25 25 25 28 31 27 15 5 4 2 4 9 9 11 8 8 13 6 3 11 6 2 2 1 2 4 9 14 15 12 5 3 3 6 9 4 4 4 5 13 9 16
27 28 27 22 22 23 24 25 26 30 28 23 10 4 1 3 5 8 8 8 6 5 9 11 6 3 2 3 1 3 2 3 7 10 12 14 3 3 4 6 6 4 1 3 5 6 12
27 27 26 22 21 20 22 22 24 29 28 28 15 6 2 2 7 5 9 6 3 3 4 4 0 3 3 2 3 3 3 3 3 2 2 9 10 2 3 4 4 5 5 2 3 6 11
27 25 25 22 20 20 21 21 23 27 27 26 9 7 2 2 1 3 3 4 4 3 1 1 2 3 10 5 3 2 3 3 2 3 3 2 3 4 4 3 7 5 8 4 4 4 3
27 24 23 21 21 21 20 21 21 25 25 26 12 8 3 2 2 1 3 4 3 3 3 2 2 3 3 4 2 2 3 4 2 3 4 6 3 3 2 2 4 4 4 2 3 3 3
25 23 23 19 19 19 20 20 19 23 21 23 6 15 2 1 2 2 3 2 5 7 4 3 1 2 3 3 3 3 2 1 2 3 2 3 5 3 6 5 4 3 3 2 2 1 3

GFSGBSN_925_spd_033.txt.gz
Wind_Speed
25 26 26 27 27 27 27 27 26 27 26 25 26 21 19 20 18 15 11 9 8 6 4 3 2 0 4 3 5 2 1 4 6 17 14 7 3 3 4 2 2 3 3 3 4 5 5
25 26 27 28 28 28 27 29 27 27 26 26 25 25 20 19 22 17 13 10 9 6 5 3 2 3 5 2 3 5 6 4 8 16 10 6 6 3 3 2 3 2 2 6 6 8 6
27 27 29 29 28 29 28 29 29 28 26 26 26 24 26 19 20 20 16 12 10 8 6 3 3 4 1 8 3 2 4 3 6 9 5 7 6 4 3 1 2 2 4 6 8 7 8
26 28 28 29 29 29 30 30 28 29 28 26 25 25 24 18 17 22 18 15 12 10 7 5 4 4 5 2 4 9 4 4 6 8 9 9 8 2 1 1 1 3 2 3 3 2 6
25 27 26 29 29 29 30 29 29 28 29 25 24 25 24 23 17 22 20 17 13 12 8 7 3 3 6 1 3 5 10 6 7 5 5 8 7 4 3 2 2 4 4 6 5 2 4
25 26 27 27 28 31 30 30 29 29 29 28 25 21 23 21 19 19 23 18 13 11 6 3 1 2 3 2 4 4 10 9 4 6 4 3 2 4 4 5 6 4 4 4 6 1 4
27 29 30 28 27 28 29 32 30 28 28 28 25 22 21 20 20 16 27 19 5 2 3 7 3 2 1 3 6 4 7 7 4 4 5 2 4 9 13 7 4 1 3 10 7 6 11
27 30 29 29 30 31 31 31 32 30 28 27 23 22 19 21 21 21 39 5 10 9 4 10 3 3 2 2 3 2 12 5 4 4 5 2 9 8 3 4 6 9 14 16 15 14 11
28 29 30 31 31 32 31 32 31 29 27 28 23 23 21 22 23 23 35 18 23 12 4 2 5 7 3 4 1 6 8 4 4 5 7 6 3 5 9 4 6 7 11 10 13 10 13
27 29 31 32 31 31 31 32 32 28 29 29 26 29 26 22 16 15 22 22 21 11 4 4 4 5 7 4 4 8 13 5 3 10 5 5 5 4 4 4 9 13 8 12 12 7 6
28 30 30 31 31 31 31 32 34 29 30 31 40 37 29 19 14 8 16 28 20 4 2 3 4 5 7 8 5 0 7 3 7 6 5 4 4 4 11 13 9 6 5 8 8 8 11
29 30 31 30 31 31 31 32 32 31 37 37 38 25 21 14 20 18 40 35 9 4 6 6 4 6 8 6 5 4 5 1 2 3 5 6 2 5 7 7 13 2 3 6 4 7 9
30 31 31 29 30 30 30 33 32 34 36 38 32 17 13 15 7 18 41 12 4 4 2 8 5 7 8 6 5 6 7 9 5 3 5 5 16 8 4 3 4 11 4 2 4 6 8
30 30 29 29 30 28 30 32 31 36 37 39 30 9 9 17 15 31 27 4 4 5 4 5 6 9 5 6 4 5 6 7 11 3 1 4 5 11 10 15 5 13 11 5 6 5 5
31 31 31 30 29 28 29 32 32 37 37 31 35 9 5 12 16 26 9 3 6 6 8 10 11 6 4 5 3 6 7 5 7 13 6 5 5 1 4 4 10 5 10 8 8 13 10
31 30 31 30 29 28 29 30 31 37 38 34 11 5 5 10 22 10 4 4 2 4 14 9 5 5 8 9 7 8 7 3 4 10 6 1 4 4 2 3 9 8 2 4 5 5 9
31 31 31 29 29 28 29 29 31 35 37 32 3 1 6 15 24 3 2 3 3 4 7 4 4 5 5 6 7 5 3 3 5 4 13 4 3 1 4 10 11 8 8 7 3 5 6
30 31 30 29 29 28 28 29 30 35 36 16 5 1 6 35 4 2 4 5 4 3 6 4 4 5 4 6 6 6 7 4 6 8 9 8 3 5 12 9 15 16 12 17 8 10 6
30 30 30 29 28 27 28 30 31 35 32 24 2 2 12 13 3 2 2 4 4 3 2 2 3 3 3 6 4 7 3 3 9 9 9 7 4 4 8 2 3 10 19 20 17 9 16
29 29 30 29 28 26 28 28 32 37 41 18 0 2 3 2 2 4 5 3 4 3 3 3 4 4 3 4 6 2 4 3 10 8 9 10 5 7 10 14 1 7 18 19 20 10 15
27 29 30 29 26 26 28 27 31 36 42 7 1 2 3 4 4 3 4 3 5 4 2 3 2 6 5 3 5 7 7 3 4 9 6 8 6 11 22 24 24 26 27 21 22 28 14
27 28 29 29 26 25 27 27 29 34 37 6 1 2 1 4 8 8 4 6 8 4 6 3 3 6 8 7 6 6 6 5 5 4 7 4 4 4 20 22 22 21 25 21 20 23 19
27 26 28 28 25 24 25 26 27 30 32 4 6 4 2 10 7 6 6 7 6 4 5 5 7 5 8 12 13 12 3 1 2 4 9 4 3 3 11 11 20 6 8 7 7 13 15
27 26 26 26 24 24 23 25 24 27 28 15 5 3 1 3 8 7 7 4 9 12 3 1 6 6 3 1 6 8 8 11 11 12 9 6 2 3 7 9 4 5 4 8 3 12 15
27 26 24 24 23 23 23 25 24 26 30 24 11 3 2 3 6 8 8 7 2 3 11 8 5 2 4 1 2 1 3 2 8 15 13 14 7 4 4 6 10 2 3 5 2 3 15
26 24 23 23 21 22 24 24 24 26 29 28 13 2 3 1 6 5 5 7 4 4 2 4 1 5 3 2 2 3 4 5 2 3 1 9 11 3 3 4 4 4 7 4 4 8 2
24 24 22 21 20 20 21 22 22 24 28 28 10 7 4 1 1 3 3 5 4 3 1 2 2 2 5 4 3 2 3 3 2 2 4 3 3 7 6 4 7 4 9 1 5 3 4
24 22 21 20 17 18 18 21 21 21 26 24 15 8 6 1 2 1 2 4 3 3 3 2 1 3 4 5 4 3 3 4 2 3 4 5 4 3 2 2 6 2 4 4 3 5 3
22 21 19 16 16 17 19 19 18 20 21 20 7 20 17 1 2 2 3 1 4 6 4 4 2 1 3 3 2 2 2 1 3 3 1 2 5 3 6 5 4 3 4 2 2 4 3

GFSGBSN_925_spd_036.txt.gz
Wind_Speed
21 22 23 22 22 23 24 23 24 24 24 23 22 22 22 20 16 18 17 14 11 8 5 3 3 1 2 6 6 5 4 1 6 15 15 9 9 6 9 5 5 9 9 8 10 10 12
20 22 23 24 24 24 24 25 24 25 25 25 23 23 22 22 17 16 20 16 12 9 7 4 3 3 3 9 2 4 3 4 6 15 17 13 7 4 2 4 8 1 6 9 9 13 13
21 22 23 26 26 26 26 25 26 23 25 25 24 23 22 21 20 15 20 18 14 11 9 5 4 3 3 7 2 1 6 5 6 10 11 5 9 6 7 4 3 6 11 13 15 13 13
21 22 23 25 25 26 27 27 26 26 25 25 25 21 22 21 21 13 16 20 16 13 10 8 5 3 5 3 6 6 5 7 8 7 7 9 7 5 4 1 4 5 6 6 3 1 4
21 24 26 25 24 26 26 27 28 28 27 25 25 24 22 19 18 16 12 23 19 16 12 10 5 3 3 2 4 6 8 11 11 10 8 9 8 3 5 6 6 8 8 9 10 4 4
23 24 25 24 25 24 28 26 27 27 29 26 25 24 20 19 17 17 13 24 19 17 11 8 4 3 4 4 5 5 8 14 7 11 8 4 3 5 8 8 6 5 12 9 11 2 9
24 25 24 26 27 29 29 28 27 27 28 26 22 22 19 18 17 17 17 23 8 4 9 7 7 0 5 6 7 4 12 11 10 11 9 6 7 11 14 14 12 5 7 11 10 9 17
25 26 26 28 28 28 29 28 28 28 26 24 22 21 20 19 18 18 14 4 17 10 7 9 7 5 1 4 5 7 13 8 12 12 9 6 12 12 8 11 13 14 16 17 15 13 14
26 28 28 29 28 28 29 28 28 28 27 23 23 22 21 22 22 19 13 22 22 15 4 7 11 7 5 5 4 11 14 6 10 12 15 8 3 3 14 11 13 16 16 15 17 16 18
28 29 29 30 31 28 29 28 28 29 28 27 30 25 33 25 17 17 14 25 19 5 3 9 9 7 9 6 5 10 16 5 5 12 9 9 11 7 9 12 13 14 8 12 13 8 6
29 30 30 31 28 28 28 28 29 30 29 30 36 30 25 20 7 4 7 21 22 5 7 11 7 9 10 11 10 5 12 4 8 8 6 4 6 10 14 15 10 7 5 7 8 11 14
30 31 32 31 30 29 28 28 28 30 30 33 33 31 29 10 20 14 12 30 5 5 6 8 7 11 13 14 7 6 8 3 3 6 6 10 2 5 10 9 13 2 6 9 10 6 8
29 31 31 30 30 29 28 28 29 28 32 36 35 34 24 12 11 21 13 13 3 4 8 9 9 11 14 12 10 9 10 10 6 5 8 8 17 8 8 7 8 10 3 3 4 6 8
28 30 30 30 30 28 27 28 30 28 32 36 39 34 5 19 8 26 14 5 4 6 7 7 13 15 7 15 6 9 12 10 13 7 3 5 4 14 11 15 5 15 9 5 6 6 8
28 30 31 30 29 29 27 28 29 28 34 39 40 5 3 14 15 19 5 4 4 7 11 13 13 8 5 11 5 7 9 7 10 14 6 5 4 2 9 4 11 5 9 12 14 20 15
31 29 29 29 29 28 27 29 30 29 35 39 23 3 3 10 17 13 4 3 0 5 19 16 7 6 9 13 8 11 11 5 10 14 14 2 4 5 3 5 11 12 3 4 6 5 10
30 30 28 29 28 28 27 28 29 29 35 32 9 2 5 15 24 5 1 3 5 13 12 3 7 8 7 11 11 9 6 2 8 8 15 6 4 3 3 11 13 10 8 7 8 9 6
29 28 29 28 28 27 27 30 27 31 35 18 3 1 6 22 4 2 2 3 6 9 3 5 6 9 13 11 9 8 7 4 6 10 10 11 4 8 15 11 13 15 15 19 9 13 11
28 27 28 29 28 27 27 31 29 33 34 22 1 1 6 4 3 3 1 3 3 4 3 3 4 4 4 8 5 7 3 2 10 10 10 11 5 4 4 3 5 8 16 23 21 16 21
27 27 27 28 28 26 27 31 30 36 43 9 1 2 4 3 3 8 4 4 3 5 3 6 11 9 8 4 2 4 6 3 9 13 7 11 4 8 10 14 3 9 16 19 18 13 22
27 26 27 27 27 26 26 31 31 36 43 10 1 3 2 4 1 6 4 4 10 4 3 3 4 5 5 4 4 4 7 5 4 8 8 7 5 13 20 23 24 25 27 27 20 26 19
27 26 25 25 26 25 25 28 28 34 35 7 3 1 2 2 4 7 4 7 6 4 3 3 3 6 5 4 5 3 6 7 6 8 10 7 4 3 15 23 22 23 23 22 20 18 20
25 25 25 24 24 24 25 24 27 28 30 5 7 5 1 6 8 8 7 7 8 7 3 2 5 5 5 7 9 7 6 3 3 5 12 5 2 2 6 12 22 7 6 12 15 8 7
23 24 23 23 22 22 24 23 25 25 27 12 7 4 1 4 7 10 8 7 8 6 2 1 4 4 2 6 1 4 8 11 13 14 10 4 4 2 6 11 4 5 7 11 10 9 8
23 22 23 22 21 20 21 20 23 22 24 23 13 3 2 3 8 7 8 9 6 3 4 7 4 3 5 2 2 3 3 3 10 17 16 16 8 3 3 5 13 8 8 6 4 6 7
23 22 21 20 20 18 20 20 21 22 26 26 7 7 3 1 6 10 11 9 5 6 3 3 1 4 3 3 3 3 3 2 1 1 2 10 11 5 2 3 4 5 11 4 4 2 4
21 22 21 19 16 17 17 20 21 21 23 24 5 14 4 2 2 4 9 9 5 5 2 2 3 4 5 3 4 3 2 1 2 3 4 3 3 9 7 4 9 5 13 1 3 4 5
19 20 20 19 18 16 18 19 19 19 22 25 13 7 8 2 1 2 2 4 3 3 3 4 2 2 3 5 3 3 4 4 3 2 3 6 5 4 4 5 5 3 8 4 6 5 7
18 19 19 18 19 20 20 20 18 19 20 20 7 21 18 3 2 2 2 1 1 4 4 4 2 2 3 3 4 3 4 3 3 2 2 4 5 2 5 4 2 3 5 5 5 7 4

GFSGBSN_925_spd_039.txt.gz
Wind_Speed
18 18 20 21 22 21 22 23 23 23 22 23 24 24 23 23 23 21 17 21 16 13 11 9 7 5 6 7 8 7 5 4 10 19 19 14 13 14 13 12 8 13 16 11 13 14 14
18 18 19 23 24 23 23 24 24 23 23 23 24 23 25 22 23 23 18 17 17 15 12 10 8 6 9 12 2 3 3 3 11 18 18 12 5 7 7 9 10 2 10 14 14 15 15
18 19 21 23 23 24 24 24 26 25 25 24 24 24 25 22 22 22 22 15 20 17 14 10 9 8 9 7 3 4 5 3 4 11 13 14 8 6 4 5 9 8 13 15 19 19 15
20 21 23 23 22 23 22 24 26 26 27 26 24 24 25 24 21 20 21 15 25 21 16 12 10 8 6 2 6 4 7 5 6 9 7 9 6 1 4 2 4 8 11 13 3 6 9
22 23 24 23 24 25 26 26 27 25 27 27 26 24 23 22 20 19 21 15 19 22 17 13 9 7 4 4 6 10 9 9 9 9 8 11 9 3 3 8 10 12 9 14 10 7 7
23 24 25 26 26 27 26 26 27 26 26 24 25 23 21 19 19 16 19 18 13 22 19 11 4 4 6 6 8 9 11 11 11 12 9 7 7 8 10 11 9 12 15 13 11 5 8
24 26 27 29 27 29 28 27 27 26 26 23 24 22 19 20 19 18 17 8 5 7 12 6 11 2 11 11 11 10 14 15 10 12 7 9 8 13 16 15 16 9 9 12 10 8 15
25 27 29 30 29 30 29 26 27 26 27 26 23 19 21 21 18 17 16 4 7 6 7 8 11 8 10 12 7 11 17 12 12 13 9 5 14 15 10 9 12 13 14 15 14 13 12
27 27 30 31 31 30 27 27 27 27 25 26 23 22 25 20 24 21 18 16 20 11 3 13 12 12 8 9 8 15 17 12 15 16 16 11 1 4 12 10 11 13 14 13 14 16 18
28 30 31 32 33 30 29 28 27 27 27 25 23 25 22 30 26 20 20 13 16 8 3 10 9 7 9 7 6 16 19 9 6 14 12 12 8 4 8 12 11 11 9 10 11 9 6
28 28 30 30 31 30 29 27 26 25 28 25 26 29 24 21 10 10 4 19 18 1 6 15 11 10 15 11 15 12 17 5 10 8 8 4 6 12 12 12 8 6 3 5 8 10 14
30 29 29 30 29 29 28 26 25 27 27 26 28 32 31 24 12 16 4 25 14 3 4 7 7 13 17 14 8 11 13 4 4 7 11 11 3 5 6 5 8 4 3 6 7 6 8
30 32 31 29 28 28 27 26 25 26 28 27 32 38 31 12 7 17 13 10 5 6 11 9 9 14 17 15 11 13 13 10 8 6 9 10 16 7 8 6 5 8 1 2 4 5 8
29 30 30 28 27 27 26 26 27 28 27 31 34 38 7 9 6 20 3 5 8 8 8 8 15 18 10 17 9 14 15 11 13 12 3 7 6 17 11 12 5 12 8 4 5 7 11
28 30 29 27 27 27 27 27 29 29 29 34 38 12 1 9 12 22 4 4 1 13 11 13 17 6 7 17 7 10 13 11 11 13 6 5 3 1 9 7 10 6 8 10 11 16 11
27 28 27 27 27 27 27 28 31 27 31 34 20 6 2 13 19 13 1 1 2 7 15 17 6 7 9 15 9 11 13 10 8 15 11 2 2 5 7 5 10 12 0 2 4 5 10
27 26 27 26 27 26 27 28 31 28 33 35 6 2 4 14 18 2 2 2 6 15 12 4 9 10 11 15 10 14 14 4 14 11 13 5 3 5 5 11 13 11 9 7 8 7 6
26 27 25 25 27 26 28 30 32 30 36 21 1 2 10 26 3 1 1 3 14 12 1 2 7 7 16 17 10 10 8 1 5 8 10 9 2 5 12 8 8 14 14 17 7 9 8
25 26 26 25 26 26 28 30 33 34 39 5 2 2 1 6 3 1 2 7 7 5 1 3 5 2 7 14 6 7 4 6 8 11 9 10 5 3 2 1 8 10 15 18 17 16 20
26 27 25 25 25 26 28 30 33 37 36 5 2 2 2 1 1 4 4 6 6 3 7 8 9 12 11 12 5 7 5 4 7 9 8 4 5 8 8 10 9 6 15 16 13 8 20
25 25 26 24 24 25 26 28 32 37 32 7 1 3 1 3 3 5 5 5 5 4 3 4 4 5 5 4 5 4 5 6 7 6 6 5 7 13 18 20 19 17 21 22 19 21 15
22 23 23 23 23 23 25 27 29 32 29 8 3 2 2 2 4 7 2 9 9 2 2 3 5 6 3 3 2 5 7 5 4 7 8 4 3 2 14 18 14 16 20 18 18 18 15
22 22 22 22 21 22 23 24 27 28 29 5 6 4 4 3 6 5 6 10 8 6 4 6 6 5 1 2 1 2 2 1 3 8 11 5 2 2 5 10 19 9 4 9 12 12 7
22 22 21 20 19 18 20 21 23 23 24 12 4 3 3 2 5 7 6 6 7 5 5 5 3 1 4 5 3 2 5 7 9 10 8 6 4 2 5 12 3 1 3 10 7 7 10
20 20 22 20 18 17 17 19 21 20 22 19 6 2 2 2 5 7 4 7 5 5 2 3 4 5 4 2 1 2 3 3 11 18 17 13 5 2 3 6 16 5 9 7 2 4 8
18 18 19 18 17 17 17 19 20 20 22 23 4 11 3 3 5 5 5 7 6 6 3 3 5 4 3 0 1 3 3 3 3 3 6 13 10 3 3 5 4 6 12 5 5 1 2
17 17 17 17 17 16 17 18 19 20 21 21 5 13 4 3 2 3 8 7 3 4 2 2 3 2 4 3 2 3 3 0 3 4 5 4 3 6 7 4 8 9 11 3 6 6 9
15 16 16 16 16 16 16 16 16 17 18 19 9 5 6 3 1 2 3 1 3 4 3 4 2 1 3 3 3 3 5 3 3 2 5 7 6 4 4 5 6 6 8 5 8 9 7
14 15 15 16 16 16 16 15 16 16 17 16 4 14 14 3 4 3 4 2 2 3 3 6 0 3 2 3 3 4 4 3 5 2 3 4 6 2 7 4 9 10 8 7 5 9 5

GFSGBSN_925_spd_042.txt.gz
Wind_Speed
19 20 21 23 24 24 24 23 23 24 24 25 24 23 24 24 24 22 21 22 20 20 16 13 10 7 3 7 6 4 7 15 13 19 17 13 12 10 10 9 10 12 16 12 10 8 7
21 22 21 24 23 24 24 25 25 25 25 25 26 25 24 24 26 24 22 22 21 19 17 15 11 8 4 12 3 6 6 7 12 17 19 16 7 4 4 10 10 5 8 12 14 7 8
22 23 23 25 25 24 24 24 26 24 26 26 26 27 25 25 25 24 21 20 21 16 19 16 12 10 9 11 3 6 6 5 10 17 14 15 3 2 1 3 10 4 7 11 13 11 10
24 24 26 26 26 27 28 28 25 26 26 26 26 27 26 26 23 22 19 20 22 14 19 15 12 12 6 6 7 4 9 6 4 5 4 9 5 3 2 3 2 4 9 7 9 19 15
24 25 27 27 27 28 28 30 27 25 26 26 25 25 25 23 22 20 18 18 20 18 17 17 9 14 5 6 8 10 12 11 11 8 10 8 5 2 2 2 4 9 6 12 10 6 5
25 25 26 29 31 31 30 30 28 25 27 26 24 24 24 21 21 21 18 19 16 9 19 17 11 8 7 8 10 16 12 11 11 11 7 5 3 4 4 6 6 8 13 11 9 6 4
26 27 28 30 32 32 32 29 25 27 27 25 23 24 20 20 22 18 18 9 1 3 19 7 13 3 16 17 14 12 15 14 12 11 5 8 5 8 11 13 14 13 9 9 10 8 7
25 29 30 29 30 32 31 28 27 26 26 24 23 23 21 21 24 18 15 4 6 3 6 18 9 10 17 21 10 13 18 9 8 10 6 3 7 8 9 6 7 8 9 10 9 10 8
29 27 29 30 30 29 30 29 28 26 24 24 25 22 22 26 17 18 12 19 6 5 5 9 13 12 15 9 9 16 16 9 13 10 10 7 2 11 11 7 5 8 7 8 10 11 11
27 28 31 32 31 30 29 28 27 26 24 24 25 22 23 25 17 14 14 10 12 4 3 11 10 9 9 7 7 16 16 7 8 13 12 8 9 4 5 9 6 7 3 6 6 6 4
27 31 32 31 30 29 28 27 27 24 27 25 24 23 26 22 21 4 7 15 11 6 2 13 8 15 11 8 15 11 18 1 10 7 6 1 2 4 5 7 7 5 5 4 5 6 7
27 30 31 31 29 28 28 27 27 26 26 26 23 27 28 27 11 12 4 20 11 2 5 5 6 12 13 14 3 11 7 4 5 3 4 4 5 1 5 5 5 6 3 4 4 1 4
29 29 29 28 28 28 28 27 27 28 28 25 29 31 36 22 3 12 24 6 5 5 4 8 9 13 15 14 9 15 9 7 4 4 2 4 9 3 3 5 4 6 3 2 2 3 6
27 28 28 28 28 29 28 28 28 30 27 29 32 33 14 6 8 26 13 3 4 7 2 7 15 16 9 14 8 12 11 8 8 7 5 7 4 16 9 7 4 9 5 3 5 2 4
25 28 28 27 27 29 28 30 30 31 28 30 32 19 5 7 20 22 2 3 1 6 9 10 18 9 7 11 8 10 11 9 10 9 4 6 2 2 11 5 8 5 5 2 4 5 2
24 27 28 27 27 28 28 30 31 31 31 35 16 10 4 12 18 11 1 2 3 4 14 17 5 6 7 15 6 9 11 11 9 14 9 3 2 4 7 6 8 7 4 2 1 2 5
24 28 27 27 27 27 28 31 32 33 37 17 6 2 5 22 11 2 2 3 1 11 17 1 8 6 11 15 8 8 10 5 12 13 12 4 1 3 5 7 8 7 5 3 3 4 3
24 28 28 27 26 27 28 30 32 33 34 7 3 3 3 13 2 0 1 3 17 5 1 2 5 10 11 14 7 7 11 2 7 7 10 8 3 3 10 7 12 7 7 9 4 5 5
24 26 27 27 27 27 28 30 32 32 28 5 2 2 2 5 1 1 3 1 4 2 2 2 4 6 16 11 7 4 7 5 3 3 10 7 4 2 3 1 4 4 7 10 12 6 12
23 23 25 25 26 25 28 29 32 34 27 2 2 2 1 2 3 3 3 5 4 7 11 7 7 8 14 6 9 7 6 2 3 3 7 6 4 4 2 1 2 3 6 10 7 5 11
23 25 24 24 25 25 26 28 31 36 20 3 1 2 2 1 3 2 2 6 4 4 4 2 3 9 12 5 7 6 9 7 5 4 4 1 2 6 9 12 11 10 12 13 13 16 12
23 25 25 24 23 23 24 25 28 34 18 6 2 3 4 2 0 7 2 3 5 5 4 3 8 7 6 6 4 7 6 4 4 6 5 2 2 3 5 11 14 15 15 13 15 17 18
23 23 23 23 21 21 22 23 25 27 25 6 5 4 2 3 1 1 1 6 5 5 7 8 8 6 6 7 5 5 5 3 4 6 8 5 3 2 4 7 11 7 7 10 7 10 9
21 21 21 21 20 20 21 22 23 22 24 9 2 3 3 1 1 2 1 2 5 6 7 5 4 3 2 1 3 4 2 1 4 5 6 5 5 2 4 8 2 2 7 7 9 6 4
19 20 20 20 19 18 18 21 21 20 20 16 3 2 2 3 3 3 3 0 7 4 5 6 6 5 2 1 1 3 3 3 7 7 8 7 3 2 2 3 7 7 3 3 3 5 6
18 18 19 19 18 18 19 20 19 19 19 18 3 8 2 2 2 3 5 3 4 3 3 4 4 4 4 1 1 2 3 5 3 2 10 8 5 2 2 3 3 1 3 4 6 3 4
17 17 17 18 18 18 17 17 17 17 19 19 3 10 2 2 3 2 2 5 1 1 3 3 3 1 1 2 1 2 2 2 3 5 5 3 3 6 5 3 7 5 7 6 4 4 2
16 17 16 17 17 16 18 16 16 16 17 17 9 3 5 2 5 3 4 3 3 1 3 4 2 1 1 2 2 3 2 3 3 8 6 6 6 3 4 4 6 3 6 1 2 4 5
16 17 16 17 17 17 17 17 15 15 15 15 5 9 11 3 3 5 3 0 2 0 3 3 2 3 2 1 2 3 3 2 4 1 2 4 5 5 7 5 7 6 2 6 5 3 4

GFSGBSN_925_spd_045.txt.gz
Wind_Speed
20 21 22 23 25 24 24 25 24 26 25 25 24 24 25 24 24 25 25 22 21 20 21 17 13 10 5 6 6 5 9 21 17 17 15 10 6 5 7 6 6 6 6 10 9 8 4
21 23 25 25 25 25 25 28 28 26 26 24 25 25 24 25 24 24 23 24 20 19 18 18 13 10 4 8 10 6 10 16 19 17 14 12 5 6 6 4 7 5 3 3 5 7 5
22 23 24 25 28 29 28 29 29 29 27 24 25 25 25 24 24 23 22 22 19 20 19 15 16 12 7 9 7 10 10 13 13 17 8 20 7 4 2 2 2 3 2 6 6 5 5
23 24 25 27 27 29 32 32 31 28 25 26 27 24 23 23 22 22 20 19 20 20 22 17 20 12 5 9 14 12 12 7 7 6 22 11 3 2 1 3 1 3 3 1 7 10 9
24 24 26 27 30 31 31 31 30 26 26 27 25 23 22 22 21 19 21 19 19 21 19 13 15 8 6 9 16 13 14 8 9 12 12 12 5 2 3 4 2 1 3 6 7 8 6
23 23 27 29 28 28 29 29 29 27 26 25 23 21 22 20 20 21 23 22 22 15 6 9 4 5 6 6 11 15 16 12 5 11 4 3 2 3 2 3 5 5 4 3 6 5 5
23 27 24 29 31 30 29 29 28 28 26 24 22 21 23 18 19 27 18 10 3 2 6 4 8 3 4 14 20 15 17 9 7 4 4 3 3 5 8 7 5 5 4 3 5 6 3
25 27 26 29 31 30 28 27 28 27 26 23 24 23 23 20 20 15 18 3 3 4 3 14 6 15 14 19 8 9 12 7 8 5 5 3 3 5 7 10 9 6 4 5 7 4 5
24 26 28 29 29 29 27 27 26 26 25 25 24 24 22 20 22 15 10 12 3 6 2 8 4 16 9 4 5 13 9 8 10 8 6 5 1 8 4 3 4 2 2 3 5 7 5
25 26 26 28 27 28 27 27 27 26 25 25 24 23 20 21 12 12 10 9 11 8 2 8 7 8 5 4 4 9 10 8 4 10 8 3 4 3 4 3 3 1 4 2 3 4 3
25 27 26 27 26 27 27 27 26 26 26 26 24 22 22 19 19 4 4 14 18 5 1 9 8 16 6 1 14 8 6 2 7 7 6 7 4 6 3 3 5 3 5 5 4 4 5
24 25 28 27 27 26 28 26 27 27 29 26 25 26 27 24 10 16 5 17 7 2 4 4 7 11 7 14 3 9 3 2 2 2 6 4 2 3 3 3 3 6 5 4 3 3 3
25 24 27 27 26 26 27 28 29 29 29 28 28 30 28 10 3 5 24 5 4 1 4 6 8 12 13 7 7 12 8 4 4 5 0 3 3 2 3 4 4 5 5 3 0 2 6
25 24 28 27 26 26 27 28 30 30 32 32 31 27 13 3 5 23 11 1 4 5 2 5 12 15 5 11 9 6 8 4 3 2 4 4 4 8 4 4 5 4 5 4 4 3 4
24 25 28 27 26 26 27 29 31 32 37 42 20 9 7 10 18 25 3 1 1 3 4 7 13 8 5 4 7 6 4 5 4 4 4 4 2 6 6 2 5 3 3 5 1 2 3
22 25 28 28 27 27 27 29 31 34 38 32 4 5 7 15 15 7 2 3 3 5 10 13 4 4 6 6 6 5 8 8 5 8 2 1 4 5 5 3 4 5 5 2 2 2 5
21 25 26 27 28 29 28 30 32 34 37 14 5 2 2 10 7 2 2 3 3 9 15 1 5 6 9 6 5 4 11 10 7 10 5 2 3 2 3 5 7 3 3 3 2 4 4
21 23 26 26 27 28 29 31 33 33 36 8 3 3 1 2 2 1 2 3 5 5 5 2 4 8 9 6 6 3 7 1 11 10 7 3 3 3 7 5 8 5 5 5 4 4 4
21 24 26 24 25 27 28 30 34 35 30 5 2 2 2 4 2 3 3 4 3 6 2 2 3 4 15 6 5 3 5 4 6 6 10 6 2 1 2 5 2 5 7 8 5 2 7
20 24 25 26 24 25 27 30 34 35 26 4 1 2 2 1 3 1 3 4 2 4 6 5 12 14 10 5 5 6 4 3 3 4 7 7 4 5 5 3 3 3 6 9 11 3 8
19 22 23 24 24 23 25 28 31 35 25 2 2 2 1 1 1 3 1 1 5 5 6 5 10 10 9 5 8 5 6 3 4 2 4 4 3 3 4 6 4 6 7 9 11 18 9
18 20 21 22 23 21 23 26 29 31 24 5 1 2 4 2 3 2 2 2 5 4 5 6 10 11 10 4 1 10 6 4 3 2 3 2 1 2 5 8 8 6 11 12 12 16 17
17 18 19 20 21 20 20 24 26 27 29 5 6 3 1 4 1 1 1 2 1 2 9 6 7 6 9 4 5 4 5 5 7 7 6 5 3 2 4 4 6 5 7 12 7 5 6
16 16 17 18 19 19 20 21 23 23 23 12 4 3 2 3 1 1 4 5 6 4 5 4 8 4 0 2 4 6 7 6 5 5 6 4 5 3 3 4 1 5 4 6 10 8 7
15 15 15 16 17 18 17 18 19 19 20 21 6 4 2 2 2 1 3 7 3 4 6 5 5 2 2 3 2 3 1 1 4 5 6 5 4 1 2 2 6 1 2 2 3 4 2
15 14 14 14 15 16 17 16 16 17 18 19 6 9 3 2 2 5 2 2 2 2 2 3 2 3 4 1 1 3 4 5 3 3 4 5 2 1 2 1 3 3 3 1 4 3 2
14 14 14 14 14 14 15 15 14 15 16 16 6 9 4 2 3 4 1 3 1 1 3 3 2 2 3 2 2 3 3 3 4 7 5 3 2 6 6 3 6 8 6 5 1 4 1
14 14 14 14 14 14 14 14 13 13 13 14 10 5 5 2 5 3 3 2 0 2 3 4 2 1 1 2 1 2 2 3 1 6 7 7 6 3 4 3 7 4 3 1 2 2 2
14 14 14 14 13 14 14 14 12 12 11 10 4 7 11 3 4 5 8 6 2 2 4 2 2 2 3 2 1 2 2 2 2 2 3 4 6 5 7 6 6 3 2 1 1 2 0

GFSGBSN_925_spd_048.txt.gz
Wind_Speed
21 18 21 21 22 25 25 27 27 27 27 25 24 22 21 22 22 22 22 23 21 21 19 23 21 15 8 5 9 10 4 22 23 20 17 9 6 5 6 7 4 3 3 4 6 7 4
21 22 22 22 24 25 25 31 29 29 28 22 22 23 21 20 22 21 21 21 20 20 19 21 21 19 6 9 12 17 6 21 19 19 13 10 6 7 5 4 8 4 8 6 4 4 3
21 22 21 23 26 28 28 27 28 26 26 25 25 24 22 21 20 21 19 19 20 20 20 20 19 21 9 14 7 11 12 22 22 22 5 15 13 4 4 3 5 2 5 2 4 3 4
22 22 22 25 27 26 27 25 25 26 26 25 24 21 20 20 21 18 17 19 19 19 20 20 19 16 5 15 9 8 11 11 12 19 21 16 11 1 3 1 3 5 4 1 4 3 6
22 24 25 23 27 28 29 27 26 26 26 25 22 20 19 19 18 16 20 21 23 22 19 18 13 10 4 8 11 18 14 7 13 10 12 9 5 1 2 6 3 1 3 5 6 7 6
22 25 26 26 27 29 27 26 25 25 25 23 21 20 20 20 17 16 22 23 22 16 8 1 7 4 4 5 10 20 16 11 4 13 6 3 3 3 2 4 7 6 4 3 5 4 2
24 24 25 26 27 27 27 26 26 25 24 23 21 22 20 21 18 15 21 11 5 3 3 4 6 5 3 6 18 13 16 7 5 3 4 4 3 6 5 5 3 3 2 2 4 4 5
24 24 26 25 26 26 26 26 25 25 24 22 22 21 21 19 17 17 12 2 2 1 3 10 8 15 15 12 9 9 14 6 6 5 6 3 2 5 10 6 6 1 3 4 6 1 3
23 24 24 25 25 26 26 27 25 25 24 23 23 21 19 17 18 11 10 8 4 2 2 2 9 11 6 5 4 12 10 5 8 7 4 5 1 7 5 6 6 4 3 2 4 5 1
23 25 24 26 25 25 25 27 26 27 26 26 25 21 19 19 10 8 10 6 15 4 2 3 7 5 5 6 4 5 9 5 3 9 7 3 2 4 4 2 4 2 1 3 3 4 4
23 24 24 27 26 25 25 27 28 28 27 26 25 22 21 18 11 3 5 1 14 3 4 9 6 17 3 1 12 6 4 3 5 8 5 4 5 3 3 3 4 3 4 4 2 3 4
23 23 25 28 26 25 25 27 28 28 28 29 31 28 25 19 9 11 7 15 5 2 3 5 6 10 8 5 2 7 3 4 3 5 5 2 2 3 4 4 4 7 5 6 4 3 2
21 22 25 27 27 26 26 28 29 29 30 33 35 25 15 4 1 3 10 3 3 1 2 3 8 14 12 5 5 7 6 3 4 5 3 2 2 1 3 6 3 5 6 2 4 2 6
22 21 25 27 27 27 28 29 29 30 32 36 21 13 11 4 1 14 9 1 3 4 2 5 12 14 6 7 11 7 6 4 3 5 4 4 2 5 2 4 5 4 6 4 4 3 4
20 22 24 25 26 27 28 30 30 31 31 26 15 13 16 15 10 15 2 2 1 4 4 9 15 8 4 4 6 5 2 5 3 3 5 4 1 3 4 3 6 3 2 4 3 4 3
19 21 23 25 25 27 28 30 31 32 36 15 7 4 9 11 7 8 2 5 3 4 7 7 5 1 4 4 5 3 7 4 3 6 2 5 4 2 2 4 1 4 6 3 3 1 4
17 22 24 25 24 26 28 29 32 33 25 7 5 3 6 4 2 2 2 3 3 6 6 2 3 4 6 5 6 3 9 1 7 4 4 1 4 1 4 4 6 3 2 1 3 4 3
18 20 23 24 25 25 27 29 31 32 25 11 3 3 3 6 2 1 2 6 8 6 6 4 4 7 4 4 4 3 7 3 8 6 6 1 4 3 6 2 4 4 6 6 3 3 2
16 20 22 23 24 24 27 29 30 29 20 6 2 1 1 1 2 2 3 3 3 7 8 3 3 3 5 5 5 5 4 5 8 8 7 4 1 2 2 5 3 3 5 4 4 2 6
15 18 20 21 23 23 25 28 30 30 17 2 1 2 3 1 2 1 4 3 2 3 4 5 5 12 5 3 3 4 3 4 3 3 9 6 3 4 5 4 3 3 5 7 6 3 3
13 15 18 20 21 22 23 27 30 30 14 2 2 1 2 2 3 2 3 6 6 6 6 8 7 4 5 3 4 4 3 3 5 4 3 4 4 1 4 6 3 4 5 7 9 18 6
12 13 16 18 19 20 22 25 27 31 11 6 2 2 3 2 1 4 3 4 6 4 4 3 5 4 7 3 2 5 6 3 3 1 3 1 2 2 5 5 7 6 9 10 13 15 14
10 13 14 16 18 19 19 21 23 26 18 6 5 4 1 4 2 0 2 2 5 3 8 7 6 6 9 3 4 3 5 6 6 6 3 4 3 2 4 3 3 5 11 15 6 6 8
9 12 12 14 16 17 18 19 19 20 21 6 4 3 2 3 1 1 3 2 4 3 5 3 7 4 0 2 3 5 8 7 5 3 4 4 4 2 3 3 1 6 2 6 11 9 9
8 11 10 12 14 15 16 16 17 16 16 14 3 2 2 3 2 4 3 3 3 5 4 4 5 1 3 4 3 3 2 2 3 2 4 5 4 1 1 2 6 2 1 1 5 6 3
10 10 9 11 11 13 15 15 15 15 15 15 2 6 1 2 3 3 2 3 3 2 2 3 1 3 4 2 1 3 4 4 3 2 3 3 3 2 2 0 3 3 1 2 3 4 4
11 11 10 11 11 12 13 15 14 14 14 14 4 4 1 2 3 3 3 3 4 2 3 3 1 1 1 2 1 3 2 4 5 7 5 4 2 5 3 3 6 7 4 3 1 4 2
10 12 10 10 13 12 13 13 14 13 12 12 10 1 2 2 5 3 4 1 1 2 3 3 2 0 1 1 2 1 2 3 3 5 6 7 6 3 3 3 7 3 3 2 3 2 2
10 12 11 11 12 11 13 13 13 12 11 8 4 7 6 3 4 8 13 11 3 2 4 2 1 2 3 1 1 1 2 2 2 3 2 4 6 4 6 5 5 3 3 0 1 3 3

GFSGBSN_925_spd_051.txt.gz
Wind_Speed
18 21 23 22 22 24 27 27 23 24 24 24 24 25 24 22 21 21 20 20 21 21 21 21 20 18 11 4 8 9 10 11 29 24 22 9 6 5 7 7 1 4 2 4 4 6 3
19 21 22 22 25 25 25 27 25 24 25 25 25 24 23 21 19 20 19 19 18 19 19 19 18 17 7 9 12 13 15 16 27 22 21 14 8 6 4 4 10 3 6 7 4 4 3
21 21 23 26 23 24 27 29 26 25 25 24 25 22 22 20 19 19 18 17 17 18 18 17 17 13 7 15 3 5 7 19 23 23 9 16 9 7 4 3 5 1 3 2 5 3 5
21 22 25 26 26 26 27 27 26 25 24 24 23 21 19 19 18 19 16 16 20 21 19 15 13 7 4 16 12 4 7 17 18 21 17 21 12 4 3 1 3 6 3 3 3 6 5
22 24 23 26 27 28 26 26 26 25 24 23 22 19 20 20 19 19 17 20 22 22 18 12 9 7 3 5 9 14 6 8 12 11 12 13 9 2 3 5 3 2 4 4 5 6 4
22 23 23 26 25 25 27 26 25 25 24 23 21 21 20 20 20 18 18 26 24 14 8 7 8 5 4 5 9 10 9 7 4 10 5 5 5 5 4 4 8 5 5 3 5 2 3
22 24 25 25 26 25 25 25 27 25 25 24 21 21 22 20 19 17 18 15 5 2 2 3 4 4 4 3 13 7 9 7 4 3 5 4 2 8 13 7 3 5 3 3 3 1 3
21 23 26 26 28 27 25 25 26 25 26 23 23 23 21 18 16 15 9 0 4 4 3 2 8 4 4 8 6 6 15 6 6 4 6 4 3 10 4 3 1 3 1 3 5 0 2
22 23 26 25 29 28 25 25 26 26 26 25 25 23 20 18 17 10 4 6 4 3 2 4 5 5 5 5 4 7 10 3 5 4 3 4 3 9 8 2 4 1 3 3 3 3 3
21 24 24 25 29 29 25 26 27 27 27 25 26 26 23 19 9 3 7 6 7 1 2 2 4 4 5 6 4 6 11 4 3 5 5 3 3 13 8 6 5 4 3 2 2 3 2
22 24 24 27 27 28 27 28 27 28 28 29 29 31 28 17 4 3 4 1 8 1 4 4 4 6 4 1 12 2 1 1 5 6 5 2 4 7 4 5 4 3 4 4 3 4 2
21 24 24 27 27 27 28 28 30 30 32 32 34 24 10 2 2 3 1 11 4 2 3 5 5 8 6 4 3 4 3 4 4 6 6 3 1 3 3 4 3 8 5 6 4 2 2
20 22 23 24 27 27 29 29 30 32 32 34 25 15 10 4 2 10 6 3 4 3 1 4 8 10 8 13 6 4 3 4 4 5 3 3 3 2 4 7 5 5 6 3 4 3 4
20 21 24 27 25 25 28 30 31 32 35 23 13 15 19 12 6 17 8 2 6 3 2 1 11 13 6 6 8 7 6 3 3 5 4 3 0 3 1 4 5 1 5 4 4 1 3
19 21 23 25 27 26 28 29 31 33 31 9 17 15 19 14 10 10 2 3 2 2 2 8 12 7 4 5 4 5 0 4 3 1 5 4 1 1 2 3 5 3 2 3 5 3 2
17 20 22 23 25 25 27 29 32 32 28 10 4 4 9 10 4 6 2 5 2 5 10 5 4 2 6 3 4 4 4 2 3 2 1 4 4 2 3 4 5 3 7 3 3 2 3
16 19 21 23 23 25 26 29 31 32 30 14 4 3 6 7 5 4 2 5 4 8 8 5 3 5 5 5 4 2 5 1 3 4 2 4 3 2 4 2 5 2 1 5 4 3 3
15 18 20 21 23 24 25 28 30 30 29 9 3 3 6 10 3 1 2 4 8 4 4 4 5 6 4 4 3 3 6 2 6 6 4 1 4 3 2 2 3 3 5 5 3 3 1
14 16 18 20 21 23 25 27 29 29 23 7 2 2 4 4 3 3 2 3 2 3 3 1 3 2 2 5 5 3 3 3 7 5 6 3 2 3 4 5 3 2 4 4 4 3 5
13 15 17 18 20 22 24 27 29 30 19 5 2 3 3 1 1 2 2 3 3 3 2 3 4 5 5 3 5 4 3 4 3 5 7 6 3 4 5 4 3 2 4 6 6 3 4
11 13 15 17 18 21 23 25 27 30 15 3 3 1 1 3 3 3 3 2 4 5 3 6 4 4 5 3 3 3 2 2 5 4 4 4 2 0 4 5 2 4 4 7 8 10 6
10 11 12 15 17 19 21 23 25 29 10 4 2 2 2 2 5 6 3 6 5 4 4 4 5 8 7 3 0 5 5 2 2 3 3 3 3 3 4 4 7 5 8 9 10 9 11
10 11 10 13 15 17 18 21 22 24 16 6 5 4 3 4 4 3 4 3 4 2 7 7 5 4 9 5 1 2 3 5 5 6 3 4 4 2 4 4 3 5 9 12 5 5 9
11 10 10 11 13 14 16 17 19 19 20 7 3 2 2 3 1 2 5 4 4 2 5 3 4 3 0 2 0 6 8 7 6 2 3 4 4 3 3 3 1 6 4 6 13 10 12
10 10 11 9 11 13 14 15 16 16 16 18 5 3 2 2 3 4 4 2 3 4 4 4 4 0 2 3 3 3 3 3 2 1 2 3 4 1 1 2 6 2 3 5 5 6 5
10 10 10 9 9 10 13 13 13 14 15 15 5 6 1 2 4 5 2 2 2 1 2 3 1 1 4 2 2 2 4 3 2 1 3 4 5 2 1 1 3 2 3 1 4 3 5
11 11 11 10 9 10 10 12 12 11 11 12 6 8 3 2 3 1 3 3 4 2 2 1 3 2 2 2 1 2 2 5 5 6 4 3 2 6 3 3 6 7 3 3 2 4 2
11 11 11 10 10 11 10 11 11 11 9 9 9 4 3 2 5 3 3 3 1 2 3 4 2 1 1 1 2 2 2 2 2 4 5 6 5 3 4 3 6 4 2 2 3 3 2
10 11 12 12 10 11 11 12 12 11 9 6 4 4 10 4 4 6 15 16 6 3 2 1 2 2 3 2 1 1 1 1 2 3 1 4 6 4 7 5 5 2 2 2 3 4 2

GFSGBSN_925_spd_054.txt.gz
Wind_Speed
18 22 21 22 25 25 23 26 27 26 24 24 24 22 22 21 20 20 20 17 18 19 19 19 17 17 15 5 8 6 0 1 27 25 23 11 11 6 10 7 4 5 2 5 5 4 2
20 22 22 24 26 25 26 27 25 26 25 22 22 20 20 20 19 18 18 18 18 17 16 17 14 14 9 9 8 18 17 6 27 26 22 14 7 5 5 5 7 6 8 6 4 4 3
21 21 23 23 26 25 26 26 26 25 25 23 22 20 19 18 18 18 18 18 17 17 17 16 14 12 7 10 6 6 11 13 32 26 16 18 10 6 6 3 6 4 4 3 6 4 5
21 23 24 24 26 26 26 25 25 25 25 24 21 19 18 19 19 18 19 18 19 20 17 16 12 7 6 7 13 14 7 15 22 19 17 19 12 5 3 3 4 6 3 1 3 8 5
21 23 25 26 26 26 27 25 24 25 24 23 23 21 19 18 19 19 19 18 22 25 22 14 6 4 4 2 9 21 9 15 19 16 16 19 10 4 2 6 3 2 4 4 5 7 4
22 23 24 26 25 28 29 25 24 25 24 25 23 20 21 20 19 18 17 19 22 7 3 5 5 4 5 3 4 7 7 20 5 9 9 8 6 5 3 5 7 8 5 3 6 1 2
21 24 25 27 26 28 30 26 25 25 26 25 24 22 21 19 16 15 14 8 5 3 1 4 6 3 3 3 5 5 6 8 5 5 8 8 7 10 16 6 4 6 4 3 2 1 2
22 24 27 26 27 30 29 27 27 26 27 27 25 23 23 20 17 15 7 1 4 1 3 5 6 4 3 5 7 3 12 4 4 5 6 6 5 4 11 9 5 5 5 2 2 1 1
22 24 26 26 29 31 29 28 29 29 28 28 28 28 26 19 17 10 5 4 3 3 2 3 3 6 2 1 5 4 7 2 2 2 4 5 9 11 11 9 8 3 3 2 3 3 2
22 23 25 26 27 27 28 30 29 30 31 31 31 30 27 23 5 5 4 1 6 2 4 5 1 3 2 5 5 3 5 4 2 5 5 4 5 14 11 6 3 2 5 2 3 2 2
21 22 24 26 25 28 28 30 32 32 34 34 32 25 16 4 10 4 3 0 9 0 4 1 1 3 5 3 11 1 4 1 5 4 4 2 7 8 10 6 11 3 5 5 3 4 2
20 22 24 26 29 27 28 30 32 34 36 31 19 19 9 6 6 6 4 13 4 3 4 3 1 3 9 2 4 4 3 3 2 7 9 4 3 3 2 5 2 9 5 6 4 3 1
20 21 23 26 27 28 27 30 32 34 36 22 17 15 9 7 2 8 10 2 3 4 2 2 3 7 9 7 5 4 2 4 4 4 4 5 3 2 4 7 5 4 5 2 3 3 4
19 21 23 25 26 27 27 29 32 31 32 18 13 18 18 12 7 6 3 3 5 2 1 3 8 12 5 5 7 3 5 4 4 4 3 4 0 2 1 3 6 2 5 4 4 1 3
19 21 22 24 25 26 26 27 30 30 27 20 12 11 13 15 4 2 2 4 3 2 2 7 10 7 4 4 4 4 4 3 1 1 4 4 3 1 3 3 3 3 2 3 6 3 3
16 19 20 22 24 25 25 27 29 31 27 16 10 7 5 11 9 3 3 5 5 1 4 5 4 1 3 3 4 4 3 1 3 2 1 2 4 2 3 3 7 3 7 3 3 2 2
16 18 20 21 22 24 26 27 29 31 28 14 4 3 6 13 7 4 3 4 3 5 5 4 3 4 5 4 4 2 4 2 1 2 5 3 3 2 4 1 6 2 1 5 4 3 3
16 17 19 20 21 23 25 26 28 31 29 10 3 3 13 16 4 2 3 4 5 4 3 4 4 5 3 3 3 2 3 3 4 5 4 1 4 3 2 2 2 2 5 4 4 3 1
14 15 17 18 20 23 24 25 26 28 23 6 2 2 5 6 3 3 2 3 2 3 4 3 3 2 2 4 4 3 3 1 6 4 5 5 2 3 1 3 4 3 3 4 5 3 4
13 14 16 17 19 21 23 25 25 27 19 4 3 4 4 3 1 1 4 5 5 1 3 3 4 4 4 4 4 4 2 4 5 5 6 5 3 3 5 3 3 2 4 5 5 3 3
13 13 15 16 17 20 22 24 26 27 13 2 3 1 0 3 3 5 3 2 3 4 4 5 4 3 4 3 3 3 2 2 5 5 4 3 3 3 2 4 3 4 4 7 6 5 6
12 12 14 13 15 17 21 22 24 27 11 5 2 2 2 3 5 5 6 5 3 2 4 3 6 6 6 4 2 6 5 2 3 2 3 2 3 2 3 2 5 4 7 8 9 6 10
11 12 12 12 13 14 17 19 21 23 14 6 6 1 1 3 4 2 2 4 5 1 6 6 4 5 9 5 2 1 1 4 5 6 3 3 4 2 3 4 5 5 8 12 6 6 11
10 12 12 12 11 12 13 15 17 18 17 5 4 3 2 3 2 2 5 3 6 5 4 4 5 4 2 2 1 5 8 7 7 5 2 4 4 2 2 4 1 5 2 5 13 8 14
10 11 12 12 10 10 10 12 13 14 14 12 4 4 2 3 1 4 6 1 2 5 4 3 3 1 0 3 3 3 2 3 4 5 3 3 4 2 1 3 6 2 3 6 6 4 8
10 11 13 12 12 9 10 10 11 11 12 13 3 7 2 2 4 1 2 2 2 1 2 1 2 1 3 2 2 2 3 2 1 2 4 5 5 3 3 2 4 3 2 1 3 3 3
10 12 13 11 11 9 11 8 10 11 10 12 4 9 3 2 3 2 3 2 2 2 2 1 2 2 3 2 1 2 2 5 5 5 4 3 2 6 3 2 6 8 5 2 3 4 2
11 12 12 11 12 9 10 9 9 8 8 8 8 3 4 2 5 3 3 3 2 1 4 3 3 2 1 2 2 2 2 2 2 4 5 7 5 3 3 3 7 4 2 2 3 1 2
11 12 12 12 13 11 10 10 10 7 8 6 4 5 9 3 4 8 18 19 9 1 1 2 2 2 3 2 1 1 1 1 2 2 1 4 5 4 7 5 4 3 3 2 3 4 2

GFSGBSN_925_spd_057.txt.gz
Wind_Speed
19 21 22 24 24 24 25 25 23 23 24 25 24 21 19 18 18 17 16 15 16 17 16 15 15 13 10 8 9 6 3 3 29 28 24 13 12 9 12 9 4 3 2 4 3 3 2
20 22 24 23 24 26 27 27 24 23 24 24 23 21 19 18 17 17 17 15 16 15 14 14 14 12 6 10 5 26 9 10 26 26 24 17 11 5 7 7 7 6 6 2 2 1 1
21 22 23 26 24 27 27 28 26 23 23 24 23 20 19 18 17 18 17 17 18 16 15 15 14 9 6 12 5 13 13 7 26 28 17 20 13 6 6 5 5 5 3 3 8 4 3
22 23 24 25 27 27 28 29 28 24 25 23 23 21 20 18 17 17 17 18 19 18 18 16 10 8 6 8 11 5 2 8 23 28 23 19 8 6 4 5 4 5 1 3 2 8 5
22 23 25 26 27 27 31 30 28 26 26 25 24 22 17 19 19 18 18 18 20 20 20 15 3 6 4 1 4 10 8 6 24 24 21 23 6 3 3 6 4 4 4 7 3 7 3
22 23 25 26 27 29 32 32 27 29 27 25 26 24 22 19 17 15 15 17 18 7 3 6 2 3 3 3 3 5 6 10 12 15 9 12 6 4 3 6 9 7 4 3 9 3 2
21 23 24 27 28 30 29 30 30 29 30 28 26 26 24 22 18 12 14 7 4 2 0 2 4 5 5 5 6 1 4 15 9 13 10 12 7 15 14 6 3 9 5 4 2 2 2
21 23 24 26 28 27 30 31 33 33 32 32 30 29 28 25 15 9 8 2 3 0 1 5 6 6 6 3 5 5 6 8 8 13 10 8 13 9 12 7 5 6 6 4 1 2 2
20 23 24 26 29 30 28 30 32 32 35 36 33 28 25 21 7 4 4 2 2 2 0 3 2 2 1 0 6 7 6 5 3 7 11 6 3 9 13 10 9 2 5 3 3 1 2
20 22 25 27 29 29 29 29 31 32 36 32 26 26 17 12 8 4 1 1 3 2 3 5 3 3 3 5 3 4 5 3 4 8 12 1 2 11 10 12 9 4 2 4 4 2 1
20 20 23 27 29 29 28 30 30 31 34 29 29 24 15 14 7 2 3 3 8 1 5 3 2 5 3 3 5 5 7 4 6 10 4 3 10 11 7 3 6 1 3 4 3 4 2
19 21 23 25 28 28 28 29 30 28 29 27 28 25 15 9 9 5 4 7 2 5 5 2 2 7 1 5 4 4 5 4 5 9 10 2 3 6 3 11 5 10 5 6 4 2 0
17 20 22 24 27 27 27 28 29 28 26 24 21 24 22 13 4 6 1 3 4 6 2 3 2 6 2 6 6 4 2 4 3 4 3 5 5 3 5 9 2 1 3 2 2 1 3
17 18 21 23 25 27 27 27 29 29 28 19 16 14 16 14 6 5 7 4 9 1 1 4 6 11 6 6 7 4 2 3 5 4 3 4 3 3 1 3 6 2 2 4 4 3 1
15 17 21 23 25 26 27 27 28 29 29 19 13 6 5 8 8 5 3 5 3 2 1 5 6 7 5 6 5 4 3 1 3 4 4 4 3 2 5 2 2 3 2 2 6 2 1
14 16 19 22 24 26 27 27 28 29 29 18 8 4 5 13 12 3 1 6 3 3 2 4 4 1 4 2 3 2 1 2 3 3 0 2 5 2 1 3 8 2 6 2 2 2 3
13 15 17 20 23 25 27 28 28 30 30 13 3 3 4 17 4 4 3 3 3 3 3 3 3 4 3 4 2 2 1 2 1 2 4 3 3 1 3 1 5 2 1 4 3 1 3
11 13 16 19 21 24 26 28 28 30 28 12 2 3 13 15 4 2 3 4 5 4 3 3 4 4 3 4 3 2 3 3 3 4 3 1 4 3 2 1 1 1 4 4 3 3 2
11 12 14 17 19 22 25 27 28 29 22 5 2 2 5 4 4 4 5 4 2 5 4 3 2 2 1 3 4 2 3 2 4 3 5 4 2 3 1 1 3 3 3 3 4 3 4
10 12 12 15 18 20 23 25 27 28 19 3 2 3 4 4 1 3 5 4 5 2 3 3 3 4 3 4 5 3 2 4 2 2 8 6 3 3 4 3 3 3 4 4 5 3 3
10 12 12 14 16 19 21 24 27 26 14 3 3 1 0 3 3 3 1 3 3 5 5 6 4 2 3 3 2 2 2 2 5 4 4 3 3 1 1 1 3 3 4 7 6 5 6
10 11 12 13 13 16 19 21 24 27 12 5 2 2 1 3 4 3 5 2 5 4 4 3 5 3 2 4 3 6 5 3 3 2 3 2 3 2 3 0 5 4 7 9 9 4 9
9 10 12 12 11 13 16 18 20 23 14 7 5 2 0 3 2 1 1 3 1 2 3 4 2 4 7 4 2 1 0 3 6 6 3 4 5 2 2 3 3 5 10 14 5 5 9
8 10 11 12 13 11 12 14 16 17 17 4 3 3 1 2 1 2 2 1 3 1 5 1 3 3 2 3 2 4 7 7 7 4 2 5 4 2 1 3 1 4 3 8 13 6 12
7 9 11 11 10 10 10 10 12 13 13 11 4 3 2 3 1 5 3 2 1 4 3 2 2 1 1 3 3 3 2 3 3 5 3 1 4 2 1 2 6 1 2 5 6 2 8
9 9 10 11 10 11 9 9 8 10 10 12 4 6 2 2 3 2 3 2 3 2 2 1 1 1 3 3 3 3 3 2 2 2 5 4 4 3 1 2 3 3 1 2 3 1 2
10 11 11 11 10 11 9 10 7 7 7 9 2 7 2 2 3 2 3 3 2 2 3 1 2 1 1 2 2 2 2 5 4 4 4 2 1 3 3 2 6 7 6 1 2 3 2
11 11 12 11 11 12 11 10 9 8 6 4 4 0 2 2 7 4 2 3 3 1 3 3 3 1 1 3 3 2 2 3 2 3 5 7 6 4 3 3 6 4 1 3 1 1 2
13 12 12 12 11 12 13 12 10 9 7 7 4 4 4 3 4 9 16 18 10 7 1 1 3 4 4 3 1 2 2 2 2 2 1 4 5 4 7 5 4 2 3 2 2 5 3

GFSGBSN_925_spd_060.txt.gz
Wind_Speed
19 20 22 23 24 24 28 27 28 26 23 23 24 24 21 16 14 15 15 15 13 13 12 11 10 9 8 11 13 5 9 10 29 26 26 19 23 18 15 16 12 13 5 8 6 6 5
19 22 23 24 25 28 27 29 30 27 23 24 24 23 21 19 16 16 15 15 14 14 14 11 9 8 8 15 11 19 15 6 22 31 27 23 18 17 15 12 13 12 6 8 10 7 4
20 22 23 25 26 27 28 29 30 27 25 26 24 22 20 19 18 14 15 15 15 15 14 13 10 7 9 16 8 4 16 9 12 32 23 25 15 17 12 7 9 4 12 13 8 9 10
20 22 24 25 27 26 30 30 29 27 28 26 24 22 22 17 17 16 16 16 16 16 16 14 11 6 7 14 23 11 7 10 11 25 25 23 14 16 9 7 11 13 6 9 11 16 6
21 22 24 25 26 25 27 28 29 30 30 27 26 24 21 19 17 16 15 14 15 15 15 13 4 4 5 3 8 13 12 12 19 26 22 21 7 13 8 14 9 14 10 17 5 10 13
19 22 23 25 26 30 27 27 28 31 30 31 29 25 21 20 18 14 12 15 13 2 5 10 8 4 8 12 7 9 5 7 15 22 15 17 6 8 14 15 15 17 16 14 14 7 10
19 21 23 24 27 29 29 28 29 30 32 33 32 26 23 20 17 13 6 4 2 3 2 2 2 4 2 7 9 4 1 7 13 20 14 19 5 14 20 19 0 8 16 9 7 6 7
19 20 23 24 27 28 28 28 29 29 31 31 31 28 22 19 9 7 2 0 1 2 2 2 5 2 14 8 5 5 4 7 24 22 14 11 14 14 14 14 7 12 13 10 5 5 6
18 20 22 24 26 27 27 28 29 29 30 29 31 28 23 21 16 9 4 2 0 2 1 5 5 4 7 8 4 7 4 11 21 20 15 16 6 14 16 14 12 9 12 10 4 6 1
17 19 22 24 25 26 27 28 29 30 28 27 29 22 23 6 9 4 4 6 2 1 1 2 2 3 3 3 5 4 3 1 5 9 6 3 6 18 18 18 14 11 4 8 8 7 3
16 18 21 23 25 26 27 27 28 29 27 24 26 22 16 20 3 5 8 5 3 2 2 4 2 4 2 5 5 3 3 4 10 12 5 4 7 14 17 18 14 4 7 6 5 3 1
15 17 21 23 24 26 27 27 27 27 26 24 17 20 12 10 10 5 5 4 3 3 9 5 6 3 4 4 4 5 5 9 4 9 14 5 4 5 3 8 6 11 10 7 4 1 4
14 16 20 22 24 26 28 28 27 27 26 23 15 13 15 9 1 4 7 4 2 7 2 6 5 1 7 5 8 5 5 5 4 5 4 2 4 2 8 7 5 3 9 4 3 3 2
13 15 19 22 24 26 27 29 29 29 28 27 15 2 5 7 5 6 5 2 10 4 4 4 5 10 5 4 6 6 4 5 7 9 5 3 4 2 2 1 6 7 4 2 3 4 3
11 14 17 20 22 25 27 29 29 30 32 29 10 3 3 5 9 3 2 7 3 1 2 4 7 5 5 9 5 2 4 3 3 4 4 4 4 4 2 2 3 3 4 2 4 2 2
10 13 16 19 21 24 26 28 30 31 33 23 6 2 3 15 5 1 1 6 2 2 2 2 3 2 4 4 3 3 3 2 2 2 1 3 6 2 5 3 9 2 8 3 0 4 4
10 11 14 17 21 24 25 27 30 32 34 17 3 1 4 15 2 5 4 4 2 3 3 3 2 4 3 4 4 3 2 2 2 2 3 6 3 3 3 2 6 4 3 2 1 2 2
9 11 13 16 21 23 25 27 29 31 33 12 4 2 9 7 4 3 3 4 5 6 4 3 4 5 4 3 3 2 2 1 2 2 3 2 4 5 2 2 3 1 2 3 2 3 1
8 11 11 15 18 21 25 27 29 29 26 9 3 3 5 4 3 3 1 1 1 5 4 3 2 1 1 4 3 2 2 3 2 1 4 5 3 5 4 2 1 4 4 2 4 2 4
7 9 11 13 16 20 23 26 28 29 22 7 3 1 3 3 2 1 2 4 3 2 2 2 2 2 3 2 3 4 3 3 1 2 6 3 3 1 0 3 3 4 8 9 4 3 4
8 8 10 11 13 17 20 23 27 28 16 5 3 2 2 2 3 3 1 1 0 2 3 4 2 1 2 3 2 3 2 4 3 2 2 1 3 0 1 1 2 3 6 12 8 5 5
8 8 9 9 12 14 17 20 24 27 12 5 3 3 2 3 3 1 2 1 1 1 2 1 2 2 1 2 0 5 5 3 2 2 2 2 3 1 0 0 5 5 9 9 13 13 12
8 8 8 10 10 11 14 16 20 23 14 6 4 2 1 3 3 2 1 0 1 1 1 1 5 3 4 2 1 2 1 2 3 5 3 3 5 1 1 2 3 8 15 17 10 9 12
9 8 8 9 10 11 13 12 14 16 18 5 3 3 2 3 3 2 1 2 2 3 2 2 2 3 4 4 5 8 9 8 6 5 2 6 5 1 1 1 4 2 2 4 16 9 15
11 9 9 9 9 8 8 10 11 11 12 10 4 3 2 3 4 8 4 4 2 1 1 0 1 2 6 3 3 4 2 1 4 5 1 1 4 2 2 3 6 2 3 5 6 0 13
12 10 10 9 9 7 7 7 9 8 9 11 3 6 2 4 2 4 3 4 3 3 3 2 2 2 0 1 2 3 3 2 3 2 4 4 2 3 1 3 3 3 3 2 3 5 5
13 12 12 10 10 8 8 7 7 7 6 7 2 6 2 3 3 3 4 3 2 1 2 3 4 3 1 2 3 3 3 2 4 4 4 3 2 7 5 4 5 4 4 1 3 4 1
15 13 12 12 11 10 9 9 7 7 7 5 5 3 1 3 7 5 4 5 2 2 3 3 4 3 3 5 4 3 4 5 4 3 4 8 5 3 5 5 6 2 4 3 1 0 1
17 16 14 13 11 10 10 11 11 8 8 8 4 7 7 4 5 8 17 19 15 11 4 2 3 3 4 3 2 2 3 3 3 3 4 5 5 3 7 3 1 2 1 2 2 8 7

GFSGBSN_925_spd_063.txt.gz
Wind_Speed
19 20 22 23 25 26 26 28 28 28 27 25 26 24 21 20 17 16 14 13 13 13 12 9 8 7 6 12 16 7 5 15 27 28 27 18 23 22 18 18 16 16 10 12 5 7 9
19 21 22 23 26 26 27 28 30 30 27 30 26 23 21 20 18 17 13 12 13 12 12 9 9 6 9 18 13 15 15 4 25 31 28 26 20 22 13 12 17 13 13 11 10 10 7
19 21 22 24 25 27 29 28 27 28 30 30 26 23 21 19 16 15 13 14 13 12 12 10 8 8 13 16 5 1 6 15 6 27 23 29 23 18 9 10 10 2 17 7 14 13 7
18 20 23 24 26 27 29 28 29 29 30 30 31 30 24 17 14 12 12 12 11 12 12 11 9 8 7 12 23 21 14 14 12 25 27 24 22 11 8 7 12 13 11 15 16 12 12
18 20 22 24 26 27 28 28 29 30 29 31 30 27 23 19 15 12 9 10 10 11 11 9 7 9 9 4 20 14 16 15 12 25 21 21 10 10 14 13 11 14 13 17 13 22 10
18 20 22 23 25 28 27 28 28 31 31 30 31 28 22 17 16 10 8 8 8 1 3 7 2 6 6 10 13 10 13 11 11 19 20 13 9 10 12 14 13 19 21 19 18 11 20
17 20 22 25 26 27 27 27 29 30 31 30 31 27 23 19 8 3 0 2 3 3 5 3 3 8 8 3 9 10 3 3 10 16 14 18 7 17 26 23 18 16 17 12 14 9 11
16 19 22 24 25 26 25 26 27 29 30 29 30 23 20 20 20 12 4 2 5 4 3 2 7 7 11 1 3 8 6 13 11 20 17 10 12 13 18 18 12 9 16 13 3 9 9
16 18 20 23 24 26 26 25 26 28 29 28 27 22 15 14 14 12 11 5 4 5 2 4 6 6 4 8 5 5 1 3 11 23 18 13 4 12 16 15 13 12 14 16 6 7 10
15 17 20 22 23 26 27 26 26 27 28 28 25 23 17 2 2 6 7 9 4 4 2 8 5 4 4 7 6 6 7 2 6 22 17 7 3 13 9 17 14 12 7 9 8 11 6
14 16 19 22 24 26 28 27 28 27 27 27 23 19 12 9 2 5 5 6 3 2 4 7 6 7 4 5 5 7 5 9 11 10 5 3 5 16 16 15 15 3 9 10 8 8 1
13 16 19 22 23 25 26 28 27 27 27 27 25 14 12 5 4 1 2 4 4 3 9 5 6 5 4 0 3 1 4 9 9 9 13 4 4 6 2 9 6 10 12 8 4 2 4
12 15 18 21 22 25 26 28 28 27 26 28 24 10 8 6 6 4 5 2 2 6 2 6 3 2 4 4 4 6 9 6 5 4 2 2 3 6 1 11 5 4 13 4 4 4 4
11 14 17 19 23 24 26 27 29 30 30 29 19 8 7 6 8 7 4 3 9 6 6 3 3 10 4 2 6 5 9 8 10 9 3 2 3 3 3 3 4 7 3 3 5 7 7
10 13 16 19 21 23 26 29 32 32 34 32 10 2 5 7 8 5 4 7 3 1 4 2 3 6 4 7 4 2 10 5 5 2 1 4 3 2 2 2 8 4 4 2 2 2 2
9 11 14 18 21 24 27 29 31 34 36 26 7 3 3 8 2 5 4 5 2 2 5 4 3 4 2 4 2 2 4 2 3 2 7 4 6 6 5 4 4 1 6 3 2 3 5
8 11 14 16 20 23 26 29 32 34 37 16 6 2 3 7 1 4 3 4 1 3 3 4 3 1 3 3 1 3 3 2 1 2 1 5 3 5 5 4 6 3 2 2 3 3 3
6 10 13 15 19 23 25 27 31 33 36 13 5 2 6 4 2 3 2 2 3 4 1 1 1 3 3 1 4 2 3 4 2 1 2 4 5 4 3 2 4 6 6 8 3 5 1
6 8 11 14 17 20 23 26 29 30 27 11 6 3 3 3 2 3 2 3 1 4 4 2 1 2 2 3 1 1 2 2 3 3 2 4 4 4 2 2 3 5 8 6 1 3 3
5 8 10 12 15 17 22 25 28 28 22 7 4 3 3 2 2 1 1 0 2 2 1 1 2 2 5 4 1 3 3 2 1 3 4 2 2 3 3 4 3 4 10 10 5 2 4
6 7 9 11 13 15 19 24 27 29 17 5 3 3 2 2 2 3 2 2 4 2 2 2 3 4 5 4 3 2 2 6 4 3 2 2 3 1 1 1 2 4 7 13 8 8 4
7 7 7 9 12 13 17 21 23 27 12 3 3 3 4 5 4 5 2 1 4 1 3 3 5 5 5 3 1 3 5 4 3 5 3 1 2 1 2 2 6 8 10 9 13 14 14
7 7 6 8 11 11 13 17 19 23 14 6 6 2 2 4 4 3 1 1 1 2 2 4 1 4 5 1 1 2 2 1 0 3 7 4 4 1 1 1 5 9 16 16 10 8 14
9 9 7 8 9 11 11 12 15 18 17 5 4 5 3 3 4 4 5 6 7 5 4 1 4 5 3 5 6 6 6 5 4 3 3 4 4 1 2 2 3 2 3 3 17 9 14
11 11 10 8 8 9 9 9 12 11 13 9 6 5 3 4 5 10 9 6 8 5 6 4 1 3 7 3 4 5 3 3 3 2 3 3 4 2 3 4 9 6 4 4 7 5 16
12 12 12 10 9 8 7 7 8 6 8 7 3 6 4 5 0 5 7 6 6 7 5 3 3 5 2 3 3 4 4 3 4 4 2 3 2 3 2 3 3 4 4 2 4 3 4
15 14 13 12 11 9 9 8 8 7 5 5 3 4 4 5 5 4 4 4 4 4 4 4 5 5 2 4 3 2 3 2 5 5 6 5 4 8 6 4 6 5 7 1 3 4 4
17 16 15 14 12 10 10 10 8 9 6 5 6 4 4 4 10 8 8 8 6 5 3 3 4 4 5 5 3 3 5 5 4 4 6 8 6 4 5 4 7 4 4 4 4 3 3
21 20 17 16 14 11 11 10 12 11 11 7 7 6 6 7 7 15 20 22 20 16 5 4 2 1 7 5 4 2 3 1 6 3 8 5 6 3 7 4 3 2 2 3 1 4 7

GFSGBSN_925_spd_066.txt.gz
Wind_Speed
17 19 22 24 25 26 27 31 25 28 26 29 29 27 24 20 18 17 15 12 10 10 9 7 6 3 3 7 11 19 6 17 24 24 24 14 16 17 12 12 12 17 13 15 4 5 4
17 20 23 24 25 27 27 27 28 28 29 29 31 30 29 23 17 14 12 9 8 9 8 7 5 3 6 12 14 14 15 5 18 25 25 21 11 15 9 7 14 10 15 7 6 4 1
17 20 23 24 25 27 26 27 27 27 29 32 30 31 28 25 15 10 11 9 8 7 7 5 4 5 9 14 6 3 3 4 5 28 16 24 23 14 3 8 10 2 10 10 7 8 3
17 20 22 23 25 26 25 26 26 28 30 31 32 31 28 24 15 9 7 8 7 6 7 6 4 5 6 9 19 21 10 8 12 10 24 24 27 2 5 4 4 4 4 7 8 11 7
17 19 21 23 24 25 24 25 27 28 30 30 33 32 30 26 17 8 4 6 7 7 8 6 5 6 7 4 13 15 15 5 7 12 16 19 19 3 5 5 7 8 6 13 10 9 5
16 19 20 23 24 25 25 25 26 28 29 31 32 31 28 28 9 2 3 3 5 1 3 5 2 3 7 8 9 15 8 7 9 10 11 11 5 7 7 7 12 15 14 13 15 17 14
15 17 20 22 24 25 26 25 26 27 28 29 30 28 23 24 16 8 4 2 1 2 3 3 3 10 9 16 5 8 3 3 4 11 8 13 7 16 23 15 11 12 13 13 14 10 18
15 17 19 22 23 24 25 26 26 25 26 27 26 26 20 17 16 11 9 5 7 3 4 3 5 6 4 6 3 8 13 8 7 8 15 10 10 11 14 14 16 7 12 16 3 12 9
14 16 19 21 23 24 26 25 25 25 25 26 26 23 21 9 11 9 13 8 4 6 2 5 4 6 5 4 4 7 11 8 9 17 15 9 4 7 11 12 13 14 12 13 6 5 3
14 16 17 20 23 24 25 26 25 24 24 24 25 22 19 12 5 6 4 9 4 4 0 6 4 2 3 6 3 5 3 4 4 14 9 5 4 11 6 9 16 11 9 8 10 6 3
14 16 17 20 22 25 26 26 26 24 25 24 24 21 15 8 10 2 2 5 5 3 3 11 4 3 2 3 7 3 4 4 4 9 5 3 3 8 5 7 12 4 7 8 8 7 1
12 14 16 19 22 24 25 26 27 27 25 26 24 17 11 9 6 2 6 8 5 1 6 5 5 5 4 11 4 4 5 5 3 9 13 4 2 2 2 4 6 6 8 9 2 1 2
11 14 16 18 21 25 26 28 28 28 28 28 26 10 6 6 6 7 8 2 1 6 0 7 4 8 6 5 6 7 7 5 3 4 2 3 2 4 2 6 2 6 9 3 2 2 4
11 13 16 19 22 25 27 28 29 29 29 28 12 6 3 7 8 7 5 2 8 2 3 3 5 5 5 3 5 10 5 5 8 6 3 2 2 2 3 1 5 3 2 3 5 5 4
10 13 15 17 20 24 28 30 30 32 35 24 8 3 4 3 6 6 4 6 3 1 3 5 5 3 3 6 4 1 10 5 3 2 3 4 1 1 4 2 2 3 3 2 3 3 4
8 12 15 17 20 23 27 30 33 35 36 17 3 2 2 7 1 4 2 4 1 4 6 8 4 2 6 4 2 3 4 1 8 10 9 6 4 2 3 2 4 1 3 2 1 2 3
8 10 14 17 19 22 26 31 33 34 35 11 3 2 2 6 1 2 3 2 1 2 3 4 6 3 4 3 2 3 5 1 1 2 6 4 3 5 8 6 8 3 1 2 2 1 1
7 10 13 16 18 22 25 30 32 34 34 15 5 1 1 2 2 2 1 3 1 2 1 1 3 4 2 2 1 3 5 5 5 4 2 4 4 3 2 2 2 3 3 7 3 3 2
6 9 12 14 18 21 23 26 31 31 27 11 4 2 2 2 1 1 2 3 3 2 2 2 1 3 3 1 1 2 4 1 2 5 3 3 2 3 2 1 2 2 3 3 5 3 2
6 7 10 13 16 19 22 27 31 31 21 10 4 3 4 1 1 5 3 3 3 3 2 2 0 3 3 3 2 4 5 1 2 3 5 5 1 1 1 3 3 3 6 6 5 3 3
7 7 10 12 15 18 20 26 30 31 17 10 2 3 3 3 2 6 4 7 6 2 3 2 3 5 5 3 3 4 7 5 4 3 2 3 1 3 2 2 2 4 5 7 6 5 4
7 6 8 9 11 15 16 20 25 30 16 5 4 5 5 5 8 7 2 5 7 2 2 3 3 1 2 3 3 2 4 5 5 4 2 2 1 3 3 1 3 4 7 8 8 9 9
7 7 8 8 10 13 14 17 20 24 15 7 8 4 1 7 5 4 3 7 7 5 3 4 7 2 5 3 5 5 5 4 3 5 5 5 4 2 1 2 4 6 12 13 7 7 10
8 9 8 8 9 11 12 12 14 16 14 5 4 4 2 4 6 7 11 9 11 11 7 3 2 5 2 2 2 3 2 3 4 2 2 4 5 2 2 2 1 5 3 3 14 9 9
9 9 9 9 9 11 11 10 9 10 12 8 4 3 3 4 7 11 11 10 10 10 5 8 2 4 3 2 1 2 1 3 3 1 5 1 4 3 2 4 6 6 4 3 6 9 12
13 11 10 10 10 10 12 10 9 8 8 6 2 1 2 2 0 9 8 9 7 7 6 4 1 2 2 2 2 4 3 3 3 4 2 1 2 2 2 1 3 3 4 1 2 2 4
16 15 13 12 11 12 11 11 10 8 6 6 4 3 4 3 5 6 3 4 5 6 3 5 5 4 3 2 2 2 2 3 4 4 5 3 3 4 4 2 5 5 6 1 2 3 5
18 18 17 15 13 11 11 11 11 10 8 5 7 6 3 3 8 7 10 10 8 4 4 5 2 2 3 3 3 3 2 4 2 3 6 7 5 4 4 3 7 4 2 1 3 4 5
19 19 19 19 16 14 13 11 10 11 12 11 7 8 8 6 6 22 24 25 19 11 2 4 7 8 4 3 4 3 4 2 4 2 3 4 4 4 6 4 3 5 4 4 3 3 3

GFSGBSN_925_spd_069.txt.gz
Wind_Speed
17 18 20 22 23 23 24 24 24 24 26 27 28 29 28 25 23 13 11 10 4 4 4 4 2 2 3 2 9 13 15 11 22 25 25 9 8 7 6 5 6 8 2 13 10 4 3
16 19 20 22 22 23 24 24 24 26 26 28 28 30 27 25 20 8 6 6 6 6 4 3 2 1 2 4 10 10 4 6 18 21 26 15 8 7 6 6 8 8 12 9 3 5 1
16 18 20 21 23 23 24 24 25 25 26 28 29 30 28 26 19 7 3 4 5 3 2 2 1 2 3 9 5 8 9 1 2 11 13 16 11 10 8 2 5 4 13 7 3 5 2
15 17 19 22 23 23 24 24 24 24 25 27 28 29 28 27 12 5 2 2 4 3 3 2 1 2 4 9 10 11 6 2 4 1 11 22 16 3 2 2 4 5 5 4 4 7 3
14 17 19 21 23 23 24 24 24 24 24 26 27 27 26 26 16 6 2 3 4 3 3 1 3 2 5 12 4 10 6 7 1 2 8 14 5 2 3 6 3 4 4 6 4 8 5
14 16 18 22 22 23 24 26 25 25 24 24 25 25 21 22 18 10 5 4 4 5 7 6 1 1 3 5 11 4 4 5 2 0 4 7 5 4 4 6 13 8 4 4 7 8 7
14 15 18 21 23 23 24 25 25 25 24 23 22 20 15 16 16 13 9 3 4 4 4 2 2 3 6 9 5 10 6 6 3 2 7 7 5 15 15 10 2 9 8 5 7 7 7
13 15 17 20 22 23 24 25 26 25 24 23 20 17 16 11 11 11 10 5 5 3 5 5 3 2 5 4 2 5 5 5 5 9 7 7 10 6 8 10 9 4 3 8 3 7 14
12 14 16 19 22 24 25 26 26 25 24 23 22 18 13 10 5 5 12 6 2 4 2 3 1 2 3 3 3 4 5 0 1 5 12 3 5 11 10 9 9 4 7 4 5 2 2
11 14 16 19 22 24 25 25 26 26 26 25 23 20 12 10 2 8 4 8 4 3 2 7 6 3 2 2 2 5 3 2 4 9 7 3 1 9 7 8 4 4 6 10 11 5 4
10 13 15 18 21 24 25 26 27 27 26 27 25 21 8 3 3 3 2 5 8 3 4 13 4 3 1 1 3 4 5 2 8 6 4 2 5 6 5 4 3 6 6 7 3 6 3
10 12 15 18 21 24 26 27 28 29 29 28 28 19 5 2 3 1 4 5 1 5 6 7 7 4 4 5 2 3 2 5 3 9 9 4 3 4 2 3 3 8 3 8 4 3 1
9 12 15 17 20 24 27 28 30 31 32 34 22 7 2 2 1 3 2 2 4 6 2 7 3 5 7 4 5 3 3 4 4 5 3 5 3 3 2 3 5 4 6 2 1 0 5
8 11 14 16 19 24 26 29 30 33 37 37 11 2 1 3 3 2 2 3 9 2 4 5 4 5 1 3 4 3 5 3 5 5 4 4 2 2 0 1 4 9 3 5 6 4 4
7 10 13 16 18 23 26 30 32 36 40 27 9 3 5 2 6 4 1 7 4 4 4 5 5 3 2 2 6 3 2 2 2 2 5 4 3 1 4 2 7 5 5 4 3 2 3
7 10 13 15 18 22 26 30 32 37 38 19 10 4 4 3 5 4 4 5 2 5 4 4 3 1 2 3 3 4 2 5 2 5 3 4 5 2 3 1 2 3 4 2 2 2 4
6 8 11 14 17 21 24 30 33 36 37 19 4 3 1 4 3 4 3 3 3 4 1 2 4 2 2 1 1 3 2 0 6 5 6 5 3 3 3 4 6 4 3 3 0 4 4
5 7 10 12 16 20 23 30 33 33 36 17 5 2 4 1 4 2 2 4 1 3 4 3 3 3 3 2 3 3 4 1 5 2 6 2 4 3 2 8 8 4 4 3 3 4 1
5 6 9 11 15 19 23 29 32 31 26 11 4 2 4 4 3 3 4 3 3 2 2 3 2 3 2 1 2 3 4 2 3 2 3 3 2 3 2 4 2 5 6 7 1 2 4
5 5 7 9 12 16 20 26 30 29 20 8 3 4 4 4 1 2 4 4 2 2 2 1 2 2 3 1 1 3 2 2 2 2 2 1 3 5 6 4 4 5 5 6 5 3 2
4 3 6 8 11 15 18 23 28 29 17 5 3 1 2 4 4 6 4 3 5 4 3 3 3 5 4 3 3 4 2 1 2 3 2 3 3 2 1 3 3 4 4 7 6 5 6
3 3 5 7 9 12 16 20 24 27 15 7 2 3 4 3 7 5 4 3 3 4 1 5 2 8 5 0 1 3 5 5 5 4 3 2 3 3 3 3 3 4 7 8 8 6 6
3 3 5 5 6 9 12 15 19 23 16 7 5 4 3 4 5 4 3 8 10 8 4 4 3 4 4 2 1 1 0 1 5 7 4 4 4 3 3 3 2 6 13 14 6 6 12
7 4 5 5 4 7 8 10 13 17 15 6 5 3 3 4 2 1 7 7 7 11 9 6 5 2 2 4 4 3 2 3 4 3 4 5 5 3 3 1 1 6 4 7 18 10 8
9 7 6 5 5 6 8 9 9 11 11 8 4 3 1 3 3 7 8 5 8 8 7 8 5 4 0 2 1 2 1 1 4 1 3 3 4 2 3 3 6 2 4 5 7 9 11
11 10 10 6 6 5 6 6 7 7 6 5 2 2 1 2 3 3 5 4 4 4 4 5 1 0 3 1 2 4 4 5 4 3 0 2 3 4 2 2 5 3 2 1 3 3 2
11 12 13 9 7 6 7 6 6 6 4 4 1 2 1 2 4 2 2 3 5 3 3 4 5 3 2 2 3 3 4 5 5 5 4 2 2 4 4 3 6 5 3 3 2 3 2
13 14 13 12 9 8 8 8 7 6 4 4 3 6 5 3 6 6 5 4 4 3 2 3 5 2 2 4 4 4 4 5 3 4 6 7 6 4 4 4 7 5 3 4 3 2 4
14 14 14 12 11 12 12 10 8 7 8 5 6 7 11 7 6 26 25 29 18 15 3 3 3 1 3 3 3 2 3 2 5 3 3 3 6 4 7 5 4 5 3 3 3 4 3

GFSGBSN_925_spd_072.txt.gz
Wind_Speed
15 17 18 20 22 22 22 21 22 22 23 25 26 28 26 22 17 10 4 6 6 4 4 3 2 2 3 1 4 6 20 10 21 25 23 6 6 7 5 5 5 1 11 7 3 12 15
14 17 18 20 21 21 21 21 22 23 23 24 25 27 25 24 11 4 3 4 4 3 4 4 3 3 1 3 2 8 11 7 10 20 19 10 8 7 4 5 6 7 3 6 0 6 8
13 16 18 20 21 21 22 21 22 22 22 23 25 25 25 23 11 5 5 4 4 3 3 3 1 3 1 7 5 13 9 9 1 14 11 14 8 9 5 3 4 3 8 4 7 6 7
13 15 17 19 20 21 22 22 21 21 22 22 23 24 22 23 13 6 6 5 5 4 3 1 1 2 3 7 13 6 3 3 5 3 10 17 6 1 2 4 4 5 5 6 7 8 6
12 13 16 18 20 21 21 22 21 21 21 21 22 20 19 18 15 9 6 5 3 2 1 3 1 1 5 10 6 9 3 2 1 2 5 8 2 3 2 4 4 2 4 6 5 10 5
10 13 15 17 19 21 21 22 22 21 21 21 21 20 17 15 13 10 6 4 5 5 5 3 2 2 2 4 5 5 5 5 2 5 5 5 5 4 2 4 9 6 4 2 3 7 6
10 11 13 16 18 20 21 21 22 22 21 21 19 20 16 13 11 10 6 2 4 3 1 1 3 3 5 10 4 6 3 4 3 3 6 9 5 13 5 6 5 7 1 5 5 5 5
9 11 13 15 17 20 21 21 21 21 21 21 20 18 17 11 7 10 7 3 3 2 3 12 6 3 2 4 2 5 2 2 1 3 3 5 8 5 8 6 5 7 6 4 2 4 4
8 10 12 15 17 19 21 21 22 21 20 20 20 18 16 11 4 3 7 6 3 2 2 1 2 3 2 5 3 1 0 2 4 4 4 8 7 8 8 7 6 1 5 3 4 2 2
7 9 12 14 17 19 21 21 22 22 21 20 20 18 14 10 2 1 0 2 1 2 2 8 4 0 2 3 3 1 1 3 2 7 3 4 4 10 7 8 5 5 4 6 2 3 4
6 8 11 14 16 19 21 22 23 24 23 22 19 17 6 3 3 0 1 2 3 1 4 10 4 1 0 0 6 4 3 1 5 6 3 2 4 13 7 5 5 5 3 5 2 5 3
6 8 10 13 16 19 21 22 23 23 25 25 18 7 1 1 4 2 2 3 1 5 5 4 4 2 3 2 3 4 1 1 3 5 5 3 1 3 3 2 3 3 2 6 4 4 2
5 8 10 13 15 19 22 24 24 25 26 24 10 2 1 3 1 1 2 2 4 6 1 6 2 2 3 3 4 5 4 6 4 5 1 3 3 1 2 5 4 2 4 2 2 4 5
4 7 9 13 15 19 22 25 26 28 30 20 4 1 1 3 3 3 2 4 9 4 2 5 3 3 2 3 5 2 3 2 1 4 3 4 3 3 2 1 5 3 3 4 5 4 4
3 6 9 12 15 19 22 26 27 30 31 17 3 3 2 2 7 2 3 6 6 5 3 3 6 1 3 3 4 2 1 1 2 3 5 4 1 2 2 2 3 4 6 2 2 3 3
3 5 8 11 15 19 22 27 29 32 32 15 2 3 1 2 5 2 4 2 2 4 3 2 3 1 1 4 6 5 6 3 2 5 3 7 4 4 3 1 0 3 2 2 3 3 3
3 4 7 10 14 18 22 26 27 31 33 11 3 3 0 1 5 4 3 4 3 6 4 3 2 4 0 1 1 3 5 5 5 7 4 5 4 4 5 7 9 5 4 6 3 4 4
4 3 5 8 12 16 20 25 29 30 30 13 3 3 1 3 4 1 1 4 2 4 2 3 2 2 2 3 2 1 5 3 1 7 6 7 5 4 2 4 7 7 5 4 4 4 2
4 4 4 6 10 14 18 23 27 27 23 6 2 1 3 3 3 3 5 4 3 2 2 3 3 1 1 2 1 2 2 1 0 3 7 6 0 3 1 1 3 4 5 5 2 3 5
5 4 3 5 9 13 16 21 25 26 19 3 2 3 4 4 1 1 4 4 3 4 3 3 3 2 2 2 2 3 2 1 1 0 1 3 4 6 7 5 5 5 7 12 8 4 3
6 5 3 4 7 11 15 19 23 25 15 3 4 2 2 3 3 5 3 3 3 3 3 2 3 1 3 3 2 3 3 0 1 1 1 4 5 4 5 4 4 5 6 10 10 11 8
6 6 5 2 6 10 13 17 21 23 10 8 3 2 3 2 3 4 4 3 5 5 2 2 3 5 4 5 3 3 6 4 5 1 2 2 2 2 3 4 4 3 7 9 12 5 7
8 4 6 1 3 7 10 13 17 20 12 5 3 2 4 2 4 1 1 3 5 8 6 5 0 3 5 3 2 2 2 2 3 7 5 3 4 3 4 1 3 6 13 15 7 7 13
10 6 6 1 2 5 8 9 12 14 14 6 2 2 3 2 1 3 5 4 7 6 8 11 6 3 4 1 2 2 3 3 5 4 4 5 5 2 2 3 2 6 3 5 15 7 10
10 9 6 0 2 4 6 7 8 9 9 8 4 2 2 2 2 6 5 5 7 8 7 11 11 6 2 1 3 1 2 1 4 5 5 4 5 2 3 3 7 4 4 6 7 8 14
11 11 6 5 3 4 4 4 6 7 5 3 3 2 2 2 4 4 3 3 3 5 7 5 5 4 3 3 3 5 5 5 4 2 3 4 3 4 2 1 5 4 1 3 3 5 6
13 11 10 8 6 7 4 4 4 4 3 2 2 1 1 2 4 4 3 2 2 2 4 6 7 6 3 3 4 4 4 7 5 5 5 3 2 5 5 4 7 7 3 4 3 4 1
16 14 13 10 9 9 7 7 5 4 1 4 3 5 4 2 5 5 3 4 1 2 3 4 8 3 2 4 5 5 4 6 5 5 7 6 6 3 3 4 8 4 2 5 4 2 2
17 14 13 10 9 8 8 11 9 6 4 4 4 6 9 7 5 12 20 24 22 21 4 4 3 5 4 3 2 2 3 2 6 4 2 4 6 5 7 5 5 5 4 4 4 2 1

GFSGBSN_925_spd_075.txt.gz
Wind_Speed
10 13 15 16 17 17 18 17 18 18 20 21 23 24 25 24 14 8 6 5 5 4 3 3 2 2 4 1 3 6 18 8 9 18 15 4 4 4 4 4 4 1 6 10 9 5 4
10 12 14 15 16 16 17 18 18 18 19 20 22 22 23 20 14 8 7 7 7 3 4 3 3 3 3 2 3 3 14 3 7 21 15 8 6 4 5 5 7 6 2 12 13 10 7
9 11 13 15 17 17 17 18 17 18 18 19 19 19 19 18 12 8 8 7 7 3 2 3 2 3 2 4 2 3 4 12 6 11 6 14 4 3 3 5 3 2 5 6 11 11 5
8 10 13 15 16 17 17 18 18 17 17 17 17 16 16 16 13 8 7 6 5 4 2 2 2 1 3 4 6 3 2 5 12 5 11 10 6 3 2 2 5 4 3 5 9 10 4
7 9 11 14 16 17 17 18 18 17 17 16 16 15 14 13 12 10 8 4 3 5 4 1 2 1 3 5 7 7 2 5 3 4 8 8 4 3 1 5 3 4 5 6 7 12 7
6 9 11 13 15 17 18 18 18 17 16 15 14 14 12 12 11 11 5 2 4 3 2 3 4 2 4 4 5 4 5 7 1 5 7 7 4 4 2 3 12 4 2 4 5 9 9
6 8 10 12 14 16 18 18 18 17 16 15 14 12 12 9 9 11 2 1 4 3 5 3 7 2 4 11 3 4 5 3 2 3 2 1 3 13 6 4 4 6 2 4 2 4 5
5 7 9 12 13 16 17 18 18 18 18 16 14 12 12 7 6 8 3 5 1 1 2 9 6 2 1 5 2 4 5 2 1 3 3 1 7 6 8 7 5 6 6 2 2 2 3
4 6 9 11 13 15 17 18 18 18 19 17 16 12 10 5 2 2 6 4 3 2 1 2 4 3 2 4 3 2 4 1 5 4 2 4 7 10 7 4 5 3 4 3 2 2 2
4 6 8 11 13 15 17 19 19 20 20 20 17 13 8 4 3 1 2 4 2 2 2 6 1 1 1 1 3 1 4 2 4 2 6 1 6 11 8 5 4 3 2 2 2 2 3
5 6 8 10 13 15 18 20 21 22 21 23 19 12 3 0 3 3 2 2 0 2 5 7 2 1 4 2 5 4 6 1 5 6 2 3 9 11 8 5 6 5 1 6 4 1 2
6 6 8 10 13 15 18 21 22 22 23 22 17 5 2 3 3 3 1 2 3 5 3 3 3 1 3 3 2 3 2 3 4 4 2 3 2 3 3 3 2 2 5 6 4 3 2
6 6 7 10 13 15 18 21 23 24 24 21 6 1 2 4 2 4 2 3 4 6 1 4 2 0 0 3 4 1 1 3 4 2 2 3 2 1 2 5 4 3 6 2 1 1 5
6 7 7 10 13 16 18 22 23 25 27 19 2 3 2 2 6 4 3 4 8 3 3 4 2 2 2 2 2 5 6 3 4 4 2 3 4 4 0 2 5 3 6 4 5 4 4
7 6 6 9 12 16 20 22 24 26 29 15 4 4 2 0 7 4 3 6 5 5 3 4 5 3 2 1 3 1 1 4 5 5 4 4 1 2 1 1 2 4 3 4 5 3 3
7 6 6 8 11 15 19 23 25 28 28 7 4 2 3 3 7 3 4 2 1 4 2 1 2 2 2 3 1 2 3 4 3 6 2 5 4 2 4 1 1 1 4 2 2 1 4
8 6 5 7 10 13 17 22 26 28 27 2 2 3 5 3 2 3 3 4 4 5 4 2 2 3 3 4 5 5 5 2 5 6 3 5 3 3 4 6 7 4 4 2 1 4 5
9 7 5 5 8 11 15 20 25 27 23 4 2 3 6 1 3 1 1 4 2 3 3 3 2 3 3 1 3 6 7 3 6 7 6 4 3 4 5 1 4 6 7 7 4 5 2
11 8 5 3 5 9 14 19 25 27 20 3 2 1 2 2 2 3 5 4 3 3 3 1 2 2 1 3 2 4 4 4 5 6 6 5 1 3 1 3 4 7 9 8 2 1 6
12 9 5 2 4 8 12 18 23 26 17 4 3 2 4 4 1 1 4 4 3 3 4 3 3 2 1 2 3 3 3 4 4 6 7 9 4 5 6 3 4 5 10 17 12 4 3
14 11 7 1 2 7 12 17 22 24 14 4 4 0 2 2 3 4 3 3 3 3 3 2 2 3 1 2 2 3 3 1 3 6 5 5 5 4 5 6 5 5 7 16 21 18 8
15 12 8 3 2 8 11 15 19 23 12 8 2 3 3 2 2 3 2 1 3 4 3 3 4 5 2 5 5 4 5 3 5 2 6 1 2 3 3 4 6 5 7 10 17 15 14
15 13 10 4 3 6 9 13 18 21 13 7 4 2 3 2 2 1 2 1 4 7 6 6 6 6 4 6 4 2 4 3 3 7 6 6 5 3 4 3 2 6 15 14 7 9 11
17 13 11 7 4 5 7 10 14 16 16 9 5 3 3 3 1 3 0 2 6 5 5 10 12 5 5 3 3 3 3 5 5 6 4 6 6 3 2 2 2 7 3 7 16 16 13
19 15 11 7 5 5 5 7 10 11 10 12 5 3 2 3 2 5 2 5 7 6 5 8 11 6 6 1 3 3 1 2 5 7 7 5 5 3 3 3 7 6 2 5 6 6 15
20 17 13 9 6 3 1 3 5 6 6 6 6 5 4 2 3 1 3 2 3 4 6 5 6 12 4 3 4 6 5 5 4 2 2 3 2 4 3 2 5 4 3 4 3 5 4
21 18 14 11 9 5 3 2 1 3 3 3 2 2 4 1 3 2 3 2 3 2 3 5 6 7 4 4 4 4 5 6 5 7 5 3 2 7 5 3 7 7 5 4 2 5 4
22 19 17 13 10 11 6 4 3 1 1 0 0 3 2 2 4 3 3 3 3 1 2 5 7 1 3 4 2 3 3 6 4 5 7 6 7 4 3 4 8 5 3 5 5 3 3
23 21 17 16 14 10 8 8 6 5 4 5 3 5 7 4 6 14 22 24 22 16 5 4 4 4 2 3 5 3 3 2 6 4 1 3 6 5 7 6 4 4 5 3 3 2 2

GFSGBSN_925_spd_078.txt.gz
Wind_Speed
8 10 12 14 15 16 17 18 17 17 17 17 18 19 19 17 12 11 10 9 9 8 8 9 7 5 2 2 3 6 11 8 4 12 13 4 5 3 5 5 5 1 4 8 7 5 4
8 10 11 13 15 16 16 16 17 17 16 16 16 16 16 16 12 10 9 8 7 7 8 9 7 4 2 1 2 7 10 14 2 16 13 5 6 5 3 3 5 6 5 12 7 5 6
7 9 10 12 14 15 16 16 16 16 16 16 15 13 13 13 12 9 8 8 7 6 6 7 7 6 2 1 2 4 7 13 6 16 8 10 2 3 3 5 2 4 7 6 5 5 3
6 8 9 11 12 15 16 15 15 16 16 15 14 13 11 11 11 11 9 6 5 5 5 5 5 5 2 6 5 6 3 3 5 12 11 13 5 2 3 2 4 5 5 6 6 13 8
6 7 9 10 11 14 15 15 15 15 16 15 15 14 12 10 10 10 10 6 3 3 3 2 4 3 2 5 6 8 2 2 5 10 8 9 3 2 3 5 4 3 4 5 7 14 8
7 7 8 10 11 13 14 15 16 16 16 16 15 14 12 10 8 10 6 1 3 2 2 2 4 3 4 4 6 8 5 1 2 8 6 4 1 2 2 3 12 6 4 2 5 11 10
8 7 8 9 11 12 14 15 16 16 17 16 15 14 13 11 7 9 3 2 4 3 8 2 5 2 4 9 4 6 5 0 1 5 3 6 4 10 4 3 5 6 5 6 3 4 9
8 8 8 9 11 12 14 15 16 17 17 17 17 15 12 10 5 6 3 4 1 1 3 2 3 1 3 4 3 6 9 1 1 4 3 4 6 7 7 3 5 6 5 2 1 2 6
9 8 8 9 11 12 14 15 16 17 17 18 18 14 11 9 4 1 5 3 3 1 3 3 2 2 2 5 3 5 7 2 6 5 2 1 4 8 6 4 5 2 6 3 2 2 1
9 9 9 9 11 12 14 16 17 18 18 19 18 15 9 4 3 3 3 4 1 1 3 5 2 2 1 2 4 2 4 2 4 5 4 1 2 11 7 4 5 2 3 5 2 3 3
10 9 9 9 11 12 15 16 18 19 19 19 19 13 5 2 3 3 3 2 1 2 5 7 3 2 1 2 2 5 3 2 4 6 1 2 6 9 5 4 3 2 2 4 3 3 3
11 9 9 9 11 13 15 17 18 20 20 21 16 8 1 3 3 4 4 3 2 5 2 3 2 1 2 2 3 2 3 3 3 3 1 2 1 3 3 3 3 4 5 6 4 2 2
11 9 8 9 10 12 15 17 19 20 21 20 7 0 3 5 2 4 4 3 4 6 1 2 2 2 0 3 3 2 1 3 3 4 0 4 3 1 2 6 3 4 3 1 2 1 5
12 10 7 8 9 12 15 18 20 21 22 15 0 3 3 2 6 5 2 4 7 3 2 2 2 1 3 1 3 3 3 4 2 5 3 3 4 4 1 2 5 4 6 4 5 4 4
12 11 9 8 8 11 14 18 20 22 22 6 6 4 3 1 6 3 3 5 5 5 3 2 2 2 2 1 3 2 3 2 5 5 5 3 2 2 1 2 1 4 3 4 4 2 3
12 11 10 7 7 10 13 17 21 22 18 3 5 2 3 4 6 1 4 1 0 3 3 1 1 2 3 4 3 2 2 3 3 5 3 4 4 1 2 1 3 1 5 2 2 2 4
13 12 10 6 6 8 12 16 21 22 15 5 4 3 5 2 3 3 3 4 4 5 4 2 2 2 1 4 5 5 6 3 3 5 5 5 3 2 6 5 6 3 3 1 3 4 4
14 13 10 6 6 6 10 15 19 20 12 3 4 2 5 1 3 2 1 3 3 3 2 3 1 3 3 3 5 4 7 5 9 8 6 6 4 4 4 1 2 4 3 5 3 4 1
16 13 10 6 5 5 8 13 18 18 11 4 3 1 2 1 3 3 5 4 2 2 3 3 4 6 4 4 3 6 5 4 8 9 8 6 1 3 1 1 0 5 6 8 3 2 7
17 13 10 5 3 3 7 11 17 16 9 3 3 2 4 4 1 2 4 4 5 3 4 4 4 2 3 4 6 3 4 4 7 7 7 5 3 5 7 5 5 6 9 13 12 7 8
18 16 12 6 2 2 6 10 15 15 6 2 3 1 3 2 2 2 1 2 4 4 3 3 3 4 4 3 4 5 4 2 2 5 4 5 5 5 5 4 4 6 9 14 19 18 12
21 17 13 8 4 1 4 10 14 15 4 6 4 4 0 2 1 2 1 1 2 5 4 5 4 9 3 4 5 4 4 4 6 3 7 3 2 2 3 2 6 5 8 12 19 21 22
24 20 16 10 6 2 3 9 12 14 4 5 3 2 3 1 1 2 2 2 2 3 6 5 5 9 8 6 8 9 6 2 4 8 7 7 5 3 4 3 4 6 15 16 8 8 19
25 22 19 13 9 5 5 8 11 13 12 8 4 3 3 2 2 4 0 1 4 4 5 9 11 6 6 9 14 7 5 6 4 5 6 5 6 3 2 2 3 7 2 5 13 15 14
27 23 20 15 11 7 5 8 10 12 13 15 6 3 2 2 0 3 1 3 6 6 4 6 10 4 6 5 1 5 3 3 5 6 7 6 4 3 3 3 6 9 2 5 7 6 11
29 25 22 17 13 9 6 7 8 9 9 12 10 6 4 3 2 1 1 1 3 3 5 4 6 11 4 3 4 4 5 5 5 1 3 3 2 5 3 4 5 5 2 4 3 5 2
32 27 23 19 15 11 8 6 7 7 7 6 5 5 5 2 3 2 2 3 2 1 3 4 6 6 2 3 4 5 4 5 6 8 5 4 3 7 5 4 6 8 6 4 2 5 2
32 28 25 20 17 13 10 8 6 5 6 4 3 3 4 1 4 6 5 5 3 3 3 3 5 1 3 3 2 3 4 3 2 6 7 8 7 4 3 4 7 6 4 6 5 3 2
32 29 26 20 16 14 12 10 7 6 5 3 3 4 4 2 5 12 21 24 21 16 5 2 2 4 2 2 4 4 4 2 2 3 2 4 6 5 7 6 3 6 5 4 3 3 3

GFSGBSN_925_spd_081.txt.gz
Wind_Speed
7 8 11 12 14 15 15 15 15 15 15 15 15 15 15 14 11 11 10 9 10 8 9 9 8 6 3 3 2 4 7 11 9 12 10 5 4 4 5 5 5 3 6 7 8 8 6
8 7 9 11 13 15 15 15 15 14 14 14 13 13 12 12 11 10 10 9 8 7 8 9 8 5 3 3 6 6 9 3 2 12 9 6 6 3 3 6 5 6 5 10 6 5 4
9 8 8 10 12 14 15 15 15 15 14 14 14 12 11 11 10 11 10 8 8 7 7 8 8 6 3 1 9 11 9 6 4 14 7 7 2 3 2 5 2 10 5 3 1 2 3
10 9 9 9 11 14 15 15 15 15 15 14 13 12 11 11 10 10 10 7 6 6 5 6 8 4 0 7 6 9 8 6 6 10 12 11 4 4 2 1 2 6 6 4 2 6 1
10 10 9 9 10 13 15 15 15 15 15 14 14 12 11 10 10 10 8 4 5 4 4 5 4 4 3 6 7 10 7 5 7 3 8 9 1 2 2 5 2 3 5 6 3 4 2
11 10 10 10 10 12 14 15 15 16 15 14 14 13 10 10 9 9 6 2 2 6 4 4 2 3 6 4 5 9 7 3 6 4 5 2 3 3 2 2 11 5 5 5 7 9 5
12 10 10 10 10 11 14 16 16 16 16 15 14 13 11 10 8 8 3 1 4 4 7 1 2 1 3 9 5 6 8 2 2 3 4 1 2 10 4 3 3 6 5 5 2 7 8
13 11 10 10 9 10 12 15 16 16 16 16 15 12 10 8 6 4 2 5 3 1 3 2 2 2 1 3 4 6 6 3 1 8 3 3 5 5 5 4 6 5 7 3 1 2 13
14 11 10 11 10 10 12 14 16 17 17 16 15 12 9 6 4 0 4 6 3 3 3 3 1 2 2 3 2 4 2 2 7 8 6 1 5 11 4 4 7 2 5 4 4 2 2
13 12 10 11 10 11 12 13 16 16 17 16 15 12 6 2 2 2 2 4 2 1 3 5 3 1 1 1 3 2 2 2 4 6 3 2 2 11 6 3 4 3 3 5 5 3 3
12 11 10 10 11 11 12 13 16 17 17 16 15 8 2 3 4 2 2 2 0 1 5 6 1 2 2 3 1 4 2 2 6 7 1 3 6 7 6 6 3 3 3 5 3 3 2
12 10 10 10 10 11 12 14 16 17 17 17 13 2 5 4 4 3 3 2 1 5 2 2 3 1 0 1 1 2 2 3 2 5 3 2 0 2 2 3 2 7 5 6 3 2 2
13 10 10 10 9 10 12 14 16 17 17 17 4 5 5 6 3 3 2 3 4 6 2 3 1 3 3 3 1 1 1 2 4 4 1 2 2 2 2 5 3 2 4 2 1 1 4
14 12 11 10 8 8 10 13 16 17 18 11 8 9 7 6 6 4 1 3 8 3 3 2 2 3 1 5 1 2 3 1 1 4 3 2 2 4 1 2 5 3 4 4 6 4 3
16 13 12 9 7 7 9 12 16 17 16 4 11 10 5 3 5 2 3 5 5 5 3 1 2 3 3 2 1 4 4 4 6 6 4 3 2 1 2 2 1 4 4 3 4 1 1
18 15 13 9 7 6 7 11 15 16 11 8 5 5 3 3 6 1 3 3 2 4 3 2 3 5 3 3 3 5 5 4 5 6 2 5 3 1 2 2 3 1 5 2 1 2 4
20 17 13 10 8 6 6 9 13 14 5 8 3 3 1 4 3 3 3 4 4 5 4 4 2 3 3 4 5 4 4 3 4 5 4 5 4 3 5 5 7 3 3 1 2 3 3
21 18 14 11 8 5 5 7 11 12 3 4 3 2 2 5 3 1 1 2 2 2 2 3 2 3 3 2 5 4 5 4 8 8 7 5 3 5 4 2 1 2 5 5 3 4 0
23 19 15 12 9 4 3 5 10 9 2 4 2 1 1 3 3 3 5 3 2 1 2 2 3 5 2 3 2 5 3 2 8 8 8 7 3 4 3 1 1 5 6 6 3 3 6
24 21 17 14 9 5 1 4 8 8 2 4 3 1 3 3 1 4 1 2 4 2 2 3 4 2 1 4 5 4 3 3 6 5 7 7 3 5 7 4 5 5 7 10 9 5 6
27 23 19 15 10 7 2 2 6 5 3 4 3 1 1 2 1 3 2 0 2 3 2 2 2 4 4 4 3 5 5 2 3 6 4 7 4 4 5 4 4 5 7 13 15 17 11
28 25 21 17 13 8 3 1 4 3 5 6 4 3 2 2 1 2 3 4 2 3 2 3 3 5 3 4 2 3 4 1 6 4 8 2 2 2 4 4 6 4 7 9 18 20 20
31 27 23 19 15 10 6 2 4 3 6 5 3 4 3 1 1 1 2 2 2 1 5 5 2 3 7 8 3 10 9 12 8 5 7 7 5 3 3 0 1 4 14 18 10 8 18
34 30 25 21 17 12 8 5 6 8 5 9 5 5 3 2 2 2 1 2 3 3 4 7 7 3 3 8 9 5 4 14 7 7 5 5 5 2 2 1 4 6 2 8 15 16 15
35 32 28 23 19 14 11 8 9 12 11 16 10 5 3 1 1 0 1 3 5 5 3 5 5 3 6 4 3 4 2 4 8 7 7 6 3 3 3 3 5 8 2 5 7 8 12
38 35 30 26 21 17 13 11 11 12 13 18 15 9 4 4 3 3 2 1 1 2 5 4 6 10 3 4 3 3 3 2 4 3 3 4 5 3 3 4 5 5 2 4 3 5 2
42 37 32 28 24 19 16 13 11 11 9 8 9 8 5 3 3 5 3 2 2 1 3 4 5 6 3 2 3 3 3 4 4 5 5 5 3 8 4 4 6 7 5 5 2 4 2
42 38 34 30 25 21 18 15 12 12 9 7 8 8 5 2 2 7 5 4 1 2 2 3 4 2 3 1 2 3 2 2 1 3 4 8 7 3 4 3 8 7 5 7 5 2 3
44 39 34 31 27 23 20 16 13 12 10 7 5 4 2 3 4 9 13 16 14 14 1 2 2 1 2 1 2 2 2 3 5 2 3 2 4 4 7 6 2 6 4 6 4 3 3

GFSGBSN_925_spd_084.txt.gz
Wind_Speed
10 9 10 11 11 13 14 14 15 15 14 14 13 12 12 11 10 9 10 9 8 8 9 10 10 7 3 2 6 5 9 8 8 5 8 10 14 11 11 11 13 12 14 8 7 7 6
10 10 10 11 12 12 14 14 14 14 14 14 13 12 11 10 9 9 9 9 8 7 8 9 10 6 3 6 6 5 8 5 6 8 9 6 8 4 12 10 16 13 14 12 10 7 4
10 9 10 10 11 12 13 14 14 14 14 14 14 12 11 10 9 9 9 9 7 7 6 8 9 4 6 7 8 8 7 2 7 8 8 4 1 6 8 11 5 14 11 10 7 8 4
11 10 9 10 10 12 12 13 14 14 13 14 14 13 11 9 10 9 9 8 6 6 5 7 8 2 3 7 7 10 10 3 5 9 3 6 2 0 3 3 6 12 13 11 9 8 4
11 11 10 10 10 11 12 13 14 14 14 14 14 13 12 10 10 8 7 4 5 6 4 7 4 4 3 7 7 11 9 3 3 5 4 4 4 1 5 11 9 11 12 17 7 8 5
14 11 11 10 10 10 11 13 14 14 13 13 13 13 12 9 8 7 6 2 4 7 3 3 3 2 6 6 6 8 6 6 7 9 7 5 2 5 8 11 12 10 11 15 12 11 9
16 12 11 10 10 10 11 13 14 14 14 14 13 13 11 9 6 5 3 1 2 2 9 5 3 3 4 8 4 8 5 5 3 5 3 4 3 11 16 10 1 11 10 12 8 7 8
18 15 11 10 9 10 11 12 14 14 14 14 13 12 9 7 3 2 3 1 2 2 6 3 2 2 2 3 2 6 2 4 2 7 11 2 4 8 6 8 7 10 11 9 5 6 8
19 17 12 10 9 9 11 11 13 14 14 13 12 11 7 4 1 3 4 4 2 1 2 4 2 2 2 4 4 4 2 8 7 8 9 3 3 6 8 8 10 9 14 9 3 5 11
20 17 15 11 10 9 11 11 11 13 14 13 12 9 4 1 3 4 3 4 1 1 2 6 3 2 2 2 3 2 1 2 3 7 4 1 1 13 11 11 11 11 5 7 8 11 6
21 18 16 13 10 8 10 10 10 11 13 12 11 5 1 3 6 2 4 2 1 2 2 4 2 1 2 2 1 2 0 3 8 9 4 2 5 15 13 11 8 3 5 9 4 7 3
23 18 17 15 11 8 8 8 10 10 12 12 8 2 5 5 4 5 6 3 2 2 4 1 1 1 1 1 2 1 1 2 7 6 6 1 1 8 7 3 3 10 8 7 4 5 8
25 20 19 16 11 8 7 8 9 10 11 10 5 7 4 6 3 7 5 1 2 4 1 2 1 3 1 2 2 3 4 6 3 4 2 1 3 3 3 10 7 9 12 4 5 6 7
26 23 20 17 13 9 6 6 8 10 10 4 11 9 5 6 8 7 2 2 4 1 3 1 2 4 2 4 2 3 4 6 5 2 4 5 6 8 6 8 7 14 13 4 6 5 3
29 25 21 18 14 10 6 5 6 8 6 12 13 8 3 4 6 3 2 3 2 3 1 2 3 2 3 4 2 5 10 9 5 7 3 5 2 2 2 3 3 8 6 1 1 1 3
32 28 24 19 16 11 7 4 5 6 1 16 8 4 2 4 4 2 1 2 1 2 2 2 2 3 1 5 4 2 7 5 5 10 3 4 4 4 3 2 1 4 8 4 2 4 5
35 31 25 21 17 13 8 4 4 4 6 16 4 2 1 5 2 2 2 1 2 4 5 4 2 3 5 4 7 7 5 4 9 10 5 7 3 5 5 6 6 4 5 4 3 4 3
39 33 26 22 19 14 9 6 3 1 11 13 4 2 2 4 1 1 1 2 1 3 4 5 4 5 6 3 6 8 8 8 10 10 8 7 2 5 9 2 6 11 12 14 6 6 4
40 33 28 24 19 14 11 7 4 2 14 8 3 2 1 2 1 0 0 2 3 3 4 4 4 7 3 4 5 9 7 3 13 15 13 9 5 5 4 3 3 7 13 13 14 2 8
41 34 30 25 20 16 13 9 5 3 11 9 3 2 2 1 1 0 1 2 2 2 4 4 4 4 5 9 9 7 4 1 10 10 5 11 6 7 7 3 6 9 16 18 13 7 12
41 37 32 27 22 18 14 10 6 5 12 7 2 1 1 1 2 1 1 1 1 2 3 3 3 4 4 6 9 12 10 10 4 5 7 6 6 8 6 3 5 5 13 17 17 17 15
43 37 31 27 23 20 15 11 7 8 14 4 3 3 1 3 1 1 1 2 2 2 3 4 6 6 6 8 12 5 1 3 4 5 10 7 4 5 2 6 7 8 11 12 19 23 23
43 38 33 29 26 22 16 11 8 11 14 4 3 2 1 2 3 2 1 2 2 0 5 7 6 5 12 14 9 11 6 5 5 5 5 8 6 5 3 5 3 6 15 18 14 14 18
44 39 37 32 28 22 17 11 8 10 15 6 5 5 2 3 4 3 2 3 5 6 9 7 10 7 2 12 14 15 16 16 12 11 8 3 7 4 2 5 6 1 3 8 13 19 17
47 43 40 34 30 24 19 14 11 11 11 9 11 4 3 3 2 3 4 4 6 5 5 5 5 4 10 9 5 5 4 5 10 13 12 12 5 3 4 7 6 12 5 6 7 9 14
49 43 42 37 32 27 22 19 17 16 16 19 15 9 3 5 6 4 3 2 2 3 5 1 5 8 3 2 3 2 3 5 0 2 3 6 8 6 3 4 6 1 4 6 5 5 4
51 46 42 38 34 30 26 23 20 16 13 8 10 10 4 3 4 5 3 2 3 1 3 4 5 4 4 2 2 2 2 2 3 4 4 3 3 8 6 5 5 6 6 8 5 1 4
53 48 44 41 37 32 29 26 21 19 16 8 14 10 4 2 3 7 5 4 3 3 2 2 3 2 2 1 2 3 3 3 3 0 2 6 5 4 6 4 10 7 7 6 2 2 2
54 49 45 42 37 34 30 27 23 18 16 11 8 10 7 4 3 5 7 5 6 6 2 2 2 1 1 1 1 2 2 3 3 2 2 4 3 2 6 4 2 10 4 8 3 1 2

GFSGBSN_925_spd_087.txt.gz
Wind_Speed
12 11 10 10 12 14 15 16 14 15 15 14 13 12 12 12 11 11 12 11 11 9 10 11 13 10 6 2 6 13 13 7 10 6 7 9 12 12 16 17 18 16 8 10 3 4 12
14 13 12 10 11 12 14 16 15 14 15 14 13 12 12 11 12 11 12 12 10 9 9 10 11 7 6 6 6 5 6 9 6 5 7 6 5 9 11 13 16 12 19 14 6 7 7
15 14 14 11 10 11 12 14 15 15 15 14 14 13 12 11 11 11 12 12 10 8 7 8 9 6 7 7 6 6 7 7 6 4 8 2 8 7 5 7 10 8 13 11 14 17 7
17 16 15 13 11 10 11 12 14 15 15 14 13 14 12 11 10 11 11 10 7 7 7 8 6 5 5 7 6 8 6 2 1 4 6 2 9 10 6 5 10 14 12 9 17 13 6
20 17 16 14 12 11 10 10 12 15 14 14 13 13 12 11 10 9 10 7 7 9 7 6 3 6 5 5 9 9 7 2 8 10 9 6 7 4 4 12 10 11 14 19 14 14 9
23 19 17 16 13 12 10 9 10 13 14 14 14 13 12 10 10 7 9 6 7 7 4 4 1 2 9 8 9 8 3 3 7 14 8 6 4 6 9 13 13 13 17 20 15 11 13
28 22 18 16 15 13 11 10 9 11 13 13 13 12 11 9 9 5 6 5 5 3 12 7 5 4 5 9 3 7 3 6 11 11 4 4 4 9 14 14 6 14 16 15 14 8 11
30 23 20 18 15 15 12 10 9 9 12 13 13 11 9 7 5 3 3 3 4 4 6 5 4 3 5 5 5 7 5 2 7 8 11 1 7 6 12 10 5 9 12 8 5 7 8
35 25 22 19 16 15 13 10 10 9 10 11 11 10 7 5 2 1 1 3 2 3 1 3 4 5 4 6 4 6 6 2 8 6 7 3 2 3 7 9 10 9 12 12 7 11 11
34 27 24 21 18 15 13 11 10 8 9 11 10 8 4 2 2 2 1 2 2 2 1 6 3 3 0 3 3 2 4 3 0 5 7 2 7 7 10 13 11 10 8 5 6 5 9
32 29 26 23 19 15 13 11 10 9 9 10 9 6 3 7 3 1 3 2 1 2 1 3 3 1 1 2 3 4 1 3 8 6 4 3 7 14 12 11 9 2 9 5 5 9 8
41 34 28 24 21 15 14 12 9 9 9 9 6 3 7 4 2 4 4 3 2 2 3 1 1 1 3 1 4 3 2 3 2 6 3 1 7 9 7 6 4 6 7 8 6 8 6
46 38 30 26 23 17 14 12 9 8 8 7 5 9 5 2 2 6 4 3 1 2 1 1 1 3 2 2 3 6 6 7 5 4 3 2 5 3 4 9 7 9 12 5 5 5 8
43 39 33 28 24 18 15 13 9 7 6 6 11 10 5 3 5 7 3 2 3 1 3 2 2 5 5 7 3 9 7 9 13 8 4 6 3 10 12 11 7 13 14 5 9 9 10
42 42 35 30 25 20 17 13 9 6 3 14 14 7 5 4 4 3 4 3 2 1 2 3 3 4 5 5 4 7 13 14 12 13 7 7 6 5 5 5 3 13 10 9 4 1 4
46 43 38 33 27 22 19 15 11 7 8 19 8 6 3 5 4 4 1 1 1 1 2 4 5 4 4 8 5 6 9 11 17 13 10 6 2 8 4 4 7 5 5 5 3 4 8
42 48 43 36 29 24 20 17 12 8 11 19 6 3 2 5 3 4 2 1 2 5 5 4 5 6 7 6 10 6 6 5 15 12 14 5 1 6 5 10 17 9 5 7 3 10 4
44 52 43 38 30 26 22 19 14 9 18 17 4 3 4 5 3 2 1 2 1 4 6 6 5 10 10 7 8 9 10 9 9 11 10 9 4 4 10 7 13 15 17 14 8 7 7
47 46 48 40 32 28 24 21 17 13 25 9 4 3 2 4 2 2 3 2 4 5 6 3 5 8 5 8 7 10 13 10 7 11 9 11 5 4 5 4 7 8 12 16 16 10 7
47 54 49 40 34 30 27 23 19 16 25 4 4 3 2 3 2 3 1 3 3 4 7 7 10 9 10 12 13 9 10 5 5 11 13 7 8 11 9 3 9 11 17 19 15 6 12
46 52 48 40 36 32 29 25 20 17 24 9 3 2 1 3 4 3 2 1 4 3 5 4 6 8 9 10 12 16 15 16 10 6 6 3 6 10 12 6 6 7 14 20 18 17 13
48 49 51 42 37 34 30 26 22 19 26 5 4 4 2 2 2 4 3 5 4 3 3 5 8 11 8 12 14 18 9 6 5 4 2 5 3 6 5 7 9 8 8 14 19 18 20
54 55 47 41 38 36 32 28 24 23 27 5 3 1 2 3 3 3 2 2 1 0 2 4 6 8 13 13 10 13 12 10 6 1 5 4 3 5 2 7 4 6 18 17 17 19 17
58 56 49 43 40 38 33 28 25 25 27 6 5 5 3 3 6 4 4 3 5 7 8 5 8 7 5 11 16 16 17 17 17 13 9 4 8 4 2 6 5 1 3 17 19 18 18
56 56 49 45 44 38 33 27 24 25 31 9 10 4 3 3 5 5 7 5 3 5 5 6 4 4 10 10 4 7 3 2 10 18 15 12 4 3 4 9 7 7 6 6 8 9 13
57 54 49 48 44 38 31 26 23 26 30 15 13 9 1 3 5 3 4 3 3 2 3 3 1 4 3 2 2 3 3 4 2 5 4 12 9 4 3 4 4 5 5 2 3 8 4
58 56 52 47 44 38 32 28 26 26 25 20 9 11 2 3 3 3 2 1 1 0 1 0 3 1 1 1 2 2 3 2 3 4 3 3 5 9 9 6 5 3 9 4 3 2 4
60 57 51 49 43 38 34 31 29 26 22 15 11 9 2 3 4 3 3 3 2 2 1 3 2 3 2 2 1 2 3 3 4 3 1 5 4 4 7 3 8 10 8 5 3 3 1
61 59 54 49 44 41 37 32 27 25 17 20 8 12 10 5 4 4 3 3 2 0 1 2 3 1 2 2 2 3 3 3 3 2 1 3 3 2 5 2 5 8 5 4 7 5 2

GFSGBSN_925_spd_090.txt.gz
Wind_Speed
18 15 13 13 12 13 11 10 12 14 13 14 15 15 14 14 13 14 14 13 13 13 14 15 16 15 11 4 6 6 12 4 1 13 15 10 8 6 10 9 10 9 7 8 8 7 6
21 17 15 13 12 12 12 10 11 12 13 13 14 15 15 14 13 13 14 13 13 12 13 14 15 14 9 8 9 7 7 5 8 12 12 6 5 8 5 14 15 12 9 13 7 4 5
24 19 17 14 13 12 12 11 10 12 12 13 13 14 14 14 13 13 13 13 12 11 12 12 13 10 8 7 10 9 5 4 7 4 6 6 10 6 11 4 14 15 12 12 11 16 4
28 24 19 16 15 13 12 12 10 10 11 12 14 14 14 13 13 13 13 12 10 11 11 9 8 9 3 6 7 13 11 6 1 7 6 8 9 5 5 4 3 13 11 3 6 6 2
27 28 23 18 17 14 12 11 11 10 10 11 12 13 13 12 12 12 12 10 7 9 7 6 6 5 3 6 11 11 10 4 13 10 13 6 4 4 4 1 3 6 4 9 5 10 4
28 28 29 20 18 16 14 12 12 10 9 11 11 12 12 11 11 11 11 7 6 9 5 6 6 1 8 8 8 9 5 3 7 6 6 8 6 5 1 4 8 10 14 13 11 11 10
29 28 30 23 20 17 15 13 12 10 9 11 11 12 11 9 10 8 9 5 4 3 11 5 5 5 7 10 3 6 6 7 7 5 4 4 2 5 8 11 5 7 9 11 14 14 12
32 28 31 27 21 18 15 14 13 11 9 9 10 10 9 7 7 4 4 2 3 2 2 4 1 5 3 4 4 6 10 0 6 6 8 4 4 8 9 9 8 3 9 11 11 10 12
33 30 33 30 22 20 16 15 14 11 9 9 9 9 7 4 1 2 3 5 2 3 3 2 2 3 2 5 4 5 3 3 4 5 4 4 0 8 8 7 7 7 11 6 5 7 4
33 31 36 31 23 21 17 15 14 11 10 9 8 7 4 2 1 1 2 2 2 2 2 5 1 3 1 1 3 1 3 1 2 5 5 4 4 6 5 7 7 6 2 7 5 3 3
32 31 33 30 25 23 20 15 14 11 10 8 7 5 4 4 2 1 4 2 1 1 1 4 2 1 2 2 5 3 1 3 4 5 2 1 4 5 8 7 6 2 6 7 3 5 6
41 30 31 36 30 26 22 17 14 12 10 8 6 4 8 3 1 4 4 4 1 1 1 2 2 1 4 3 4 4 3 3 4 5 2 1 5 4 5 9 2 5 1 3 3 1 1
45 34 32 38 35 28 22 19 14 12 9 8 5 11 7 1 1 7 5 3 1 2 1 3 2 1 4 2 4 7 8 6 4 4 4 1 3 2 2 2 2 6 5 2 1 2 5
45 38 34 38 40 28 23 20 15 12 8 7 11 11 7 1 6 7 4 2 3 1 4 4 1 5 4 4 4 7 5 9 12 8 4 5 4 8 8 5 4 6 6 3 4 4 4
45 44 34 39 40 26 25 22 17 12 8 12 16 8 5 6 6 4 3 3 2 3 5 3 2 5 4 6 3 4 11 12 11 14 5 6 5 4 2 6 2 6 5 4 2 6 1
42 43 36 37 40 30 29 24 20 14 11 22 10 6 6 8 6 5 0 1 3 3 3 2 4 6 6 7 4 5 5 7 16 15 8 1 3 6 4 2 3 2 2 2 1 2 3
50 42 40 33 44 33 31 27 22 17 15 22 5 3 6 9 6 4 2 1 2 5 5 4 5 5 7 7 9 4 5 9 8 9 10 7 5 3 5 7 7 5 2 4 1 4 2
48 43 42 38 41 36 33 30 25 20 21 20 3 2 9 10 3 2 2 3 1 4 6 5 4 8 9 10 10 8 8 9 5 11 8 6 3 5 8 5 8 8 9 6 3 4 3
38 35 39 40 39 37 35 33 28 25 34 13 3 3 6 6 2 2 3 3 3 5 6 4 5 6 5 6 5 7 6 5 2 3 4 8 5 1 5 2 5 7 9 13 7 5 4
22 31 38 45 41 41 39 36 32 28 33 15 3 3 3 3 3 2 4 5 3 6 5 5 7 7 8 10 10 8 9 8 9 5 13 2 3 7 12 5 5 5 12 15 10 5 6
32 25 35 54 39 45 42 39 34 29 33 10 2 2 4 4 5 4 2 1 4 4 5 2 4 10 6 4 9 13 13 12 7 15 4 6 4 6 13 7 5 3 9 16 18 14 10
23 27 26 49 40 47 44 41 36 31 35 5 3 3 1 3 4 5 5 6 4 2 2 4 6 6 5 6 9 12 9 7 4 6 6 6 2 4 10 3 3 4 11 12 19 18 17
22 17 25 53 53 50 47 42 38 35 37 8 5 4 2 3 4 4 3 2 2 3 1 2 3 5 8 5 6 9 7 7 2 2 4 2 4 6 1 7 4 4 13 15 11 14 15
26 22 21 54 56 50 49 43 40 37 37 7 7 4 3 3 3 4 3 3 1 3 4 2 5 4 4 7 10 10 11 12 11 8 7 1 2 1 3 7 4 4 3 19 16 13 14
26 26 32 55 54 52 48 44 40 35 41 11 6 2 3 3 4 3 5 3 3 4 3 1 3 4 6 5 3 5 1 2 4 11 12 8 1 3 3 4 2 2 2 5 8 8 9
25 23 24 50 54 49 46 42 38 34 40 24 7 3 2 5 1 6 5 3 2 2 4 4 3 3 4 2 1 2 2 3 2 1 6 12 7 4 3 2 1 3 1 3 4 3 4
16 30 36 52 51 47 42 39 35 31 34 22 7 6 0 4 2 3 3 3 3 2 1 3 2 2 3 1 1 2 3 3 3 3 3 3 3 7 5 3 5 6 6 2 1 2 3
17 28 37 52 45 46 41 36 32 31 31 24 7 7 3 3 3 4 2 4 3 0 0 3 2 2 2 1 1 1 2 4 3 2 2 5 4 4 4 3 4 3 3 2 1 2 2
21 23 47 48 43 40 34 31 32 30 32 20 6 13 12 7 3 10 14 11 10 8 2 2 1 2 3 1 1 1 2 1 5 3 2 2 2 3 3 1 3 4 3 5 5 2 3

GFSGBSN_925_spd_093.txt.gz
Wind_Speed
23 21 17 16 15 13 12 11 12 13 13 13 13 13 13 12 13 12 13 14 14 14 14 14 16 16 12 2 3 10 9 8 4 5 7 3 6 3 6 6 6 1 4 5 11 10 4
26 24 23 19 15 14 13 11 11 12 14 13 13 13 13 12 12 12 12 14 13 13 13 13 13 16 2 5 13 12 8 10 5 7 4 6 2 7 6 9 10 7 3 3 7 10 9
28 27 26 23 18 15 14 12 11 11 13 13 13 13 13 12 12 11 11 13 13 12 11 10 10 11 3 3 9 13 11 5 8 7 1 9 4 7 2 8 7 11 10 4 5 3 7
30 28 27 28 22 17 14 13 12 11 12 13 13 13 12 12 11 11 10 10 10 9 8 6 10 8 1 8 11 13 17 7 7 5 4 2 8 6 1 2 5 6 3 4 3 8 2
32 29 28 28 26 20 16 14 12 11 11 13 13 12 11 12 10 10 7 9 8 8 7 6 8 2 4 8 15 15 11 9 9 7 7 2 4 3 7 5 5 2 5 4 6 4 6
33 31 28 28 30 23 17 15 12 11 10 11 13 12 11 10 10 8 8 8 4 7 3 4 9 4 6 6 11 12 11 3 4 4 5 8 6 4 4 4 4 7 6 6 6 3 6
35 35 32 27 29 27 19 17 13 10 10 10 12 12 11 9 8 5 8 3 3 4 8 4 2 3 4 11 7 7 9 5 2 6 5 4 5 1 4 4 3 5 9 5 12 12 10
33 37 36 31 29 32 23 18 14 11 10 9 12 12 10 7 4 2 4 1 1 2 3 2 1 3 2 8 3 8 15 1 4 4 2 4 1 2 7 7 6 2 6 6 1 15 5
36 36 39 34 32 29 29 20 15 12 10 9 11 10 8 2 0 1 2 3 2 1 2 2 1 1 3 4 3 6 7 4 3 5 4 3 2 9 7 6 4 2 4 4 5 4 3
40 37 38 37 33 31 30 22 17 13 11 8 10 10 6 3 0 1 2 2 1 1 4 4 2 1 2 1 3 3 5 1 2 3 5 1 3 4 6 1 3 2 2 7 9 6 4
40 41 40 34 35 32 33 24 19 14 11 8 8 8 5 5 1 1 4 4 1 0 4 4 2 2 2 1 2 1 3 4 2 2 4 3 4 3 2 3 1 1 3 6 4 3 3
37 39 40 43 40 36 35 27 20 16 12 7 7 6 8 5 2 3 3 4 0 5 2 2 2 2 3 3 3 2 2 1 3 1 3 2 2 3 3 3 4 5 3 4 4 3 1
39 39 38 40 39 37 39 28 21 17 12 8 6 10 10 2 2 7 7 2 4 5 1 3 3 4 3 5 5 5 3 3 2 2 5 5 4 5 1 2 5 2 4 1 3 1 5
40 41 40 37 42 32 39 28 22 19 12 8 9 14 7 2 6 9 2 4 6 4 5 3 3 5 3 6 5 7 3 6 8 4 3 5 5 7 5 5 5 5 6 4 5 4 4
42 41 44 39 43 40 42 31 25 22 14 11 17 11 5 8 8 5 3 2 7 6 6 4 4 3 3 5 5 5 9 7 7 11 5 5 5 2 4 3 6 5 3 3 4 3 3
42 43 42 38 43 47 44 35 29 26 18 24 18 9 6 9 8 5 2 4 4 5 4 2 5 7 4 4 5 6 4 5 5 12 10 4 3 4 4 3 3 2 1 2 2 3 3
39 44 40 37 47 40 42 37 34 27 23 26 11 3 8 12 8 1 3 5 3 4 4 5 4 4 3 3 7 4 4 6 3 4 5 6 4 1 3 7 9 3 1 1 3 4 4
37 41 36 36 44 40 47 39 36 31 31 22 6 3 13 14 2 3 2 4 2 5 3 2 2 3 3 4 4 2 5 7 5 5 6 3 3 4 7 3 2 3 5 4 4 4 4
38 36 37 47 33 35 51 40 39 37 44 16 4 3 8 5 3 3 3 2 3 4 5 5 4 6 2 0 3 3 2 7 9 4 2 4 3 3 3 1 4 5 5 4 2 2 4
37 38 36 39 36 29 52 45 43 41 41 17 4 3 0 2 3 3 4 4 3 3 2 3 2 2 2 3 4 4 5 5 5 4 10 7 2 1 3 2 3 4 10 12 8 3 2
37 32 34 32 26 31 53 50 46 42 42 15 3 5 6 5 5 5 4 2 4 4 2 2 2 3 1 2 5 4 5 4 4 9 5 3 3 5 8 11 6 3 6 13 13 9 9
30 26 30 19 27 41 56 51 49 42 39 8 4 4 1 2 4 6 4 4 6 3 4 1 2 3 4 1 1 3 3 1 3 5 4 3 1 5 5 10 8 8 12 13 17 16 14
22 25 27 20 18 50 56 54 47 43 41 7 6 1 3 2 3 5 5 4 5 6 4 5 4 2 3 2 3 5 4 6 5 4 1 1 2 2 4 1 8 4 13 14 11 15 15
23 23 22 21 20 42 53 52 46 47 49 8 7 4 3 2 3 5 6 3 5 4 4 3 4 3 1 5 5 5 5 7 5 5 4 3 2 0 4 2 0 5 2 16 18 13 16
21 24 25 22 25 48 51 48 48 47 49 11 7 4 3 3 3 4 7 5 6 3 2 2 3 1 2 3 3 4 3 4 1 4 6 4 1 2 1 2 6 4 3 3 7 8 5
22 21 20 18 13 51 52 49 48 47 49 21 6 1 3 5 3 3 4 4 4 4 2 3 2 1 3 1 3 2 1 1 2 3 4 5 1 1 3 1 2 3 3 3 4 3 5
20 22 23 13 17 47 52 49 50 46 49 26 4 3 4 4 3 4 3 5 5 3 3 3 2 1 2 2 2 1 2 2 0 2 4 3 3 5 5 3 5 4 3 2 2 3 3
19 21 20 22 24 41 46 45 45 43 47 24 7 2 3 3 3 5 4 4 3 3 4 4 3 2 2 2 3 2 1 2 2 2 4 6 4 3 3 2 5 6 4 2 3 4 1
19 20 21 13 40 46 41 36 42 39 38 22 6 7 10 5 3 13 17 14 6 3 5 2 4 2 3 3 1 2 1 3 0 2 5 0 1 1 3 3 1 10 12 6 5 3 4

GFSGBSN_925_spd_096.txt.gz
Wind_Speed
26 27 27 26 25 19 15 13 13 11 11 11 11 13 13 14 13 12 11 11 13 13 14 13 14 17 8 4 4 16 13 11 6 8 8 5 6 5 3 5 7 5 3 8 9 13 10
28 27 27 26 30 24 18 15 14 13 11 10 10 12 13 13 12 12 12 11 13 13 12 11 11 11 4 5 13 14 14 9 2 2 5 2 5 6 4 6 12 5 8 11 12 10 9
26 27 28 26 26 28 24 18 16 13 11 11 8 10 13 12 12 12 12 11 10 9 8 8 9 10 3 3 14 14 14 9 3 10 7 5 4 4 5 4 7 11 4 9 9 7 6
26 28 28 27 28 26 28 21 19 15 12 11 9 9 10 12 12 11 9 8 8 8 6 6 9 3 3 8 14 14 12 8 5 11 13 7 6 3 2 3 4 6 6 4 2 5 3
30 28 28 30 27 27 28 25 19 16 13 11 10 8 10 12 11 11 7 7 8 9 7 4 2 2 5 12 12 13 10 5 5 6 4 8 3 2 3 6 5 2 3 4 3 3 2
31 32 30 30 29 28 26 28 20 19 15 11 11 9 9 11 10 9 6 7 5 8 3 1 2 3 7 6 12 13 11 4 3 2 2 5 4 2 4 4 5 6 4 2 4 4 4
30 32 33 31 30 28 29 26 26 18 16 12 10 9 8 8 8 6 5 1 3 4 6 3 2 4 3 12 5 9 12 4 3 6 5 5 5 2 1 1 2 6 9 8 5 11 8
31 32 33 34 34 35 32 25 27 19 18 13 10 10 7 3 4 3 2 1 2 1 3 2 3 1 4 4 3 7 12 3 6 4 3 6 1 4 6 4 2 2 6 5 3 8 4
29 32 34 34 33 32 31 31 25 22 18 14 11 10 4 4 2 2 1 3 3 0 3 1 1 1 3 3 2 5 7 4 4 3 3 5 2 5 4 4 2 3 5 5 3 7 2
29 29 34 32 33 32 35 35 25 22 19 16 12 9 5 8 2 2 2 4 3 1 4 4 2 2 1 1 2 2 2 1 2 2 1 1 2 3 4 2 2 1 2 7 9 8 4
31 32 31 36 34 33 31 35 30 25 19 19 13 9 9 10 4 3 2 4 2 1 3 3 2 1 1 1 2 1 1 2 2 2 4 2 2 4 1 2 3 2 2 4 4 4 4
33 33 32 32 34 35 31 32 31 25 21 20 14 10 14 9 4 3 4 6 3 5 4 1 3 3 2 2 2 0 1 1 2 1 2 1 1 3 3 3 3 3 5 7 6 3 1
34 34 34 32 37 33 35 34 34 27 21 21 15 14 15 10 3 8 9 4 4 4 2 3 4 4 4 5 3 3 2 1 2 3 2 4 3 2 3 1 3 2 3 3 2 3 3
35 36 36 33 34 35 36 34 30 28 20 20 14 18 13 7 9 11 5 4 3 4 6 3 4 3 3 5 5 5 2 3 6 4 2 3 5 8 6 6 6 5 8 3 5 3 4
36 35 36 35 33 34 32 30 30 27 24 20 18 16 13 11 11 10 4 2 7 6 6 7 3 3 2 4 3 4 5 4 6 10 6 4 5 2 3 3 7 4 3 4 4 3 3
36 35 36 36 34 34 35 29 31 32 29 23 20 10 9 14 12 5 3 6 3 4 4 3 6 5 5 4 5 6 5 4 4 10 6 3 3 3 4 3 1 3 5 3 2 5 4
34 34 35 35 35 35 31 30 33 36 31 31 9 3 10 14 12 3 3 6 4 4 3 4 5 3 4 3 6 3 4 3 4 2 7 4 2 1 2 6 8 3 2 2 3 3 4
32 33 33 34 36 36 32 32 40 40 34 29 8 3 15 17 3 2 3 5 2 4 2 1 2 2 3 1 2 3 5 4 6 2 4 3 3 6 10 0 3 4 6 7 4 5 2
31 31 32 34 34 36 33 33 29 43 48 19 4 3 9 2 4 4 4 2 4 4 4 4 4 5 3 3 1 4 1 2 7 3 2 4 3 3 2 3 2 5 5 4 5 3 6
29 27 30 33 34 33 34 29 41 47 47 20 4 4 2 2 0 3 4 4 4 3 4 4 3 3 3 4 4 3 1 4 3 4 5 6 3 4 1 3 3 4 6 9 7 4 4
26 25 32 33 39 32 38 26 54 53 53 12 3 4 6 6 7 6 4 7 5 5 3 5 2 2 3 1 2 2 2 4 4 9 3 1 4 2 8 10 7 5 6 11 11 8 8
24 32 35 27 24 28 17 29 56 55 51 5 4 4 2 4 4 11 5 7 7 4 5 3 5 4 3 4 6 4 2 2 1 4 2 3 2 1 5 3 10 14 10 7 11 10 15
27 32 25 23 21 28 19 34 54 53 40 6 3 2 3 3 4 6 5 6 7 9 4 4 7 4 3 3 3 4 4 2 4 3 1 1 1 2 4 5 5 8 15 14 9 9 14
23 24 22 22 25 20 13 42 58 54 48 6 6 4 4 3 2 5 6 3 5 3 6 3 4 4 3 1 2 2 2 4 4 4 3 2 1 0 3 2 3 4 4 12 14 10 13
20 20 20 23 23 13 16 52 55 54 52 8 9 3 3 3 3 4 7 6 7 5 3 3 1 2 2 1 3 3 3 3 3 2 5 2 2 2 1 2 5 3 1 4 6 5 7
21 19 21 19 22 15 10 52 53 51 39 13 12 9 4 5 1 3 4 4 4 3 3 2 2 1 3 2 2 3 2 3 1 2 4 3 1 1 2 3 3 1 8 5 3 3 5
21 18 21 22 18 17 28 53 51 51 39 11 7 8 6 4 4 3 2 5 5 4 4 2 2 2 3 2 2 2 1 1 2 2 4 2 2 3 3 3 5 7 11 6 1 4 6
22 18 18 18 16 17 42 52 53 50 39 15 11 9 5 3 4 5 5 4 3 3 4 4 3 2 2 2 3 2 2 2 1 2 4 5 4 3 3 2 5 9 5 5 6 8 6
22 20 18 19 17 18 36 45 49 43 40 19 8 18 18 6 3 11 17 14 6 2 5 2 3 2 3 3 1 2 1 1 3 2 3 2 3 1 5 3 3 2 2 5 7 6 7

GFSGBSN_925_spd_099.txt.gz
Wind_Speed
23 24 24 24 25 24 26 24 19 16 17 18 17 13 12 12 11 11 12 13 12 12 12 12 13 13 6 4 4 18 18 14 6 4 8 4 8 5 5 6 3 11 15 5 5 9 17
23 24 25 26 25 25 25 27 21 18 15 17 17 16 14 12 10 10 12 13 12 11 10 11 12 10 3 6 17 18 16 11 6 4 5 2 3 3 3 7 9 7 10 13 7 10 13
26 26 26 25 27 27 25 24 26 21 17 15 16 16 15 12 11 9 11 13 11 8 8 9 10 9 2 4 18 18 15 9 6 3 4 2 4 5 2 12 10 4 5 8 16 10 8
25 25 27 27 29 29 30 25 24 25 18 16 16 16 14 13 12 9 7 10 8 9 9 8 9 3 3 8 11 16 14 10 8 2 3 5 4 2 2 7 6 4 5 4 12 11 7
26 27 26 26 27 29 32 29 29 22 20 17 15 16 14 14 12 8 6 8 7 9 10 5 2 1 5 8 6 16 12 8 10 5 5 2 2 1 1 5 3 1 4 6 7 9 6
28 28 29 29 29 29 30 33 29 23 21 16 16 16 15 13 10 7 5 8 5 8 3 2 1 3 5 4 7 12 12 8 4 6 4 4 2 3 3 3 3 4 5 5 6 2 5
27 27 27 30 30 28 28 28 32 25 20 16 16 16 16 11 9 4 2 1 3 3 3 1 1 2 2 7 4 7 11 7 5 6 4 5 6 4 3 4 2 5 6 10 8 8 3
27 28 27 27 29 29 28 28 31 31 25 18 15 17 15 10 6 4 1 1 2 1 2 5 3 2 2 1 4 5 8 3 5 2 5 6 3 2 5 3 3 5 6 3 6 14 5
28 28 28 28 28 30 29 28 27 28 24 20 14 16 13 8 5 4 4 4 3 1 1 3 3 2 2 1 1 4 4 2 3 4 4 3 4 5 5 3 3 2 2 1 4 10 2
31 30 31 28 28 29 29 31 32 27 23 21 12 15 12 7 3 6 3 7 3 2 4 3 3 3 1 1 2 2 1 1 2 2 0 0 4 2 2 2 1 1 3 5 8 7 3
33 32 31 30 28 27 28 30 31 30 30 23 14 14 12 14 3 5 6 9 4 2 3 2 3 3 1 2 0 2 1 2 2 0 4 4 1 1 2 2 1 3 4 5 6 4 5
36 35 33 31 30 29 28 30 32 33 25 24 17 14 13 11 5 6 10 10 4 5 5 2 3 3 2 2 1 0 1 1 1 1 2 3 3 3 3 2 1 1 5 7 5 3 2
36 36 36 33 30 28 26 29 34 33 32 21 16 15 18 9 4 13 13 4 4 3 3 3 5 4 3 4 2 3 2 2 4 3 3 5 3 3 3 1 3 3 5 2 1 3 4
39 37 37 35 32 27 25 27 30 33 33 23 18 13 17 9 12 16 8 4 2 3 5 2 3 4 4 5 3 1 1 2 4 3 3 3 5 6 4 5 5 4 6 4 6 3 2
39 38 37 36 33 27 23 25 27 29 23 17 12 15 7 12 17 16 3 2 6 5 5 8 3 3 2 3 3 3 4 4 5 9 6 4 5 2 2 1 4 4 3 6 3 1 3
41 37 39 34 31 28 23 23 25 23 15 19 14 12 6 17 16 5 3 5 4 3 3 3 3 4 5 3 4 4 3 3 3 9 4 3 3 2 3 2 1 4 6 4 0 4 4
38 36 28 31 29 28 23 23 22 20 14 24 13 3 11 17 12 2 3 6 4 3 3 4 6 4 4 4 6 4 4 1 2 3 5 3 1 3 0 5 7 2 2 2 4 2 4
41 36 26 28 25 24 23 25 22 20 20 29 6 3 19 21 3 3 3 5 3 4 1 2 3 2 4 4 3 3 4 1 7 1 4 3 3 4 8 3 1 2 2 4 3 4 1
36 28 22 22 22 20 26 28 24 22 16 25 4 2 12 4 4 3 4 3 4 3 3 2 3 3 3 4 2 4 4 3 8 4 2 1 1 2 7 2 1 3 4 7 3 2 5
25 20 20 20 19 23 28 28 27 23 24 25 3 4 2 2 0 2 4 4 3 1 3 3 3 3 3 1 2 1 3 4 4 5 9 3 3 5 5 1 2 6 3 10 11 3 5
17 16 17 19 22 33 28 29 26 23 43 22 4 5 5 6 8 7 4 6 5 5 1 3 2 3 5 4 1 2 2 3 4 7 4 2 6 6 9 9 8 8 8 9 11 11 8
17 17 15 29 29 34 25 22 27 32 56 13 4 4 2 3 9 13 4 6 8 4 5 3 4 4 4 5 5 6 4 3 1 5 3 3 2 2 5 7 7 12 9 10 12 6 13
21 21 23 26 20 21 17 22 33 36 57 6 6 1 4 4 5 9 5 5 8 9 4 1 6 5 2 1 3 4 3 4 4 4 1 2 3 2 4 4 2 3 8 11 9 10 7
21 25 26 24 20 25 28 19 30 62 54 10 5 4 3 3 4 6 6 3 5 1 7 2 5 4 3 4 5 6 5 3 1 2 2 2 1 1 3 4 2 5 0 7 12 5 11
20 24 26 22 24 27 27 23 53 46 55 10 5 3 3 3 3 5 7 6 6 5 4 4 2 2 3 4 3 3 3 3 3 5 2 3 2 2 2 3 5 1 5 3 4 1 1
20 22 23 20 24 26 21 4 46 47 59 22 5 3 3 5 1 4 5 3 4 3 3 3 3 3 3 2 2 3 3 2 2 1 4 1 1 1 2 2 2 1 7 7 2 0 8
21 21 22 20 21 23 19 8 43 48 55 19 4 4 6 4 3 2 3 4 5 4 4 3 4 2 2 2 2 2 2 3 3 5 4 2 2 2 2 3 6 4 9 7 2 3 13
23 21 20 21 21 19 16 5 42 52 44 14 4 5 4 3 4 4 3 4 3 2 4 4 4 2 2 3 3 3 2 3 1 3 5 6 5 3 3 2 6 5 4 3 3 4 5
24 22 20 21 22 20 15 12 48 48 47 11 6 20 19 6 3 13 19 17 4 2 5 2 2 3 4 4 1 2 1 1 2 2 1 3 4 2 6 4 1 2 3 2 1 2 6

GFSGBSN_925_spd_102.txt.gz
Wind_Speed
22 25 25 27 26 29 30 30 26 23 22 18 16 14 11 14 16 16 15 14 12 11 14 14 16 18 10 3 4 15 18 10 8 5 8 4 2 2 4 4 7 4 5 14 15 13 4
23 24 25 25 26 26 28 31 36 24 22 21 18 15 12 14 15 16 15 14 12 10 13 13 15 17 4 1 9 15 15 8 5 2 3 3 3 4 8 4 5 5 12 17 14 8 11
21 22 24 26 26 27 29 30 33 34 26 25 18 15 14 14 14 15 15 14 12 8 9 13 13 15 4 6 10 12 11 9 5 4 1 3 7 3 7 3 10 5 5 14 9 11 7
23 24 24 26 27 28 31 32 33 34 28 26 18 14 13 14 16 17 15 14 10 8 9 12 12 6 5 5 8 9 10 3 6 3 7 4 3 2 4 14 6 5 5 6 12 17 4
23 25 25 24 27 29 30 28 30 31 33 27 20 12 15 13 16 17 16 11 11 8 8 8 5 2 7 12 4 8 7 5 7 3 4 7 2 2 3 6 6 4 2 3 9 12 6
23 24 24 25 26 27 28 28 31 32 33 30 23 13 14 12 15 15 16 11 9 8 3 4 4 3 4 4 7 11 7 2 1 4 3 3 4 3 3 5 3 5 2 5 5 7 10
25 26 24 23 25 27 27 29 28 30 30 26 24 14 11 10 13 12 13 5 2 2 1 3 4 4 5 11 7 6 5 1 1 5 4 5 6 4 4 1 2 2 4 4 4 5 7
27 26 25 24 25 25 27 28 27 31 33 33 34 18 8 11 10 9 10 3 2 2 3 5 4 5 7 5 4 5 11 4 4 3 3 6 3 1 5 4 2 3 5 4 8 12 7
27 26 26 27 27 27 26 27 29 29 31 34 46 20 8 5 8 8 9 4 3 3 2 4 3 3 4 2 3 5 6 3 4 3 4 5 3 3 1 1 3 1 4 4 4 8 1
30 29 29 27 25 27 27 26 29 30 30 33 40 14 8 2 4 5 5 8 4 3 4 4 2 3 1 1 3 2 4 2 4 3 2 2 1 1 0 2 2 1 3 2 7 4 0
33 32 30 29 27 25 26 25 27 29 31 28 26 13 11 11 2 4 3 9 6 1 3 2 2 1 1 1 3 4 4 5 2 4 5 2 2 1 2 2 2 2 2 5 4 3 2
36 34 32 31 30 27 25 23 26 29 30 28 21 18 12 7 9 2 8 8 2 5 6 2 3 1 1 0 1 3 4 4 2 3 4 3 2 3 2 2 2 4 5 7 5 2 2
35 34 33 32 31 30 27 22 25 29 28 34 33 20 16 8 2 11 11 1 3 3 3 3 4 4 2 2 1 1 1 3 1 4 4 7 3 2 2 1 2 3 4 1 0 2 3
36 35 34 34 32 30 27 22 22 26 27 33 15 19 13 12 5 15 8 2 2 3 5 2 3 4 4 5 2 2 1 2 3 2 2 1 7 2 1 4 4 3 5 4 5 3 2
38 36 35 36 33 28 26 21 19 23 23 15 17 14 10 11 10 15 2 2 5 5 5 8 3 3 3 2 1 2 3 3 5 7 5 3 5 2 2 2 1 2 2 3 6 2 2
38 38 38 35 36 30 25 18 17 18 18 11 5 5 6 13 16 5 1 4 4 3 4 2 3 3 5 4 4 3 2 2 2 7 1 2 3 1 5 2 2 3 5 3 2 3 4
40 42 40 38 34 22 21 14 17 16 16 9 7 3 12 17 13 2 3 5 5 4 3 3 4 4 3 5 6 4 3 1 3 1 5 3 2 5 3 4 6 2 2 1 3 3 4
42 42 37 29 18 18 17 13 14 13 13 12 4 2 20 25 5 2 3 4 4 3 1 2 4 3 6 6 4 4 4 1 7 1 3 3 3 4 7 2 1 2 3 4 3 3 2
40 31 26 12 12 7 12 13 14 14 12 7 4 2 12 10 4 4 3 4 4 3 3 3 2 2 2 5 2 4 4 2 7 4 2 3 2 3 9 0 3 3 4 7 1 2 5
30 25 19 13 11 12 13 15 15 16 15 8 3 3 2 2 1 2 3 4 3 1 3 3 3 3 3 1 2 3 2 3 3 3 7 2 3 5 5 5 2 3 3 5 7 2 3
26 21 19 15 11 17 20 24 23 20 19 13 3 2 4 5 7 5 2 3 4 4 1 2 2 3 5 3 1 3 2 1 5 7 5 3 1 1 9 10 8 6 9 6 6 4 4
27 21 21 20 24 31 28 20 25 25 21 12 4 3 1 3 4 12 4 4 7 2 4 2 3 4 4 5 4 5 4 1 2 5 3 4 1 2 4 7 9 10 8 11 13 8 10
29 23 22 23 25 22 19 13 7 13 26 8 5 1 4 4 5 9 5 4 7 8 2 3 6 5 4 3 4 4 5 5 4 4 2 3 1 3 4 5 2 3 6 8 3 4 4
28 26 21 23 25 23 24 23 29 27 29 9 10 4 3 3 7 9 4 5 4 1 6 3 4 4 3 7 6 6 7 6 6 5 3 3 2 1 3 5 1 5 5 2 6 5 4
27 27 23 22 22 24 28 32 39 25 53 29 11 4 3 3 4 3 6 5 5 6 4 4 4 1 6 4 3 3 3 3 4 5 1 2 2 2 2 2 5 3 5 4 2 3 7
25 27 24 23 24 25 25 31 11 40 44 34 13 8 2 4 3 1 5 2 4 3 3 3 3 2 3 2 2 3 3 3 2 2 3 1 1 2 2 1 2 1 6 3 4 2 9
25 25 24 22 25 25 23 27 20 49 34 28 6 3 2 4 3 3 3 4 5 4 3 3 3 1 2 2 2 2 2 4 4 5 4 2 1 3 1 2 6 4 9 4 2 2 8
26 24 23 22 23 23 19 21 12 51 36 20 3 3 2 3 3 4 5 3 3 3 4 4 4 2 2 2 3 3 2 3 2 4 5 6 5 3 3 2 5 3 4 2 0 3 2
27 24 23 22 22 22 20 20 15 46 42 21 4 12 14 6 3 10 13 15 4 2 5 1 2 3 4 4 1 2 1 2 3 2 1 2 5 3 7 5 3 1 2 3 3 2 3

GFSGBSN_925_spd_105.txt.gz
Wind_Speed
21 22 23 24 25 26 27 29 33 33 31 31 23 19 14 14 15 13 14 14 14 13 12 11 12 15 11 3 6 10 14 12 3 6 5 5 1 1 4 5 4 1 4 8 14 15 13
22 23 23 23 23 23 25 26 26 28 31 27 26 20 12 14 16 14 12 14 13 15 12 10 10 14 3 3 9 12 14 9 2 2 3 5 3 1 6 4 2 5 8 13 13 18 21
21 21 23 23 23 24 25 26 28 26 27 27 32 21 14 12 16 16 11 12 13 15 12 10 8 10 2 9 12 12 10 5 3 2 1 1 3 2 5 5 9 7 3 11 9 16 10
23 23 23 24 24 25 25 26 27 27 27 28 25 17 16 11 16 16 16 10 11 15 12 10 5 3 5 6 11 11 13 3 2 1 4 3 1 2 0 7 5 5 6 5 5 16 13
23 24 24 24 24 25 26 26 26 27 27 28 28 33 16 9 14 18 19 11 10 14 12 9 2 3 7 9 4 10 10 6 10 3 3 3 2 2 4 3 3 1 3 3 8 10 13
24 24 23 22 21 22 25 26 27 28 27 30 27 27 14 8 10 17 19 14 7 14 5 4 1 3 4 4 6 11 10 8 4 6 2 3 2 1 2 1 4 7 6 5 4 3 13
24 22 22 23 22 22 24 23 25 28 29 28 29 25 27 11 7 12 13 5 5 3 4 6 4 4 2 8 8 2 7 7 4 2 1 2 3 3 3 2 3 4 9 4 3 5 8
26 26 25 23 21 21 23 25 24 27 29 28 29 29 22 11 4 8 7 1 1 2 6 7 3 3 7 2 2 2 5 0 3 1 5 5 2 2 4 3 3 3 7 3 1 8 8
28 29 29 28 27 25 23 22 23 27 29 28 30 36 6 8 3 4 5 5 2 3 3 3 4 3 3 2 2 3 3 0 2 2 3 3 1 3 1 2 4 1 4 5 5 7 0
29 30 30 32 30 28 26 24 21 25 28 27 27 22 3 2 5 3 4 5 3 2 3 3 3 2 2 2 2 2 1 2 1 1 1 1 4 2 2 0 3 2 1 4 8 8 1
31 31 31 32 31 30 29 25 22 24 26 24 26 23 11 7 2 4 3 5 4 2 3 0 2 1 1 2 1 3 2 2 2 2 4 2 3 2 1 2 1 3 2 6 4 2 3
34 33 33 32 32 29 29 27 24 24 26 24 24 21 16 10 8 4 3 4 2 4 6 0 1 2 2 1 1 3 2 3 1 3 3 2 3 2 2 2 2 4 5 6 4 2 1
32 32 32 33 32 32 29 29 24 22 24 23 28 21 13 12 4 7 7 3 3 3 3 2 3 2 2 2 2 2 2 3 2 4 5 5 1 4 2 2 2 1 3 1 2 2 3
33 34 36 34 32 31 31 27 22 21 19 22 31 13 23 14 7 16 6 3 3 3 4 2 2 2 2 4 2 2 2 4 2 3 3 3 5 1 2 2 2 4 3 4 5 4 2
34 35 37 37 36 34 29 27 22 19 13 13 14 12 15 16 11 17 4 2 3 4 2 5 3 2 2 0 2 2 1 1 2 5 3 2 4 1 3 2 3 1 4 2 5 2 1
35 36 39 37 34 31 26 22 17 12 8 7 9 2 2 16 17 10 3 3 3 3 2 1 1 2 4 2 1 2 0 0 3 4 1 2 3 0 3 1 2 3 1 2 2 4 3
35 34 35 31 28 23 20 10 7 5 6 8 3 2 6 13 16 3 2 3 4 5 3 3 4 2 2 3 4 2 1 2 4 3 4 3 1 5 2 1 3 1 2 1 1 2 3
33 34 28 24 22 18 15 7 4 2 7 4 4 2 12 23 3 3 3 3 3 4 2 1 2 2 5 4 3 3 3 1 6 3 2 2 2 4 6 2 2 3 1 2 3 4 1
31 30 24 21 19 16 13 6 1 2 6 5 1 1 12 6 3 3 3 2 2 2 3 2 2 1 1 4 2 2 3 2 7 4 2 3 2 3 9 3 3 3 1 3 6 3 4
28 28 23 21 14 12 16 7 6 5 6 3 2 2 2 2 2 4 4 4 2 3 2 2 2 2 3 2 4 4 2 4 4 4 7 1 2 5 6 5 2 4 3 1 2 3 3
28 26 25 17 17 19 15 20 15 11 10 5 2 2 2 4 3 4 3 1 2 3 0 2 1 2 4 3 2 2 1 2 5 7 4 4 2 2 4 6 4 11 13 8 1 2 3
27 26 26 19 19 18 18 15 10 9 7 7 3 2 2 2 6 5 2 2 4 2 3 3 2 3 2 3 3 6 4 1 1 5 3 5 1 2 4 4 5 5 9 8 8 7 10
26 25 24 22 19 18 20 12 5 3 17 4 5 4 2 5 5 6 4 4 2 5 1 3 3 4 4 3 5 4 5 5 4 4 2 2 2 3 4 6 4 3 4 3 2 2 3
27 24 24 22 18 18 18 14 6 4 7 14 10 3 2 2 5 5 2 7 3 1 4 3 3 4 3 6 6 6 8 8 8 6 3 3 3 1 3 5 4 4 2 1 6 5 9
28 24 23 23 21 19 21 19 21 21 25 23 24 5 2 2 4 4 4 4 5 5 4 4 5 2 7 3 3 3 3 4 5 5 3 2 3 2 1 2 4 2 3 3 2 1 6
27 25 22 22 21 18 18 22 28 40 26 36 30 13 2 3 2 3 4 4 4 3 3 3 3 3 3 2 2 3 3 3 3 2 2 2 3 3 2 1 2 2 3 0 3 1 5
28 26 21 21 20 17 18 22 29 14 28 36 14 10 5 3 3 3 3 4 4 4 4 3 4 2 2 2 2 2 2 4 3 5 4 1 1 3 0 2 6 5 6 2 1 1 2
26 28 22 21 19 16 15 17 22 7 36 25 10 9 5 3 3 3 3 3 3 2 4 4 4 1 2 2 3 3 3 4 2 4 5 6 5 3 3 1 5 2 2 0 1 0 2
22 28 23 21 19 16 14 12 16 5 28 22 7 6 9 4 2 4 11 12 2 1 5 1 2 3 4 4 1 3 2 1 3 2 1 2 5 4 7 5 3 2 2 2 2 0 2

GFSGBSN_925_spd_108.txt.gz
Wind_Speed
20 21 20 22 22 23 24 25 25 25 25 24 23 25 18 16 12 12 13 11 12 10 7 8 12 12 5 4 6 7 13 10 4 5 5 4 6 4 8 7 7 5 6 3 6 9 15
19 20 20 21 22 22 22 23 24 25 24 23 26 26 19 16 12 10 11 12 10 11 7 5 10 11 3 5 1 8 13 7 3 3 3 5 3 4 2 4 9 7 7 8 12 16 12
22 19 20 20 19 22 23 23 24 24 25 25 25 24 32 16 12 9 10 10 10 12 10 5 7 6 6 9 5 10 9 7 3 3 2 2 4 3 3 4 3 7 7 4 9 9 8
20 20 20 20 19 18 20 23 23 24 25 25 25 24 23 16 10 10 13 12 9 9 8 6 5 4 6 5 9 9 8 5 4 5 5 3 2 4 4 3 4 5 4 4 3 11 5
22 22 20 19 18 18 18 20 23 24 24 25 26 22 21 20 11 12 13 16 10 7 8 5 3 4 8 7 5 7 7 6 11 5 5 3 2 2 5 5 4 6 4 6 5 5 4
25 25 25 24 21 19 18 16 17 23 23 24 25 25 22 25 14 13 15 14 6 6 3 4 2 3 5 2 5 10 5 3 3 7 4 5 3 2 3 5 2 6 6 7 9 4 3
25 26 27 27 27 24 22 20 18 21 22 22 24 27 23 24 17 11 10 3 3 3 4 6 5 2 3 4 5 3 4 6 3 1 3 1 4 4 5 6 8 4 6 8 2 6 1
25 27 27 26 28 27 25 23 20 22 22 21 22 26 26 10 12 7 6 3 1 1 5 9 4 3 4 2 2 4 6 3 2 2 3 4 4 2 6 6 3 3 5 5 2 0 4
27 27 28 27 27 27 28 25 23 22 22 20 19 22 21 2 3 5 4 4 3 3 4 2 4 3 2 5 1 3 4 2 2 2 2 5 1 5 6 3 2 1 2 4 1 3 7
27 29 29 28 29 29 28 27 25 22 23 21 17 19 15 11 5 3 2 3 5 3 1 3 4 2 4 3 1 1 3 3 3 2 2 4 3 3 5 5 5 2 2 4 6 7 2
29 30 30 31 31 31 31 27 27 24 24 24 17 17 17 14 4 3 3 7 5 1 1 3 3 1 2 2 2 2 2 2 2 1 2 1 2 2 5 4 5 3 3 3 6 2 3
31 32 32 32 33 34 32 29 26 26 25 22 18 16 18 7 9 6 5 7 2 2 2 2 2 3 3 1 2 0 3 1 2 1 3 4 2 3 4 5 2 2 4 5 4 3 4
31 32 33 34 35 37 34 32 26 25 24 20 17 20 17 10 4 12 7 3 2 1 0 2 2 3 2 2 1 1 0 2 2 2 2 2 3 3 2 5 3 6 6 3 4 3 3
31 33 34 34 38 35 34 31 27 21 21 15 19 28 14 18 12 11 6 3 3 1 3 1 2 4 3 5 1 1 2 1 0 1 1 3 1 2 2 2 3 8 4 3 5 4 2
30 32 33 35 33 31 29 28 22 18 14 9 15 7 12 15 12 14 5 2 3 3 1 3 3 4 4 3 1 2 0 1 1 3 3 3 1 2 3 4 2 1 6 3 1 1 3
29 31 33 32 29 28 30 26 14 9 2 7 7 5 3 12 7 3 2 2 3 4 2 2 1 2 3 4 4 3 1 2 2 2 3 1 4 1 2 2 2 3 2 2 3 5 5
28 28 29 28 23 23 25 20 12 9 8 7 2 1 1 12 9 2 2 3 2 3 4 3 0 2 1 2 3 2 2 2 4 2 2 1 2 1 3 2 5 1 3 3 2 4 2
26 27 27 26 20 19 19 16 10 9 11 6 1 2 4 14 2 2 2 3 1 2 3 2 1 0 2 4 3 2 2 3 6 2 1 2 2 3 5 3 4 1 3 5 4 3 0
25 26 26 27 18 16 19 15 10 9 11 4 2 2 7 2 2 3 1 2 2 1 3 1 1 1 1 3 1 1 2 2 7 3 2 2 1 3 1 3 6 4 4 2 4 3 4
23 23 24 23 18 17 18 17 12 5 6 4 2 1 2 1 3 2 4 4 2 1 2 1 2 1 2 2 2 3 3 3 3 3 6 1 2 2 5 4 3 5 5 4 4 2 5
21 21 22 22 20 14 15 20 7 6 3 3 1 1 1 3 2 3 4 3 1 3 2 1 1 2 2 2 2 2 2 2 4 4 3 2 1 2 6 6 8 9 9 7 5 6 3
20 19 20 21 19 13 14 13 2 2 2 3 0 2 1 0 5 3 1 1 1 2 1 1 2 3 1 1 2 2 3 1 2 3 3 3 1 0 2 5 4 4 6 8 10 10 10
20 18 18 19 16 15 11 13 4 6 10 2 3 0 1 2 4 3 2 2 2 2 3 5 1 3 3 4 6 7 8 7 4 1 2 2 2 2 2 7 2 2 4 2 0 0 4
20 17 16 17 15 14 10 9 7 4 13 1 2 5 2 0 4 6 1 4 0 1 3 4 4 1 4 12 11 10 11 10 8 8 4 3 2 0 2 4 1 2 4 2 5 4 2
19 17 15 16 13 13 12 8 8 9 8 8 4 4 3 2 6 5 5 2 6 5 4 3 5 2 11 1 2 3 2 1 4 6 4 2 0 1 2 2 3 3 2 2 2 3 1
20 17 16 15 15 13 12 10 12 16 17 17 16 13 2 5 1 3 3 4 3 3 3 3 5 7 2 1 1 2 2 1 3 1 2 1 2 2 1 1 1 4 2 1 3 4 2
20 17 16 15 14 14 13 13 15 21 23 24 14 28 5 3 2 1 2 1 3 3 3 4 5 3 2 1 2 3 1 0 3 4 5 2 2 3 3 3 4 4 1 4 3 4 5
20 19 16 15 13 15 14 12 13 13 12 27 15 26 10 2 2 1 2 1 1 2 3 5 4 2 3 4 2 2 3 3 3 2 4 5 6 3 3 3 2 5 4 4 3 2 1
18 21 17 17 13 14 15 11 10 6 18 19 10 18 11 5 3 2 4 5 1 1 3 3 2 3 4 3 2 2 3 2 2 2 4 4 3 2 5 1 2 3 1 1 2 1 1

GFSGBSN_925_spd_111.txt.gz
Wind_Speed
19 20 20 21 21 20 24 25 25 24 24 24 24 24 25 30 20 15 10 9 9 10 9 10 9 9 10 6 8 1 8 9 7 6 8 5 8 11 12 12 11 16 7 4 4 6 3
19 20 20 20 21 20 20 24 23 23 24 24 24 25 24 26 17 13 10 10 9 9 9 9 6 7 9 9 3 2 7 7 4 7 5 6 5 8 11 9 11 6 7 7 5 7 5
22 22 22 21 20 20 19 21 24 22 23 23 24 24 24 23 16 15 10 10 10 10 10 8 6 5 10 13 2 5 6 7 4 4 3 3 7 4 6 2 5 4 8 8 5 2 5
22 22 23 24 23 22 21 20 22 23 22 23 23 23 23 24 23 16 12 13 12 11 9 7 5 4 7 4 5 9 5 7 4 6 5 6 6 7 7 3 5 8 12 10 12 6 4
23 24 25 26 27 27 26 24 22 26 24 24 25 24 24 25 21 19 16 15 13 12 9 5 4 5 8 2 6 3 3 5 8 7 4 3 2 4 4 4 6 11 8 12 8 9 6
24 25 26 28 28 29 29 28 26 24 24 23 24 24 26 27 24 20 16 15 11 4 5 4 5 4 7 0 2 5 3 4 4 3 5 7 4 5 4 5 3 9 16 12 17 7 3
24 27 27 27 28 28 29 29 28 26 24 22 22 22 25 28 20 15 11 4 3 4 9 8 3 3 3 4 4 4 1 5 8 6 9 6 6 8 4 8 13 11 12 13 2 5 5
26 27 27 28 27 27 28 29 28 26 25 24 21 19 23 23 11 3 5 4 5 2 6 12 10 8 5 3 3 4 3 3 5 9 5 5 9 5 7 12 10 9 9 6 3 1 4
26 28 28 28 28 29 29 30 28 27 25 24 22 17 19 17 16 9 7 8 4 0 4 3 5 6 2 4 2 0 4 3 8 10 10 10 7 7 7 12 9 5 10 3 9 3 8
27 28 29 29 30 31 32 32 30 26 26 23 23 17 15 15 9 5 5 4 5 3 2 5 4 3 4 2 3 1 3 3 3 8 6 9 5 6 9 11 8 14 4 7 5 7 3
27 30 30 32 34 34 36 35 32 30 29 25 23 16 10 9 11 4 4 3 3 4 3 3 4 2 3 3 1 3 2 2 8 7 4 3 7 8 10 8 7 6 9 9 9 9 8
28 31 31 33 35 38 35 33 31 31 27 25 19 12 7 8 8 12 9 3 4 2 3 3 4 5 5 3 2 2 1 3 3 7 7 10 4 5 8 11 9 11 10 7 6 4 4
28 31 31 34 36 35 35 33 34 29 22 16 16 9 10 8 5 8 5 3 3 3 3 4 3 4 4 5 4 2 2 4 4 4 1 5 3 4 5 9 8 9 9 3 3 3 2
27 29 30 33 34 31 32 36 33 22 13 12 9 12 18 18 17 9 5 4 5 3 2 2 3 6 2 6 2 4 3 2 3 6 5 5 0 6 8 6 7 10 9 5 4 2 1
25 29 29 31 32 27 30 32 26 20 14 12 12 15 4 7 10 10 4 4 4 2 2 4 5 3 4 4 1 3 1 3 5 6 6 5 2 3 4 8 6 4 4 8 6 3 3
24 27 27 29 29 24 25 24 20 20 18 16 9 6 5 7 13 4 3 3 2 2 1 1 4 2 2 4 2 1 1 4 3 5 5 5 5 2 5 7 1 4 1 2 1 3 4
22 25 26 28 27 23 21 25 20 21 21 14 4 1 3 5 10 2 1 3 3 2 3 4 4 2 3 2 1 2 4 3 5 5 4 6 2 3 6 6 9 4 3 4 1 4 3
21 23 24 26 25 23 20 23 19 18 21 10 5 2 5 8 2 2 0 3 4 3 1 2 2 4 4 2 2 2 2 5 7 5 6 6 5 5 9 6 5 6 5 4 3 4 2
18 20 22 23 26 24 19 22 22 11 14 10 3 2 5 5 2 2 2 3 3 3 0 2 3 3 2 2 1 2 2 3 6 4 5 7 1 4 4 3 8 4 5 6 1 2 3
16 17 21 21 24 23 19 21 21 5 9 7 2 2 3 2 3 2 1 2 2 2 1 2 3 1 0 1 2 2 3 2 3 3 5 3 1 2 5 6 4 7 8 7 5 2 6
14 15 18 18 21 20 16 22 17 2 6 5 4 3 4 1 1 3 3 3 2 2 2 2 2 2 4 1 0 1 1 3 3 1 1 1 0 3 5 5 5 8 8 8 1 5 2
13 13 17 16 18 18 15 18 12 4 6 4 3 3 4 4 3 3 2 4 4 2 6 4 2 4 2 3 5 4 1 2 3 2 2 3 1 1 1 5 4 1 4 5 6 8 8
13 11 15 14 14 14 14 12 12 1 2 2 3 2 1 4 2 2 3 4 6 3 4 6 4 1 4 5 6 6 6 6 4 2 2 1 2 2 3 4 2 2 2 0 2 2 3
12 10 13 13 13 12 12 8 9 5 9 3 4 3 2 3 1 3 2 4 4 5 2 4 6 2 4 7 7 7 7 6 6 6 4 3 1 1 2 3 1 3 1 1 1 0 4
14 10 12 12 13 11 10 8 5 5 4 3 2 1 1 3 5 2 4 1 2 3 2 4 5 3 8 2 2 2 3 3 3 4 3 2 2 1 3 3 1 4 4 3 3 5 4
15 12 11 13 13 12 11 11 8 8 8 8 7 5 1 4 4 3 2 3 2 1 3 3 5 8 3 2 2 2 2 2 1 1 2 1 1 2 2 2 2 5 5 1 2 7 9
17 14 11 13 13 12 11 12 12 12 14 16 12 15 3 2 1 2 3 1 0 1 2 3 5 3 1 1 2 2 1 1 2 2 3 2 2 4 3 3 3 5 5 4 3 3 7
20 16 12 13 15 13 11 13 12 15 22 25 15 23 15 3 1 2 1 3 2 2 2 5 4 2 3 2 1 1 2 1 2 1 3 4 4 3 2 3 3 10 6 4 4 2 3
21 18 15 14 16 15 12 12 10 11 2 10 4 23 17 3 3 3 2 1 3 3 1 5 2 2 2 3 2 2 3 1 3 2 4 4 3 2 4 1 3 10 3 3 1 2 2

GFSGBSN_925_spd_114.txt.gz
Wind_Speed
22 22 22 23 23 22 22 23 24 23 22 22 22 24 25 25 27 26 14 10 10 10 10 10 10 10 9 5 10 5 2 2 3 4 7 6 8 5 8 8 15 14 17 10 6 9 7
22 23 24 24 24 24 22 22 25 24 23 22 22 23 24 25 25 26 14 9 10 10 10 9 10 7 7 8 1 2 3 2 2 3 5 5 5 6 6 10 11 6 13 14 7 11 10
23 24 24 25 26 27 27 26 24 26 25 24 23 22 23 24 24 25 19 11 11 10 10 9 9 7 11 15 2 5 5 5 4 3 1 2 3 3 5 7 7 8 9 10 12 14 8
24 23 25 25 26 26 27 27 26 26 26 25 24 22 22 24 25 25 21 15 12 11 10 7 8 8 6 4 6 9 9 6 5 4 6 4 3 3 4 8 5 5 7 7 10 14 5
24 23 27 26 26 28 28 28 27 27 26 25 23 23 21 23 25 25 20 17 14 12 9 5 4 7 7 2 5 8 3 4 3 8 6 3 3 3 5 3 4 7 5 12 11 14 3
25 25 27 29 28 28 28 28 28 28 27 25 24 22 19 22 24 25 13 12 13 8 4 6 10 4 7 1 1 3 6 4 3 2 5 4 3 4 5 3 3 6 7 13 9 11 10
25 27 28 29 30 30 30 30 30 29 27 26 23 23 17 17 19 15 5 3 3 4 10 8 8 4 2 7 5 7 3 6 8 5 7 7 5 7 12 13 10 14 14 15 11 9 5
26 28 28 29 30 30 32 32 32 30 28 26 24 21 16 14 15 13 4 2 4 4 5 17 15 11 8 4 5 6 2 5 4 8 8 5 8 7 8 9 13 14 17 12 4 9 3
26 27 27 29 30 32 32 34 33 31 29 26 23 20 17 12 14 5 3 8 8 8 3 4 9 8 4 4 3 3 3 2 5 7 9 8 9 8 8 9 12 13 12 10 9 1 7
26 26 29 29 29 32 34 32 33 32 29 26 23 18 15 9 6 3 2 7 1 2 2 6 5 3 3 4 2 3 2 2 3 3 6 6 6 8 8 10 8 10 4 14 11 9 3
27 27 29 29 31 32 31 33 37 36 30 24 17 12 6 7 6 2 4 8 2 2 3 4 4 1 2 4 1 3 1 3 4 10 5 6 4 8 10 7 9 6 12 13 10 8 7
25 27 30 29 32 32 30 35 36 31 24 17 10 8 2 7 6 4 6 4 2 2 1 2 3 5 5 3 2 2 1 1 3 4 7 9 5 1 5 12 10 12 12 12 8 2 1
24 27 29 29 31 31 29 31 30 30 25 20 13 6 4 6 2 5 2 2 2 2 3 2 4 5 5 5 3 2 1 3 3 4 4 5 1 2 3 10 9 5 6 3 2 1 3
24 25 29 28 31 29 27 29 27 26 26 23 15 10 9 10 7 7 3 2 2 4 4 1 4 5 3 5 3 2 3 1 4 5 5 2 3 7 8 7 7 9 3 2 2 3 2
21 24 28 26 29 29 25 26 29 26 28 22 13 11 11 10 6 3 1 2 5 4 2 3 5 4 4 2 2 4 4 5 6 7 5 6 4 2 3 5 5 6 4 3 4 3 1
19 22 26 25 27 28 22 25 28 28 28 20 9 5 12 6 8 3 2 5 4 6 4 3 2 5 8 4 2 4 2 5 5 6 6 5 4 5 6 4 3 5 5 4 3 5 3
18 20 23 23 25 26 23 24 27 26 26 17 4 3 13 11 2 2 2 3 6 8 7 8 8 4 6 5 5 3 5 7 8 8 8 7 3 6 4 6 7 5 4 3 2 1 3
17 19 21 21 23 25 22 24 25 21 23 16 5 3 8 11 3 2 4 4 5 7 2 3 4 7 7 5 5 3 5 6 8 6 6 6 3 3 6 7 7 9 6 3 2 4 2
16 17 19 19 20 23 21 24 24 11 15 9 3 2 8 6 3 3 4 4 4 9 9 6 6 6 5 5 2 6 6 4 8 5 5 6 3 3 3 3 8 5 7 7 2 2 3
16 15 17 16 17 21 22 23 16 11 11 7 2 2 2 3 1 4 5 6 5 4 4 4 3 3 1 5 5 3 5 4 4 6 6 5 2 3 2 4 3 2 7 7 4 2 4
16 13 15 15 13 16 19 20 21 15 9 3 4 2 1 3 4 6 6 6 7 6 4 5 3 7 6 4 3 4 3 4 3 2 1 3 2 4 5 3 4 3 4 4 3 4 2
15 11 13 13 12 13 15 15 17 14 15 2 3 2 2 2 5 6 3 5 8 7 9 5 7 6 10 5 5 5 5 5 5 1 3 5 1 3 3 3 5 2 2 2 3 5 1
14 9 11 10 9 10 11 11 13 14 10 3 2 1 1 2 2 3 3 5 7 6 4 5 8 4 7 5 6 4 6 6 4 3 3 2 2 1 0 1 3 4 2 1 2 2 2
14 12 10 8 7 8 8 8 7 8 4 8 3 1 1 3 2 0 3 3 6 4 4 4 9 5 1 2 3 4 5 5 6 5 5 2 2 1 3 2 4 3 2 1 4 0 2
12 14 11 8 5 6 8 7 3 3 4 8 5 4 3 1 2 4 2 2 3 2 3 3 4 4 2 3 2 2 1 1 4 4 4 3 2 1 1 2 1 5 4 3 2 5 6
12 14 13 8 6 7 8 6 8 3 4 7 9 4 3 3 2 1 3 1 3 2 3 2 2 4 4 2 2 1 2 1 0 1 3 3 2 2 3 1 1 3 4 4 3 4 6
15 14 15 10 7 8 9 8 7 7 6 7 7 8 3 3 0 1 2 2 2 2 2 3 3 2 1 2 1 1 2 1 1 2 2 1 2 2 3 2 5 7 7 4 1 4 7
17 16 17 12 9 8 9 9 9 9 8 11 14 17 8 3 2 1 1 2 2 3 2 3 3 2 1 1 2 1 1 1 2 4 4 5 5 3 1 1 6 7 4 4 3 2 6
18 20 18 14 11 10 9 9 9 9 10 1 1 14 20 6 3 2 5 7 3 1 2 2 1 2 2 2 1 1 2 1 1 2 1 3 4 2 5 5 1 8 4 5 3 1 4

GFSGBSN_925_spd_117.txt.gz
Wind_Speed
23 24 24 24 25 25 25 25 24 23 22 20 19 19 19 21 21 20 19 8 5 4 6 5 5 6 6 2 7 9 5 5 4 6 9 7 9 7 5 4 3 10 15 15 17 16 19
24 24 24 27 26 26 27 28 26 23 24 23 22 19 17 19 20 21 19 17 7 5 6 4 3 3 2 5 5 8 5 7 7 10 3 3 1 3 6 5 5 5 9 15 17 17 7
25 24 24 27 26 27 27 26 26 25 24 24 23 22 18 16 19 20 19 16 10 5 6 5 2 2 4 12 8 4 5 8 12 9 3 5 1 2 3 6 8 10 12 11 10 12 9
26 25 25 27 28 28 27 27 26 27 26 25 24 22 20 15 17 20 20 14 10 7 4 4 2 2 5 10 5 9 9 11 12 6 9 6 2 2 4 7 5 4 3 2 3 12 7
27 27 28 27 30 29 29 29 29 29 28 27 25 23 20 17 16 19 20 10 8 7 3 3 2 4 6 7 5 11 10 4 10 11 10 5 3 4 3 2 3 3 4 5 11 10 8
28 28 28 28 32 31 30 31 31 30 30 27 25 23 20 16 14 16 14 3 3 2 3 4 3 1 5 1 2 1 6 5 3 3 1 3 3 1 2 2 3 5 7 8 11 6 16
28 28 28 30 31 30 32 33 32 31 30 29 26 23 19 14 13 13 12 3 3 2 4 6 7 4 4 7 4 4 5 8 4 3 5 5 2 6 7 9 15 14 12 15 16 9 5
26 29 28 31 30 31 33 33 33 33 33 28 24 21 15 11 11 12 6 1 3 1 2 14 9 9 14 2 2 4 4 3 5 6 4 3 7 10 10 8 10 8 11 12 7 6 5
25 27 28 31 30 32 33 32 35 36 32 26 18 17 10 5 8 4 0 1 7 4 0 2 5 5 3 5 3 4 1 3 5 4 7 3 6 5 6 7 9 6 5 7 14 10 9
23 25 28 30 30 32 30 31 32 34 32 24 17 9 4 1 3 1 1 6 3 3 2 2 1 1 2 1 2 3 1 1 3 4 5 5 4 7 7 8 9 5 3 12 14 10 4
23 23 27 30 30 31 28 29 30 30 32 32 20 13 5 1 4 4 6 5 1 2 4 1 2 2 1 2 2 1 1 2 3 3 4 7 4 3 4 5 7 7 7 11 8 9 4
21 21 26 30 29 29 27 28 30 29 31 29 24 16 8 7 2 3 5 3 1 2 3 2 2 1 1 2 1 2 1 2 3 3 3 7 4 3 2 8 8 12 9 10 3 1 2
24 21 25 29 28 28 27 27 28 29 29 28 21 14 8 3 1 6 5 2 2 5 4 1 2 3 5 2 2 2 2 1 3 5 4 6 3 3 3 6 6 14 5 3 3 3 4
24 19 24 27 25 27 26 26 27 29 24 23 17 17 19 3 4 7 7 1 6 5 3 1 2 3 2 2 0 1 2 3 6 5 2 4 7 6 6 3 4 5 3 3 4 1 3
28 19 23 24 23 26 26 26 27 28 22 17 13 21 15 14 6 4 2 4 4 2 4 1 1 0 2 1 2 1 5 4 3 6 4 5 4 5 5 2 3 7 3 1 3 1 3
26 16 22 22 22 25 27 26 29 27 23 15 8 5 16 14 9 4 2 9 4 5 6 3 2 1 3 1 1 1 4 6 7 7 4 4 2 5 4 8 8 4 4 4 4 4 4
23 15 19 20 21 24 26 29 28 24 25 7 4 3 12 12 9 2 3 5 4 4 5 6 6 6 5 3 5 4 6 3 7 7 6 5 3 6 6 5 5 6 5 4 4 3 4
21 14 16 21 18 22 25 27 24 26 28 14 3 4 10 14 4 2 3 2 6 8 6 5 5 6 5 8 6 4 3 4 9 4 3 3 3 2 1 4 4 4 5 3 3 4 3
19 15 14 19 16 19 21 24 21 22 23 16 2 1 6 6 4 4 4 3 3 6 6 6 6 6 5 5 4 4 4 3 8 5 2 4 3 3 7 7 7 5 6 4 2 2 2
16 12 13 15 14 16 18 22 18 19 19 19 2 3 4 3 1 1 3 5 4 4 4 5 4 3 3 4 5 3 2 3 3 2 6 3 3 5 5 6 3 4 6 6 4 4 2
14 9 11 12 12 13 15 15 16 16 15 12 5 2 1 1 4 4 3 3 5 5 5 7 5 8 4 4 3 3 2 1 4 5 3 4 3 3 2 3 2 4 3 4 3 4 4
13 9 8 10 9 9 11 14 17 16 11 9 2 3 4 3 3 4 4 4 4 3 5 5 5 6 8 4 2 2 4 4 1 4 3 4 0 2 4 2 4 2 5 4 3 3 2
13 9 7 8 8 7 8 9 13 11 8 6 4 4 3 4 4 2 1 2 3 2 2 4 3 1 5 2 2 2 4 4 2 2 2 3 3 3 3 2 4 5 4 3 1 2 4
14 11 10 8 6 5 5 6 7 9 12 7 6 4 2 4 3 2 2 2 2 2 2 2 4 3 2 5 4 4 4 5 6 5 2 3 2 2 3 4 4 5 2 2 3 3 4
16 14 14 9 6 5 4 3 1 4 4 6 5 3 3 3 4 3 4 2 2 3 2 1 2 0 3 2 2 2 4 4 2 3 4 3 2 2 3 2 4 1 4 4 4 4 7
18 16 16 12 8 7 6 5 4 3 1 1 3 4 1 2 3 6 3 2 1 1 2 1 2 2 4 1 1 2 1 3 3 4 3 2 3 3 1 2 4 4 4 4 4 3 6
20 18 19 15 10 8 9 8 7 5 4 3 2 2 2 2 3 3 2 3 3 1 1 1 1 1 2 2 1 2 2 2 0 2 2 2 2 3 2 2 6 4 6 4 2 5 6
23 20 21 19 14 11 11 11 10 9 8 8 5 9 7 2 3 1 2 2 4 2 2 2 3 1 2 1 2 3 2 3 1 3 4 5 4 3 1 1 6 7 5 6 4 3 7
25 24 23 22 17 13 13 12 12 11 9 7 4 7 18 2 4 4 7 10 7 4 1 1 2 2 4 2 0 2 1 2 3 3 1 2 6 3 8 5 5 7 4 4 4 5 5